Senate Bill 20

 UnitPO No.SupplierTotal Merchandise AmtPO DateContract #PDF_IDPDF View
1 NT752 0000226505 Wynne Transportation LLC 2677.50 10/06/2019   000022650500000466610001 PDF View
2 NT752 0000228449 Agilent Technologies Inc 46099.40 09/20/2019   000022844900000063130001 PDF View
3 NT752 0000228336 CBS Mechanical Inc 20258.00 09/20/2019 558-18 000022833600000045950001 PDF View
4 NT752 0000228423 BSN Sports LLC 7485.45 09/20/2019   000022842300000051220001 PDF View
5 NT752 0000228203 Kinetic Leasing Inc 10233.16 09/20/2019   000022820300000229790001 PDF View
6 NT752 0000228345 Apple Computer Inc 2440.00 09/20/2019 DIR-TSO-3789 000022834500000067150001 PDF View
7 NT752 0000228424 Godfather Transporation Inc 550.00 09/20/2019   000022842400000200960001 PDF View
8 NT752 0000228447 James Wood Autopark Inc 30697.00 09/20/2019 CITY OF DENTON 000022844700000052410001 PDF View
9 NT752 0000228471 Summus Dell Products 1025.00 09/20/2019 DIR-TSO-3763 000022847100000062270001 PDF View
10 NT752 0000228468 Franke Coffee Systems Americas LLC 4500.00 09/20/2019   000022846800000739720001 PDF View
11 NT752 0000228470 Riverstick Technology Partners LLC 660.00 09/20/2019   000022847000000262920001 PDF View
12 NT752 0000228389 Theag North Dallas LLC/Fastsigns 50.00 09/20/2019   000022838900000142460001 PDF View
13 NT752 0000228439 Cuevas Distribution Inc 43.20 09/20/2019 CNR0132 000022843900000010530001 PDF View
14 NT752 0000228380 A3 Performance 1024.00 09/20/2019   000022838000000226590001 PDF View
15 NT752 0000228418 BSN Sports LLC 9711.86 09/20/2019   000022841800000051220001 PDF View
16 NT752 0000228442 Life Technologies Corporation 226.30 09/20/2019   000022844200000594040001 PDF View
17 NT752 0000228387 Groggy Dog Sportswear 1050.00 09/20/2019   000022838700000058790001 PDF View
18 NT752 0000228458 Summus Dell Products 3441.30 09/20/2019 DIR-TSO-3763 000022845800000062270001 PDF View
19 NT752 0000228375 Wynne Transportation LLC 6400.00 09/20/2019   000022837500000466610001 PDF View
20 NT752 0000228435 Straiton,Diondra 129.32 09/20/2019   000022843500000230240001 PDF View
21 NT752 0000228456 Headhunter Systems Ltd t/aGraduway 6750.00 09/20/2019   000022845600000048620001 PDF View
22 NT752 0000228433 BSN Sports LLC 11109.50 09/20/2019 PRIME 000022843300000051220001 PDF View
23 NT752 0000228416 BSN Sports LLC 7736.66 09/20/2019   000022841600000051220001 PDF View
24 NT752 0000228451 Swank Motion Pictures Inc 433.00 09/20/2019   000022845100000025500001 PDF View
25 NT752 0000228446 Enterprise FM Trust 20000.00 09/20/2019   000022844600000701040001 PDF View
26 NT752 0000228388 Groggy Dog Sportswear 648.60 09/20/2019   000022838800000058790001 PDF View
27 NT752 0000227410 Relias Learning LLC 1995.00 09/20/2019   000022741000000716690001 PDF View
28 NT752 0000228443 Summus VWR Products 321.87 09/20/2019 E&I CNR01163 000022844300000102880001 PDF View
29 NT752 0000228410 Summus Dell Products 335.95 09/19/2019 DIR-TSO-3763 000022841000000062270001 PDF View
30 NT752 0000228391 Ted Pella Inc 149.00 09/19/2019   000022839100000069010001 PDF View
31 NT752 0000228357 LITTLE'S SPECIAL SERVICES 2901.15 09/19/2019   000022835700000041310001 PDF View
32 NT752 0000228399 SHI Government Solutions Inc 367.00 09/19/2019   000022839900000013900001 PDF View
33 NT752 0000228401 Ricoh USA 5905.48 09/19/2019   000022840100000612410001 PDF View
34 NT752 0000228030 STM Ground Inc dba STM Driven 3200.00 09/19/2019   000022803000000229300001 PDF View
35 NT752 0000228396 Fisher Scientific 930.00 09/19/2019 UTSSCA4914 000022839600000015080001 PDF View
36 NT752 0000228372 Classic Landscapes&Maintenance Inc 2173.75 09/19/2019   000022837200000145250001 PDF View
37 NT752 0000228411 Ricoh USA 650.00 09/19/2019   000022841100000612410001 PDF View
38 NT752 0000228397 Ricoh USA 2223.68 09/19/2019   000022839700000612410001 PDF View
39 NT752 0000228368 Classic Landscapes&Maintenance Inc 6592.50 09/19/2019 RFP752-18-205410-MM 000022836800000145250001 PDF View
40 NT752 0000228340 BSN Sports LLC 3749.90 09/19/2019   000022834000000051220001 PDF View
41 NT752 0000228337 CBS Mechanical Inc 8625.00 09/19/2019 558-18 000022833700000045950001 PDF View
42 NT752 0000228403 DAC Inc 626.29 09/19/2019   000022840300000618610001 PDF View
43 NT752 0000228341 Sam Pack's Five Star Ford 59306.75 09/19/2019 521-16 000022834100000241610001 PDF View
44 NT752 0000228425 Apple Computer Inc 1410.00 09/19/2019 DIR-TSO-3789 000022842500000067150001 PDF View
45 NT752 0000228272 Phase 3 Media dba Gigantic Color Dallas 2207.78 09/19/2019   000022827200000642030002 PDF View
46 NT752 0000228402 Ricoh USA 3905.48 09/19/2019   000022840200000612410001 PDF View
47 NT752 0000228351 BSN Sports LLC 1936.50 09/19/2019   000022835100000051220001 PDF View
48 NT752 0000228346 Wynne Transportation LLC 5140.00 09/19/2019   000022834600000466610001 PDF View
49 NT752 0000228398 B&H Foto&Electronics Corp 2814.45 09/19/2019   000022839800000397490001 PDF View
50 NT752 0000228404 Iowa Rotocast Plastics Inc 2449.15 09/19/2019   000022840400000107720001 PDF View
51 NT752 0000228417 Summus Dell Products 1104.21 09/19/2019 DIR-TSO-3763 000022841700000062270001 PDF View
52 NT752 0000228440 Tough Shirts 11442.25 09/19/2019   000022844000000636550001 PDF View
53 NT752 0000228342 BSN Sports LLC 1051.60 09/19/2019   000022834200000051220001 PDF View
54 NT752 0000228367 Grapevine Golf Cars 1690.00 09/19/2019   000022836700000150220001 PDF View
55 NT752 0000228406 Ricoh USA 2530.48 09/19/2019   000022840600000612410001 PDF View
56 NT752 0000228254 Airgas USA LLC 9855.00 09/19/2019 CNR01362 000022825400000622280001 PDF View
57 NT752 0000228400 Ricoh USA 2905.48 09/19/2019   000022840000000612410001 PDF View
58 NT752 0000228353 Apple Computer Inc 2993.00 09/19/2019 DIR-TSO-3789 000022835300000067150001 PDF View
59 NT752 0000228392 NCC Nano LLC dba NovaCentrix 332.03 09/19/2019   000022839200000230090001 PDF View
60 NT752 0000227381 Pro Football Focus 500.00 09/19/2019   000022738100000174700001 PDF View
61 NT752 0000228409 Ricoh USA 1077.44 09/19/2019   000022840900000612410001 PDF View
62 NT752 0000228350 BSN Sports LLC 4224.68 09/19/2019   000022835000000051220001 PDF View
63 NT752 0000228414 Smith Leadership LLC 3600.00 09/19/2019   000022841400000680820001 PDF View
64 NT752 0000228379 Bradley,Ryan 9000.00 09/19/2019   000022837900000118680001 PDF View
65 NT752 0000228438 Kwik Kar Denton Rayzor Ranch 2000.00 09/19/2019   000022843800000194350001 PDF View
66 NT752 0000228348 BSN Sports LLC 3734.32 09/19/2019   000022834800000051220001 PDF View
67 NT752 0000228405 Xerox Corporation 11815.04 09/19/2019   000022840500000011780001 PDF View
68 NT752 0000228347 BSN Sports LLC 8429.60 09/19/2019   000022834700000051220001 PDF View
69 NT752 0000228299 Summus Dell Products 1890.00 09/18/2019 DIR-TSO-3763 000022829900000062270001 PDF View
70 NT752 0000228334 Thermo Electron North America LLC 254.70 09/18/2019   000022833400000288620001 PDF View
71 NT752 0000228333 Airgas Dry Ice 11177.00 09/18/2019   000022833300000195920001 PDF View
72 NT752 0000228374 Space Walk North Fort Worth 205.00 09/18/2019   000022837400000084140001 PDF View
73 NT752 0000228305 Fisher Scientific 19230.00 09/18/2019 4914 000022830500000015080001 PDF View
74 NT752 0000228322 Allied Welding Supply 4950.00 09/18/2019   000022832200000579500001 PDF View
75 NT752 0000228363 Bio-Rad Laboratories 2268.90 09/18/2019   000022836300000066820001 PDF View
76 NT752 0000228321 Allied Welding Supply 1700.00 09/18/2019   000022832100000579500001 PDF View
77 NT752 0000228309 Resonance Ltd 3020.00 09/18/2019   000022830900000230110001 PDF View
78 NT752 0000228288 Summus Dell Products 2350.00 09/18/2019 DIR-TSO-3763 000022828800000062270001 PDF View
79 NT752 0000228310 A Style Limousine Service 195.50 09/18/2019   000022831000000487210001 PDF View
80 NT752 0000228326 PRAXAIR 320.00 09/18/2019 CRN01362 000022832600000006610001 PDF View
81 NT752 0000228252 Sheridan Books Inc 4362.00 09/18/2019   000022825200000006850001 PDF View
82 NT752 0000228282 Mavich LLC 9994.50 09/18/2019   000022828200000746520001 PDF View
83 NT752 0000228294 Summus Dell Products 75.00 09/18/2019 DIR-TSO-3763 000022829400000062270001 PDF View
84 NT752 0000228317 Barnes&Noble College Booksellers LLC 2500.00 09/18/2019   000022831700000654410001 PDF View
85 NT752 0000228246 Third Street Inc 650.00 09/18/2019   000022824600000229910001 PDF View
86 NT752 0000228313 Service Smelters & Refiners Silver Servi 1095.00 09/18/2019   000022831300000171270001 PDF View
87 NT752 0000228292 Weldon,Williams&Lick 3068.67 09/18/2019   000022829200000036110001 PDF View
88 NT752 0000228297 Apple Computer Inc 2503.00 09/18/2019 DIR-TSO-3789 000022829700000067150001 PDF View
89 NT752 0000228219 Brandt Companies LLC 7168.00 09/18/2019 558-18 000022821900000592420001 PDF View
90 NT752 0000227998 Roadrunner Charters, Inc. 575.00 09/18/2019   000022799800000244550001 PDF View
91 NT752 0000228285 Summus Dell Products 3588.96 09/18/2019 DIR-TSO-3763 000022828500000062270001 PDF View
92 NT752 0000228315 Interstate Plastics 3200.00 09/18/2019   000022831500000229840001 PDF View
93 NT752 0000228251 Versa Press Inc 1277.48 09/18/2019   000022825100000199890001 PDF View
94 NT752 0000228295 Sigma-Aldrich Inc 126.00 09/18/2019   000022829500000025800001 PDF View
95 NT752 0000228335 DAC Inc 26577.25 09/18/2019 15-307JN-02 000022833500000618610001 PDF View
96 NT752 0000227836 Drytec Moisture Protection Technology 20000.00 09/18/2019 RFQ769-14-834ER 000022783600000303820001 PDF View
97 NT752 0000228314 Velliquette,Michael 1215.08 09/18/2019   000022831400000229630001 PDF View
98 NT752 0000228365 Fisher Scientific 2415.28 09/18/2019 UTSSCA 4914 000022836500000015080001 PDF View
99 NT752 0000228312 May Tveit Studio LLC 2150.00 09/18/2019   000022831200000229690001 PDF View
100 NT752 0000228168 PublicIdentity Inc 1439.31 09/17/2019   000022816800000070160001 PDF View
101 NT752 0000228256 Denton Depot 904.65 09/17/2019   000022825600000115620001 PDF View
102 NT752 0000228273 BSN Sports LLC 1084.12 09/17/2019   000022827300000051220001 PDF View
103 NT752 0000228013 Texas Music Educators Association 1900.00 09/17/2019   000022801300000129400001 PDF View
104 NT752 0000228037 Miller Media Holdings LLC 556.75 09/17/2019   000022803700000624210001 PDF View
105 NT752 0000228270 Group Elite Service Inc 700.00 09/17/2019   000022827000000044900001 PDF View
106 NT752 0000228095 R L Townsend & Associates Inc 20075.00 09/17/2019 769-17-891ER 000022809500000606140001 PDF View
107 NT752 0000228047 AAAS/Science 3117.00 09/17/2019   000022804700000024790001 PDF View
108 NT752 0000228262 B&H Foto&Electronics Corp 187.57 09/17/2019   000022826200000397490001 PDF View
109 NT752 0000228170 Groggy Dog Sportswear 1023.78 09/17/2019   000022817000000058790001 PDF View
110 NT752 0000228286 Fisher Scientific 117.69 09/17/2019 4914 000022828600000015080001 PDF View
111 NT752 0000228298 Fisher Scientific 8845.32 09/17/2019 4914 000022829800000015080001 PDF View
112 NT752 0000228237 USA Scientific 78.45 09/17/2019   000022823700000045640001 PDF View
113 NT752 0000228051 Direct Packet Inc dba OneVision 8099.00 09/17/2019   000022805100000282520001 PDF View
114 NT752 0000228274 Hyperice Inc 186.75 09/17/2019   000022827400000179570001 PDF View
115 NT752 0000228258 Denton Depot 1446.00 09/17/2019   000022825800000115620001 PDF View
116 NT752 0000228140 Edward Don and Company LLC 569.50 09/17/2019 519-16 000022814000000019750001 PDF View
117 NT752 0000228279 Apple Computer Inc 2668.00 09/17/2019 DIR-TSO-3789 000022827900000067150001 PDF View
118 NT752 0000228165 PublicIdentity Inc 507.41 09/17/2019   000022816500000070160001 PDF View
119 NT752 0000228278 Graphic Tickets & Systems 2319.00 09/17/2019   000022827800000623180001 PDF View
120 NT752 0000228301 Nicolle,Michelle Lisa 2430.00 09/17/2019   000022830100000205560001 PDF View
121 NT752 0000228290 Sigma-Aldrich Inc 221.38 09/17/2019   000022829000000025800001 PDF View
122 NT752 0000228243 Aramark Uniform Services Inc 29000.00 09/17/2019 RFP769-14-722-JT 000022824300000069040001 PDF View
123 NT752 0000228222 Enterprise FM Trust 80155.56 09/17/2019 190402 000022822200000701040001 PDF View
124 NT752 0000228260 Texon II Inc 170.00 09/17/2019   000022826000000055150001 PDF View
125 NT752 0000228296 Bunn-O-Matic Corporation 4950.00 09/17/2019   000022829600000189740001 PDF View
126 NT752 0000228281 Bon Appetit Mgmt Co dba Cafe Modern 11488.50 09/17/2019   000022828100000003290001 PDF View
127 NT752 0000228236 Fugro USA Land Inc 4008.00 09/17/2019   000022823600000258310001 PDF View
128 NT752 0000228048 Sand Trap Processing of Fort Worth LLC 3700.00 09/17/2019   000022804800000188070001 PDF View
129 NT752 0000227986 Bach to Braille Inc 200.00 09/17/2019   000022798600000147260001 PDF View
130 NT752 0000228261 PUSH Design Solutions Inc 639.00 09/17/2019   000022826100000230100001 PDF View
131 NT752 0000228257 Denton Depot 1115.00 09/17/2019   000022825700000115620001 PDF View
132 NT752 0000228167 PublicIdentity Inc 482.13 09/17/2019   000022816700000070160001 PDF View
133 NT752 0000228280 Grove Staffing Services 87120.00 09/17/2019   000022828000000498170001 PDF View
134 NT752 0000228244 Entech Sales & Service Inc 4810.00 09/17/2019 558-18 000022824400000021920001 PDF View
135 NT752 0000227989 Restoration Specialist LLC 3922.92 09/17/2019 #514-16 000022798900000330700001 PDF View
136 NT752 0000228293 Life Technologies Corporation 1172.10 09/17/2019   000022829300000594040001 PDF View
137 NT752 0000228287 The Gordian Group Inc 4758.32 09/17/2019 752-18-910DH 000022828700000653790001 PDF View
138 NT752 0000228248 Summus VWR Products 5000.00 09/17/2019   000022824800000102880001 PDF View
139 NT752 0000228233 Entech Sales & Service Inc 14100.00 09/17/2019 558-18 000022823300000021920001 PDF View
140 NT752 0000228149 ISI Commercial Refrigeration 21000.00 09/16/2019 519-16 000022814900000053690001 PDF View
141 NT752 0000228143 Ecolab Inc 3900.00 09/16/2019   000022814300000023900001 PDF View
142 NT752 0000228098 Summus Dell Products 2708.55 09/16/2019 DIR-TSO-3763 000022809800000062270001 PDF View
143 NT752 0000228231 BSN Sports LLC 10450.12 09/16/2019   000022823100000051220001 PDF View
144 NT752 0000228223 Summus Dell Products 170.00 09/16/2019 DIR-TSO-3763 000022822300000062270001 PDF View
145 NT752 0000228187 5 Star Rental 2012.97 09/16/2019   000022818700000589700001 PDF View
146 NT752 0000228228 Edward Don and Company LLC 600.00 09/16/2019 519-16 000022822800000019750001 PDF View
147 NT752 0000228125 Summus Dell Products 2954.00 09/16/2019 DIR-TSO-3763 000022812500000062270001 PDF View
148 NT752 0000228200 Sheridan Books Inc 3154.00 09/16/2019   000022820000000006850001 PDF View
149 NT752 0000228116 Summus Dell Products 2410.00 09/16/2019 DIR-TSO-3763 000022811600000062270001 PDF View
150 NT752 0000228214 Firstbeat USA Inc 1630.00 09/16/2019   000022821400000230060001 PDF View
151 NT752 0000228220 QIAGEN INC 144.57 09/16/2019   000022822000000069580001 PDF View
152 NT752 0000228211 B&H Foto&Electronics Corp 81.00 09/16/2019   000022821100000397490001 PDF View
153 NT752 0000228147 Smart Care Equipment Solutions 47250.00 09/16/2019 519-16 000022814700000139030001 PDF View
154 NT752 0000228121 Summus Dell Products 785.79 09/16/2019 DIR-TSO-3763 000022812100000062270001 PDF View
155 NT752 0000228206 Ricoh USA 8856.00 09/16/2019   000022820600000612410001 PDF View
156 NT752 0000228184 Nordic Naturals Inc 300.00 09/16/2019   000022818400000218230001 PDF View
157 NT752 0000228103 Summus Dell Products 875.00 09/16/2019 DIR-TSO-3763 000022810300000062270002 PDF View
158 NT752 0000228160 Light Laboratory Systems LTD 3069.50 09/16/2019   000022816000000180250001 PDF View
159 NT752 0000228227 Kwikboost LLC 2849.00 09/16/2019   000022822700000229710001 PDF View
160 NT752 0000228178 5 Star Rental 3690.00 09/16/2019   000022817800000589700001 PDF View
161 NT752 0000228205 Ricoh USA 8790.56 09/16/2019 TSO-3041 000022820500000612410001 PDF View
162 NT752 0000228213 Sigma-Aldrich Inc 85.20 09/16/2019   000022821300000025800001 PDF View
163 NT752 0000228212 B&H Foto&Electronics Corp 1280.64 09/16/2019   000022821200000397490001 PDF View
164 NT752 0000225987 California Highway Patrol - State of CA 11147.38 09/16/2019   000022598700000222030002 PDF View
165 NT752 0000228199 Fisher Scientific 71.99 09/16/2019   000022819900000015080001 PDF View
166 NT752 0000228225 Intelligent Interiors Inc 10182.69 09/16/2019 4400003403 000022822500000230430001 PDF View
167 NT752 0000228182 XOS Digital Inc 2090.00 09/16/2019   000022818200000179100001 PDF View
168 NT752 0000228174 TIBH Industries 126.67 09/16/2019   000022817400000615610001 PDF View
169 NT752 0000228123 Apple Computer Inc 378.00 09/16/2019 DIR-TSO-3789 000022812300000067150001 PDF View
170 NT752 0000228164 Fisher Scientific 1291.04 09/16/2019 4914 000022816400000015080001 PDF View
171 NT752 0000227935 R L Townsend & Associates Inc 10850.00 09/16/2019 769-17-891ER 000022793500000606140001 PDF View
172 NT752 0000228221 Titan Hope Technologies Inc 4600.00 09/16/2019   000022822100000136350001 PDF View
173 NT752 0000228163 Sigma-Aldrich Inc 1401.34 09/16/2019   000022816300000025800001 PDF View
174 NT752 0000228179 Carl Zeiss Microscopy LLC 20292.00 09/16/2019   000022817900000010880001 PDF View
175 NT752 0000228202 BSN Sports LLC 183.75 09/16/2019   000022820200000051220001 PDF View
176 NT752 0000228226 Fairway Supply Inc 4495.00 09/16/2019   000022822600000047370001 PDF View
177 NT752 0000228224 Seating Concepts Inc 44769.66 09/16/2019 171102 000022822400000229460001 PDF View
178 NT752 0000228208 The Gordian Group Inc 4464.18 09/16/2019 752-18-910DH 000022820800000653790001 PDF View
179 NT752 0000228122 Apple Computer Inc 2000.00 09/16/2019 DIR-TSO-3789 000022812200000067150001 PDF View
180 NT752 0000228105 HireRight LLC 35800.00 09/16/2019 CNR01336 000022810500000267690001 PDF View
181 NT752 0000228216 The Gordian Group Inc 9394.57 09/16/2019 752-18-910DH 000022821600000653790001 PDF View
182 NT752 0000228230 Thomas Judd Photography 1919.20 09/16/2019   000022823000000347680001 PDF View
183 NT752 0000228088 Summus Dell Products 75.00 09/16/2019 DIR-TSO-3763 000022808800000062270001 PDF View
184 NT752 0000228158 Bomas Machine Specialties Inc 680.00 09/16/2019   000022815800000144400001 PDF View
185 NT752 0000228194 Edward Don and Company LLC 19605.78 09/16/2019 BUYBOARD 519-16 000022819400000019750001 PDF View
186 NT752 0000227798 Andy B's 942.50 09/16/2019   000022779800000191720001 PDF View
187 NT752 0000228204 The Gordian Group Inc 5219.44 09/16/2019 752-18-910DH 000022820400000653790001 PDF View
188 NT752 0000228083 ThermoFisherScientic Biosciences Inc 368.00 09/13/2019 UTSSCA 4914 000022808300000685710001 PDF View
189 NT752 0000228055 Plants In Design 4998.00 09/13/2019   000022805500000457360001 PDF View
190 NT752 0000228113 G L Seaman & Company 1990.38 09/13/2019   000022811300000473790001 PDF View
191 NT752 0000228107 Oakridge Landscape&Irrigation 32400.75 09/13/2019 18-205410-MM 000022810700000108690001 PDF View
192 NT752 0000228136 HiEd Inc 6392.00 09/13/2019 CHOICE 18/056KD-28 000022813600000358640001 PDF View
193 NT752 0000228161 Getinge USA Sales LLC 5253.40 09/13/2019   000022816100000257480001 PDF View
194 NT752 0000228110 Fisher Scientific 243.57 09/13/2019 4914 000022811000000015080001 PDF View
195 NT752 0000228139 Texas Entertainment Group 995.00 09/13/2019   000022813900000688380001 PDF View
196 NT752 0000228152 Ultimate Drill Book 4250.00 09/13/2019   000022815200000180260001 PDF View
197 NT752 0000227885 Mavich Grainger Products 8000.00 09/13/2019 CNR01248 000022788500000168930001 PDF View
198 NT752 0000228128 Toyota of Denton 8400.00 09/13/2019   000022812800000165890001 PDF View
199 NT752 0000228144 Dallas Cowboys Football Club, Ltd 935784.25 09/13/2019   000022814400000071250001 PDF View
200 NT752 0000228150 Gallagher,Arthur J 154928.00 09/13/2019   000022815000000344870001 PDF View
201 NT752 0000228155 Sullivan,Kelly 150.00 09/13/2019   000022815500000184740001 PDF View
202 NT752 0000227854 Maher Publications Inc dba DownBeat 2670.00 09/13/2019   000022785400000064140001 PDF View
203 NT752 0000228148 CaterTrax Inc 3120.00 09/13/2019   000022814800000684200001 PDF View
204 NT752 0000228138 CaterTrax Inc 3120.00 09/13/2019   000022813800000684200001 PDF View
205 NT752 0000228162 Coca Cola North America 10200.00 09/13/2019   000022816200000032470001 PDF View
206 NT752 0000228119 Entech Sales & Service Inc 1120.00 09/13/2019 558-18 000022811900000021920001 PDF View
207 NT752 0000228141 Sand Trap Processing of Fort Worth LLC 2880.00 09/13/2019   000022814100000188070001 PDF View
208 NT752 0000228124 Fisher Scientific 101.50 09/13/2019 4914 000022812400000015080001 PDF View
209 NT752 0000228151 Home Depot Pro Institutional 566.40 09/13/2019   000022815100000228010001 PDF View
210 NT752 0000228115 Live Systems LLC 1734.00 09/13/2019 181101 000022811500000677900001 PDF View
211 NT752 0000228142 Dassault Systemes Americas Corp 1394.23 09/13/2019   000022814200000103150001 PDF View
212 NT752 0000227969 Terri Hinte Public Relations 3700.00 09/13/2019   000022796900000224410001 PDF View
213 NT752 0000228092 Lantana Golf Group LP 13700.00 09/13/2019   000022809200000701690001 PDF View
214 NT752 0000227892 Mavich Grainger Products 1000.00 09/13/2019   000022789200000168930001 PDF View
215 NT752 0000228077 Drum Corps International Inc 1100.00 09/13/2019   000022807700000228620001 PDF View
216 NT752 0000228049 Intelligent Interiors Inc 4289.90 09/13/2019 4400003403 000022804900000230430001 PDF View
217 NT752 0000228129 Mayfield,Tatiana 1300.00 09/13/2019   000022812900000608620001 PDF View
218 NT752 0000228040 Pest Management Inc 15000.00 09/13/2019 543-17 000022804000000011030001 PDF View
219 NT752 0000228157 Seibold,Andrea 150.00 09/13/2019   000022815700000113160001 PDF View
220 NT752 0000228064 Douglas Pads&Sports Inc 556.00 09/12/2019   000022806400000228360001 PDF View
221 NT752 0000228089 James Wood Autopark Inc 3600.00 09/12/2019   000022808900000052410001 PDF View
222 NT752 0000228102 Berger Transfer and  Storage 15060.00 09/12/2019 CNR01259 000022810200000156370001 PDF View
223 NT752 0000228072 Burger King Corporation 73824.30 09/12/2019   000022807200000738880001 PDF View
224 NT752 0000227937 Entech Sales & Service Inc 42260.00 09/12/2019 558-18 000022793700000021920001 PDF View
225 NT752 0000228024 GREENHOUSE RESTAURANT 685.00 09/12/2019   000022802400000057410001 PDF View
226 NT752 0000228084 Marine Biological Laboratory 574.00 09/12/2019   000022808400000401210001 PDF View
227 NT752 0000228086 MF Athletic Company 86.00 09/12/2019   000022808600000291540001 PDF View
228 NT752 0000228068 TB Franchising LLC dba Taco Bueno 22000.00 09/12/2019   000022806800000201250001 PDF View
229 NT752 0000228018 CAMBRIDGE ISOTOPE LABS 13045.00 09/12/2019   000022801800000005260001 PDF View
230 NT752 0000228038 Modern Art Museum of Fort Worth 200.00 09/12/2019   000022803800000229340001 PDF View
231 NT752 0000227942 Live Systems LLC 15000.00 09/12/2019 181101 000022794200000677900001 PDF View
232 NT752 0000228067 Fuzzy's Taco Shop 66990.00 09/12/2019   000022806700000512760001 PDF View
233 NT752 0000228041 Airgas USA LLC 1000.00 09/12/2019   000022804100000622280001 PDF View
234 NT752 0000228056 Pasco Scientific 9309.00 09/12/2019 BUYBOARD 573-18 000022805600000067070001 PDF View
235 NT752 0000228082 Fisher Scientific 1913.52 09/12/2019   000022808200000015080001 PDF View
236 NT752 0000228071 Which Wich Franchise Inc 36500.00 09/12/2019   000022807100000705660001 PDF View
237 NT752 0000228096 Starbucks Coffee Company 119460.00 09/12/2019   000022809600000173910001 PDF View
238 NT752 0000227877 JR Media Services 10450.00 09/12/2019   000022787700000411820001 PDF View
239 NT752 0000228042 Ruiz,John M 5500.00 09/12/2019   000022804200000373200001 PDF View
240 NT752 0000227806 US Bank National Association ND 165000.00 09/12/2019 946-M3 000022780600000609030001 PDF View
241 NT752 0000228061 Ben E Keith Company 1500.00 09/12/2019   000022806100000042770001 PDF View
242 NT752 0000228066 Tosoh SMD Inc 7750.00 09/12/2019   000022806600000217410001 PDF View
243 NT752 0000227999 FreedomPay Inc 3500.00 09/12/2019   000022799900000734640001 PDF View
244 NT752 0000227928 Entech Sales & Service Inc 35000.00 09/12/2019 558-18 000022792800000021920001 PDF View
245 NT752 0000228087 LabExpress LLC 3700.00 09/12/2019   000022808700000739960001 PDF View
246 NT752 0000228104 WD Piano Movers 2847.50 09/12/2019   000022810400000114260002 PDF View
247 NT752 0000228059 Dominator Athletics LLC 740.00 09/12/2019   000022805900000177160001 PDF View
248 NT752 0000228100 Chick-Fil-A Inc 324060.00 09/12/2019   000022810000000531370001 PDF View
249 NT752 0000228058 Roadrunner Charters, Inc. 715.00 09/12/2019   000022805800000244550001 PDF View
250 NT752 0000228085 Fisher Scientific 304.86 09/12/2019 4914 000022808500000015080001 PDF View
251 NT752 0000228091 Advanced Fresh Concepts 432628.90 09/12/2019   000022809100000527370001 PDF View
252 NT752 0000228073 Kudelski Security Inc 5739.30 09/12/2019 DIR-TSO-4240 000022807300000108810001 PDF View
253 NT752 0000228052 TB Franchising LLC dba Taco Bueno 241.44 09/12/2019   000022805200000201250001 PDF View
254 NT752 0000228081 Home Depot Pro Institutional 37000.00 09/12/2019 BUYBOARD 569-18 000022808100000228010001 PDF View
255 NT752 0000228026 Fisher Scientific 3862.44 09/12/2019 UTSSCA 4914 000022802600000015080001 PDF View
256 NT752 0000228090 Coca Cola Southwest Beverages LLC 800.00 09/12/2019   000022809000000092180001 PDF View
257 NT752 0000228020 Sigma-Aldrich Inc 552.80 09/12/2019   000022802000000025800001 PDF View
258 NT752 0000228099 Gemini Bakery Equipment Company 4265.00 09/12/2019   000022809900000229410001 PDF View
259 NT752 0000228097 Life Technologies Corporation 130.25 09/12/2019   000022809700000594040001 PDF View
260 NT752 0000228069 Jamba Juice Company 27805.90 09/12/2019   000022806900000707110001 PDF View
261 NT752 0000227960 Allied Welding Supply 376.00 09/11/2019   000022796000000579500001 PDF View
262 NT752 0000227968 SKC Communications Products LLC 94177.08 09/11/2019 171001 000022796800000343590001 PDF View
263 NT752 0000227987 Kwik Kar Denton Rayzor Ranch 1200.00 09/11/2019   000022798700000194350001 PDF View
264 NT752 0000227993 Schneider Electric dba SEBA 2722.00 09/11/2019   000022799300000474020001 PDF View
265 NT752 0000227949 Yesung co 720.00 09/11/2019   000022794900000228060001 PDF View
266 NT752 0000227995 Sigma-Aldrich Inc 713.90 09/11/2019   000022799500000025800001 PDF View
267 NT752 0000227990 Ricoh USA 3485.24 09/11/2019 TSO-3041 000022799000000612410001 PDF View
268 NT752 0000228031 Fisher Scientific 233.82 09/11/2019 UTSSCA 4914 000022803100000015080001 PDF View
269 NT752 0000228009 Setcas LLC 3500.00 09/11/2019   000022800900000229470001 PDF View
270 NT752 0000227939 Intelligent Interiors Inc 91.12 09/11/2019   000022793900000230430001 PDF View
271 NT752 0000228010 Sports Imports Inc 700.00 09/11/2019   000022801000000166880001 PDF View
272 NT752 0000228032 Recreonics Inc 7020.26 09/11/2019   000022803200000229490001 PDF View
273 NT752 0000228017 US Water Services Inc 212.76 09/11/2019   000022801700000745480001 PDF View
274 NT752 0000228016 Edward Don and Company LLC 4534.95 09/11/2019 519-16 000022801600000019750001 PDF View
275 NT752 0000227984 Ricoh USA 2829.00 09/11/2019   000022798400000612410002 PDF View
276 NT752 0000228022 Aerowave Technologies 7755.00 09/11/2019   000022802200000059150001 PDF View
277 NT752 0000228027 Edward Don and Company LLC 6941.68 09/11/2019 BUYBOARD 519-16 000022802700000019750001 PDF View
278 NT752 0000227901 Johnstone Supply 1428.44 09/11/2019   000022790100000182800001 PDF View
279 NT752 0000228044 Thorlabs Inc 3614.26 09/11/2019   000022804400000223990001 PDF View
280 NT752 0000228029 Thomas Scientific LLC 450.42 09/11/2019   000022802900000658680001 PDF View
281 NT752 0000227965 WRG LLC dba Workplace Resource Group 4966.80 09/11/2019 4400003403 000022796500000007720001 PDF View
282 NT752 0000227997 4Throws.com 561.70 09/11/2019   000022799700000119230001 PDF View
283 NT752 0000228006 Fisher Scientific 47.12 09/11/2019 UTSSCA 4914 000022800600000015080001 PDF View
284 NT752 0000227893 Wilson Project Management LLC 10169.98 09/11/2019 R142201 000022789300000420130001 PDF View
285 NT752 0000227979 Chick-Fil-A Inc 2300.00 09/11/2019   000022797900000531370001 PDF View
286 NT752 0000228000 BSN Sports LLC 161.15 09/11/2019   000022800000000051220001 PDF View
287 NT752 0000228050 Fisher Scientific 15000.00 09/11/2019 UTSSCA 4914 000022805000000015080001 PDF View
288 NT752 0000227955 Sigma-Aldrich Inc 206.00 09/11/2019   000022795500000025800001 PDF View
289 NT752 0000227996 Wynne Transportation LLC 2754.90 09/11/2019   000022799600000466610001 PDF View
290 NT752 0000227929 Ricoh USA 8969.72 09/10/2019 TSO-3041 000022792900000612410001 PDF View
291 NT752 0000227894 Phoenix Office Technology Services LLC 14993.33 09/10/2019   000022789400000209160001 PDF View
292 NT752 0000227976 M&M Label Printing System 1114.61 09/10/2019   000022797600000617240001 PDF View
293 NT752 0000227943 Ricoh USA 2469.72 09/10/2019 TSO-3041 000022794300000612410001 PDF View
294 NT752 0000227980 Barnes&Noble College Booksellers LLC 13528.00 09/10/2019   000022798000000654410002 PDF View
295 NT752 0000227967 Ben E Keith Company 800.00 09/10/2019 PRIME VENDOR 000022796700000042770001 PDF View
296 NT752 0000227865 Cardinal Health 30000.00 09/10/2019 MMS15001 000022786500000231470001 PDF View
297 NT752 0000227940 Buffalo Valley Event Center 2252.61 09/10/2019   000022794000000110880001 PDF View
298 NT752 0000227864 McKesson Medical Surgical Inc 7500.00 09/10/2019 MMS18000 000022786400000024300001 PDF View
299 NT752 0000227982 Airgas USA LLC 1000.00 09/10/2019   000022798200000622280001 PDF View
300 NT752 0000227963 VS Athletics 160.49 09/10/2019   000022796300000485490001 PDF View
301 NT752 0000227856 Cardinal Health 20000.00 09/10/2019 MMS15001 000022785600000231470001 PDF View
302 NT752 0000227941 Ricoh USA 8869.72 09/10/2019 TSO-3041 000022794100000612410001 PDF View
303 NT752 0000227384 Legends Hospitality LLC 14563.00 09/10/2019   000022738400000048840001 PDF View
304 NT752 0000227932 Ricoh USA 2469.72 09/10/2019 TSO-3041 000022793200000612410001 PDF View
305 NT752 0000227863 Henry Schein Inc 5000.00 09/10/2019 MMS18016 000022786300000007480001 PDF View
306 NT752 0000227954 Summus Dell Products 1379.00 09/10/2019 DIR-TSO-3763 000022795400000062270001 PDF View
307 NT752 0000227962 Texas Woman's University 5000.00 09/10/2019   000022796200000140200001 PDF View
308 NT752 0000227882 Non-Typical Properties LLC 151958.27 09/10/2019   000022788200000128540001 PDF View
309 NT752 0000227936 Zeno Digital Solutions dba Zeno Imaging 2512.50 09/10/2019   000022793600000736490001 PDF View
310 NT752 0000227966 Norquist Medical PLLC 350.00 09/10/2019   000022796600000177740001 PDF View
311 NT752 0000227918 C&G Electric 588.00 09/10/2019   000022791800000050240001 PDF View
312 NT752 0000227871 Silent Events Inc 2044.00 09/10/2019   000022787100000690840002 PDF View
313 NT752 0000227823 TENNANT SALES & SERVICE CO 10000.00 09/10/2019   000022782300000024840001 PDF View
314 NT752 0000227886 Ricoh USA 500.00 09/10/2019 TSO-3041 000022788600000612410001 PDF View
315 NT752 0000227889 Lone Star Furnishings LLC 11956.72 09/10/2019 584-19 000022788900000627710001 PDF View
316 NT752 0000227897 Airrosti Rehab Centers 25000.00 09/10/2019   000022789700000588300001 PDF View
317 NT752 0000227861 ANDA INC 30000.00 09/10/2019 DP10015 000022786100000035620003 PDF View
318 NT752 0000227926 Denton Prayer Breakfast 400.00 09/10/2019   000022792600000193770001 PDF View
319 NT752 0000227938 Entech Sales & Service Inc 65000.00 09/10/2019   000022793800000021920001 PDF View
320 NT752 0000227971 C&R Services 10535.46 09/10/2019   000022797100000228100001 PDF View
321 NT752 0000227896 Texas Health Ben Hogan Sports Medicine 300.00 09/10/2019   000022789600000573980001 PDF View
322 NT752 0000227859 Henry Schein Inc 10000.00 09/10/2019 #MMS18016 000022785900000007480001 PDF View
323 NT752 0000227547 North Texas Laundromat 2874.78 09/09/2019   000022754700000427610001 PDF View
324 NT752 0000227790 Hardy,Judy 240.00 09/09/2019   000022779000000694930001 PDF View
325 NT752 0000227868 Rockwell,Dionne 400.00 09/09/2019   000022786800000229150001 PDF View
326 NT752 0000227900 Yankee Cowboy Publishing 250.00 09/09/2019   000022790000000229200001 PDF View
327 NT752 0000227541 Sand Trap Processing of Fort Worth LLC 2400.00 09/09/2019   000022754100000188070001 PDF View
328 NT752 0000227815 Clouse,Bobby R 4500.00 09/09/2019   000022781500000118460001 PDF View
329 NT752 0000227787 Summus Dell Products 1244.50 09/09/2019 DIR-TSO-3763 000022778700000062270001 PDF View
330 NT752 0000227362 Hall G3 LLC 1118541.16 09/09/2019   000022736200000740760001 PDF View
331 NT752 0000227542 Sand Trap Processing of Fort Worth LLC 2600.00 09/09/2019   000022754200000188070001 PDF View
332 NT752 0000227789 Summus VWR Products 2595.94 09/09/2019 E&I CNR01163 000022778900000102880001 PDF View
333 NT752 0000227857 McKesson Medical Surgical Inc 8454.97 09/09/2019 MMS18016 000022785700000024300001 PDF View
334 NT752 0000227794 Charter Communications 9329.82 09/09/2019   000022779400000057720001 PDF View
335 NT752 0000227905 Playnetwork Inc 338.00 09/09/2019   000022790500000023770001 PDF View
336 NT752 0000227852 Live Systems LLC 17500.00 09/09/2019   000022785200000677900001 PDF View
337 NT752 0000227821 BKM Total Office of Texas LLC 3416.07 09/09/2019   000022782100000006630001 PDF View
338 NT752 0000226652 FEI Company 95555.52 09/09/2019   000022665200000185120002 PDF View
339 NT752 0000227858 Henry Schein Inc 5000.00 09/09/2019 #MMS18016 000022785800000007480001 PDF View
340 NT752 0000227797 Apple Computer Inc 6146.00 09/09/2019 DIR-TSO-3789 000022779700000067150001 PDF View
341 NT752 0000227758 ACT Event Services Inc 200430.72 09/09/2019 RFP769-17-199019-JC 000022775800000476880001 PDF View
342 NT752 0000227552 Genuent Global LLC 140000.00 09/09/2019 #TS06-17 000022755200000731120001 PDF View
343 NT752 0000227668 Dish Network 2880.00 09/09/2019   000022766800000158830001 PDF View
344 NT752 0000227814 Landers,Catherine Elizabeth 500.00 09/09/2019   000022781400000178980001 PDF View
345 NT752 0000227805 Kimball Physics Inc 3024.00 09/09/2019   000022780500000330850001 PDF View
346 NT752 0000227820 MITCHELL ENVIRONMENTS, INC 8460.00 09/09/2019   000022782000000048990001 PDF View
347 NT752 0000227818 Raised Right Men 500.00 09/09/2019   000022781800000071490001 PDF View
348 NT752 0000227699 ThyssenKrupp Elevator Corp 217468.76 09/09/2019 R150801 000022769900000034670001 PDF View
349 NT752 0000226654 FEI Company 22488.84 09/09/2019   000022665400000185120004 PDF View
350 NT752 0000227848 Coca Cola Southwest Beverages LLC 45000.00 09/09/2019 PRIME 000022784800000092180001 PDF View
351 NT752 0000227791 GlobaFone Inc 1800.00 09/09/2019   000022779100000005070001 PDF View
352 NT752 0000227838 Exela Enterprise Solutions Inc 350148.00 09/09/2019   000022783800000709860002 PDF View
353 NT752 0000227910 Smyth,Joshua M 11000.00 09/09/2019   000022791000000089810001 PDF View
354 NT752 0000227535 Aramark Uniform Services Inc 3000.00 09/09/2019   000022753500000069040001 PDF View
355 NT752 0000227891 AJL International 750.00 09/09/2019   000022789100000089070001 PDF View
356 NT752 0000227539 Aramark Uniform Services Inc 2500.00 09/09/2019   000022753900000069040001 PDF View
357 NT752 0000227822 Mavich Grainger Products 10000.00 09/09/2019 CNR01248 000022782200000168930001 PDF View
358 NT752 0000227870 Denton Trophy House LLC 96.00 09/09/2019   000022787000000085850001 PDF View
359 NT752 0000227862 NCS Pearson Inc 7644.00 09/09/2019   000022786200000153990002 PDF View
360 NT752 0000227540 Sand Trap Processing of Fort Worth LLC 1890.00 09/09/2019   000022754000000188070001 PDF View
361 NT752 0000227700 ThyssenKrupp Elevator Corp 100990.90 09/09/2019 R150801 000022770000000034670001 PDF View
362 NT752 0000227874 Extreme Cuisine Catering 2010.00 09/09/2019   000022787400000114590001 PDF View
363 NT752 0000227887 EUROPEAN AMERICAN MUSIC DISTRIBUTORS 975.00 09/09/2019   000022788700000010810001 PDF View
364 NT752 0000227811 Symonds Flags&Poles Inc 4000.00 09/09/2019   000022781100000170850001 PDF View
365 NT752 0000227860 ANDA INC 25000.00 09/09/2019 INTARLERE #DP10015 000022786000000035620001 PDF View
366 NT752 0000227536 Texas State Historical Association 300.00 09/06/2019   000022753600000209840001 PDF View
367 NT752 0000227846 Oracle America Inc 17287.02 09/06/2019 RFP752-14-160440PB 000022784600000497680001 PDF View
368 NT752 0000227853 Denton Fire Department 750.00 09/06/2019   000022785300000060210001 PDF View
369 NT752 0000227799 308 Construction LLC 5600.00 09/06/2019 170201 000022779900000006270001 PDF View
370 NT752 0000227855 ACT Event Services Inc 1000.00 09/06/2019   000022785500000476880001 PDF View
371 NT752 0000227847 Ricoh USA 3291.32 09/06/2019 TSO-3041 000022784700000612410001 PDF View
372 NT752 0000227537 Displays Fine Art Services 4937.50 09/06/2019   000022753700000676180001 PDF View
373 NT752 0000227842 Matthiesen,Ryan 18000.00 09/06/2019   000022784200000031220001 PDF View
374 NT752 0000227779 Park Systems Inc 3600.00 09/06/2019   000022777900000199970001 PDF View
375 NT752 0000227436 Xu,Yunwei 2000.00 09/06/2019   000022743600000191210001 PDF View
376 NT752 0000227839 Suez Treatment Solutions Inc 9560.00 09/06/2019   000022783900000039480001 PDF View
377 NT752 0000227581 Genuent Global LLC 37440.00 09/06/2019 #TS06-17 000022758100000731120001 PDF View
378 NT752 0000227528 Sand Trap Processing of Fort Worth LLC 4200.00 09/06/2019   000022752800000188070001 PDF View
379 NT752 0000227765 Live Systems LLC 2500.00 09/06/2019   000022776500000677900001 PDF View
380 NT752 0000227804 MKS Instruments Inc 1733.75 09/06/2019   000022780400000004480001 PDF View
381 NT752 0000227841 Shaffer,Michael David 44004.00 09/06/2019   000022784100000030860001 PDF View
382 NT752 0000227742 BSN Sports LLC 10404.98 09/06/2019 PRIME 000022774200000051220001 PDF View
383 NT752 0000227850 Cleverbridge Inc 750.00 09/06/2019   000022785000000134940001 PDF View
384 NT752 0000227599 Aire-Master of Denton County 1924.00 09/06/2019   000022759900000114690001 PDF View
385 NT752 0000227816 UNT Alumni Association 175000.08 09/06/2019   000022781600000051760001 PDF View
386 NT752 0000227808 BSN Sports LLC 7875.00 09/06/2019   000022780800000051220001 PDF View
387 NT752 0000227524 Sand Trap Processing of Fort Worth LLC 4200.00 09/06/2019   000022752400000188070001 PDF View
388 NT752 0000227824 Cavender Stores Ltd 1500.00 09/06/2019   000022782400000228850001 PDF View
389 NT752 0000227785 Mavich LLC 10000.00 09/06/2019 CNR01248 000022778500000746520001 PDF View
390 NT752 0000227759 BSN Sports LLC 15018.86 09/06/2019 PRIME 000022775900000051220001 PDF View
391 NT752 0000227467 Unified Fine Arts Services LLC 3600.00 09/06/2019   000022746700000344130002 PDF View
392 NT752 0000227769 Videotex Systems Inc 1860.00 09/06/2019   000022776900000049280001 PDF View
393 NT752 0000227617 Theag North Dallas LLC/Fastsigns 312.08 09/05/2019   000022761700000142460001 PDF View
394 NT752 0000227775 Diehard Scarves 1950.00 09/05/2019   000022777500000228700001 PDF View
395 NT752 0000227828 LLamasoft Inc 7800.00 09/05/2019   000022782800000736360002 PDF View
396 NT752 0000227761 BSN Sports LLC 2929.50 09/05/2019   000022776100000051220001 PDF View
397 NT752 0000227800 CWI Technical Sales 27828.00 09/05/2019   000022780000000227690001 PDF View
398 NT752 0000227156 Entech Sales & Service Inc 158568.00 09/05/2019 558-18 000022715600000021920001 PDF View
399 NT752 0000227801 Pfeiffer Vacuum Inc 46678.80 09/05/2019   000022780100000003870001 PDF View
400 NT752 0000227771 Fish N Chirps Pet Center 3000.00 09/05/2019   000022777100000058060001 PDF View
401 NT752 0000227698 JT Vaughn Construction LLC 588247.00 09/05/2019 15/041JN-16 000022769800000512290001 PDF View
402 NT752 0000227788 Sigma-Aldrich Inc 211.47 09/05/2019   000022778800000025800001 PDF View
403 NT752 0000227819 Economic Modeling LLC 15000.00 09/05/2019   000022781900000191840002 PDF View
404 NT752 0000227737 Ben E Keith Company 5000.00 09/04/2019 PRIME VENDOR 000022773700000042770001 PDF View
405 NT752 0000227680 Entech Sales & Service Inc 1500.00 09/04/2019 574-18 000022768000000021920001 PDF View
406 NT752 0000227743 Ben E Keith Company 1500.00 09/04/2019 PRIME 000022774300000042770001 PDF View
407 NT752 0000227741 Sand Trap Processing of Fort Worth LLC 2436.00 09/04/2019   000022774100000188070001 PDF View
408 NT752 0000227626 Denton Trophy House LLC 1610.00 09/04/2019   000022762600000085850001 PDF View
409 NT752 0000226316 AC Printing LLC 163377.00 09/04/2019 RFP752-231873-JR 000022631600000040340002 PDF View
410 NT752 0000227716 Godfather Transporation Inc 10800.00 09/04/2019   000022771600000200960003 PDF View
411 NT752 0000227739 Ecolab Inc 1229.28 09/04/2019 769-14-0528JT 000022773900000023900001 PDF View
412 NT752 0000227734 Taylor Made Golf Company Inc 320.00 09/04/2019   000022773400000296140001 PDF View
413 NT752 0000227625 AMAZON COM INC 100.00 09/04/2019   000022762500000066040001 PDF View
414 NT752 0000227718 Ben E Keith Company 10234.95 09/04/2019 PRIME VENDOR 000022771800000042770001 PDF View
415 NT752 0000227724 EN-R-G Foods LLC 800.00 09/04/2019   000022772400000113240001 PDF View
416 NT752 0000227706 Xerox Corporation 3670.76 09/04/2019 3043 000022770600000011780001 PDF View
417 NT752 0000227689 United Laboratories 10000.00 09/04/2019 180406 000022768900000586540001 PDF View
418 NT752 0000227773 TM Graphics 2006.00 09/04/2019   000022777300000228310001 PDF View
419 NT752 0000227703 Xerox Corporation 473.29 09/04/2019 3043 000022770300000011780001 PDF View
420 NT752 0000227750 Coca Cola Southwest Beverages LLC 12000.00 09/04/2019 PRIME 000022775000000092180001 PDF View
421 NT752 0000227683 MITCHELL ENVIRONMENTS, INC 2844.00 09/04/2019   000022768300000048990001 PDF View
422 NT752 0000227726 CAROLINA BIOLOGICAL SPLY 451.85 09/04/2019   000022772600000031630001 PDF View
423 NT752 0000227681 Door Systems of Texas LLC 1000.00 09/04/2019   000022768100000128980001 PDF View
424 NT752 0000227728 Babolat 740.50 09/04/2019   000022772800000228430001 PDF View
425 NT752 0000227707 MDC Vacuum Products LLC 1524.60 09/04/2019   000022770700000012070001 PDF View
426 NT752 0000227745 DMG Mori USA Inc 6524.00 09/04/2019   000022774500000142400001 PDF View
427 NT752 0000227732 Coca Cola Southwest Beverages LLC 5000.00 09/04/2019 PRIME VENDOR 000022773200000092180001 PDF View
428 NT752 0000227725 Klean Athlete 1000.00 09/04/2019   000022772500000199140001 PDF View
429 NT752 0000227684 Entech Sales & Service Inc 5000.00 09/04/2019   000022768400000021920001 PDF View
430 NT752 0000227712 Sand Trap Processing of Fort Worth LLC 2004.00 09/04/2019   000022771200000188070001 PDF View
431 NT752 0000227720 Coca Cola Southwest Beverages LLC 2000.00 09/04/2019 PRIME VENDOR 000022772000000092180001 PDF View
432 NT752 0000227749 Coca Cola Southwest Beverages LLC 20000.00 09/04/2019 PRIME 000022774900000092180001 PDF View
433 NT752 0000227709 Biorad Laboratories Inc 2802.40 09/04/2019   000022770900000678030001 PDF View
434 NT752 0000227694 Barnes&Noble College Booksellers LLC 42989.25 09/04/2019   000022769400000654410001 PDF View
435 NT752 0000227744 Ricoh USA 184.84 09/04/2019 TSO-3041 000022774400000612410001 PDF View
436 NT752 0000227691 ThyssenKrupp Elevator Corp 24259.32 09/04/2019 R150801 000022769100000034670001 PDF View
437 NT752 0000227696 Crailley Enterprises LLC 8392.50 09/04/2019 170201 000022769600000099720001 PDF View
438 NT752 0000227731 Coca Cola Southwest Beverages LLC 800.00 09/04/2019   000022773100000092180001 PDF View
439 NT752 0000227751 RedAway LLC 9048.00 09/04/2019   000022775100000175060001 PDF View
440 NT752 0000227686 AM Plumbing 3000.00 09/04/2019   000022768600000430800001 PDF View
441 NT752 0000227733 Commerce Bank 4500.00 09/04/2019   000022773300000169840001 PDF View
442 NT752 0000227687 CDW Government Inc 2000.00 09/04/2019   000022768700000021380001 PDF View
443 NT752 0000227766 Sargent Professional Services LLC 10500.00 09/04/2019   000022776600000177810001 PDF View
444 NT752 0000227671 Entech Sales & Service Inc 1739.00 09/04/2019 558-18 000022767100000021920001 PDF View
445 NT752 0000227762 A3 Performance 2668.63 09/04/2019   000022776200000226590001 PDF View
446 NT752 0000227723 GAINESVILLE ISD 3000.00 09/04/2019   000022772300000060610001 PDF View
447 NT752 0000227729 Coca Cola Southwest Beverages LLC 800.00 09/04/2019   000022772900000092180001 PDF View
448 NT752 0000227688 ThyssenKrupp Elevator Corp 2496.00 09/04/2019 R150801 000022768800000034670001 PDF View
449 NT752 0000227730 Edward Don and Company LLC 10000.00 09/04/2019 BUYBOARD 519-16 000022773000000019750001 PDF View
450 NT752 0000227682 C&G Electric 5000.00 09/04/2019 558-18 000022768200000050240001 PDF View
451 NT752 0000227738 Coca Cola Southwest Beverages LLC 1500.00 09/04/2019 PRIME 000022773800000092180001 PDF View
452 NT752 0000227206 Docusign Inc 2608.00 09/04/2019   000022720600000005280001 PDF View
453 NT752 0000227746 Ricoh USA 6935.57 09/04/2019 TSO-3041 000022774600000612410001 PDF View
454 NT752 0000227708 Texas Valve & Fitting Company 1297.94 09/04/2019   000022770800000178040001 PDF View
455 NT752 0000227756 Voertman's Campus Bookstore 138150.00 09/04/2019 RFP752-19-230898-JR 000022775600000026260001 PDF View
456 NT752 0000227705 Canon Financial Services 24185.50 09/04/2019 3101 000022770500000636540001 PDF View
457 NT752 0000227670 TreMonti Consulting LLC 40000.00 09/04/2019   000022767000000464580001 PDF View
458 NT752 0000227740 Denton Depot 106.75 09/04/2019   000022774000000115620001 PDF View
459 NT752 0000227697 Color Dynamics 375400.00 09/03/2019 RFP752-19-032819-JD 000022769700000146260001 PDF View
460 NT752 0000227644 Summus Dell Products 18826.00 09/03/2019 DIR-TSO-3763 000022764400000062270002 PDF View
461 NT752 0000227664 Olmsted-Kirk Paper Company 3000.00 09/03/2019   000022766400000042830001 PDF View
462 NT752 0000227662 ThyssenKrupp Elevator Corp 5000.00 09/03/2019   000022766200000034670001 PDF View
463 NT752 0000227675 Pollock Paper Distributors 7000.00 09/03/2019 RFP769-14-13114-JT 000022767500000043760001 PDF View
464 NT752 0000227652 All Occasion Performers 1500.00 09/03/2019   000022765200000190720001 PDF View
465 NT752 0000227678 Summus Dell Products 3675.00 09/03/2019 DIR-TSO-3763 000022767800000062270001 PDF View
466 NT752 0000227647 Classic Landscapes&Maintenance Inc 36140.00 09/03/2019 752-18-205410-MM 000022764700000145250001 PDF View
467 NT752 0000227641 Wheat,Marcus 500.00 09/03/2019   000022764100000657710001 PDF View
468 NT752 0000227672 City Electric Supply Company 2000.00 09/03/2019   000022767200000109250001 PDF View
469 NT752 0000227679 Airgas USA LLC 375.00 09/03/2019   000022767900000622280001 PDF View
470 NT752 0000227661 Kelsoe Oil Company 500.00 09/03/2019   000022766100000044120001 PDF View
471 NT752 0000227667 Karcher North America 2000.00 09/03/2019   000022766700000030720001 PDF View
472 NT752 0000227657 SAFETY KLEEN CORP 1000.00 09/03/2019   000022765700000023880001 PDF View
473 NT752 0000227646 UniFirst Holdings Inc 15000.00 09/03/2019 062415-UFC 000022764600000220790001 PDF View
474 NT752 0000227658 Ben E Keith Company 800.00 09/03/2019 PRIME VENDOR 000022765800000042770001 PDF View
475 NT752 0000225380 Strategic Technology Partners of Texas 746.90 09/03/2019 180103 000022538000000167510001 PDF View
476 NT752 0000227673 JV Manufacturing Inc dba Cram-A-Lot 1000.00 09/03/2019   000022767300000010660001 PDF View
477 NT752 0000227640 SHI Government Solutions Inc 378.00 09/03/2019 DIR-TSO-3838 000022764000000013900001 PDF View
478 NT752 0000227655 BSN Sports LLC 3782.00 09/03/2019   000022765500000051220001 PDF View
479 NT752 0000227656 Ben E Keith Company 650.00 09/03/2019 PRIME VENDOR 000022765600000042770001 PDF View
480 NT752 0000224295 Strategic Technology Partners of Texas 720.54 09/03/2019   000022429500000167510001 PDF View
481 NT752 0000226664 Physical Electronics USA Inc 30382.00 09/03/2019 UNOTX0218 000022666400000177560001 PDF View
482 NT752 0000227649 Easton Diamond Sports LLC 13000.00 09/03/2019 PRIME VENDOR 000022764900000173350002 PDF View
483 NT752 0000227653 Ben E Keith Company 800.00 09/03/2019 PRIME VENDOR 000022765300000042770001 PDF View
484 NT752 0000226630 Bulletin Media LLC 7500.00 09/02/2019   000022663000000221950001 PDF View
485 NT752 0000227344 Great Hills Corporate Center 22132.36 09/01/2019   000022734400000096570001 PDF View
486 NT752 0000227493 MITCHELL ENVIRONMENTS, INC 1920.00 09/01/2019   000022749300000048990001 PDF View
487 NT752 0000226579 Event Mechanics Co 18656.25 09/01/2019   000022657900000224530001 PDF View
488 NT752 0000227288 BSN Sports LLC 16804.99 09/01/2019   000022728800000051220001 PDF View
489 NT752 0000227387 Sorey,Tyshawn 11000.00 09/01/2019   000022738700000227030001 PDF View
490 NT752 0000227250 MF Athletic Company 74.00 09/01/2019   000022725000000291540001 PDF View
491 NT752 0000227313 Recovery Pump LLC dba RP Sports 5000.00 09/01/2019   000022731300000711610002 PDF View
492 NT752 0000227370 Egan Street Design 1200.00 09/01/2019   000022737000000168040001 PDF View
493 NT752 0000227337 Campus Partners 15672.00 09/01/2019   000022733700000186840001 PDF View
494 NT752 0000227271 Jackson Marriott 36000.00 09/01/2019   000022727100000201280001 PDF View
495 NT752 0000227275 NPWC Hotel LLC 40000.00 09/01/2019   000022727500000207090001 PDF View
496 NT752 0000227092 BSN Sports LLC 24642.25 09/01/2019   000022709200000051220001 PDF View
497 NT752 0000227273 Academy Bus LLC 9200.00 09/01/2019   000022727300000674310001 PDF View
498 NT752 0000227425 BKM Total Office of Texas LLC 995.30 09/01/2019   000022742500000006630001 PDF View
499 NT752 0000226133 Dish Network 1000.00 09/01/2019   000022613300000158830001 PDF View
500 NT752 0000226780 Edward Don and Company LLC 31002.12 09/01/2019 519-16 000022678000000019750001 PDF View
501 NT752 0000227077 Ferrellgas 500.00 09/01/2019   000022707700000186610001 PDF View
502 NT752 0000226871 Ricoh USA 2149.36 09/01/2019 TSO-3041 000022687100000612410001 PDF View
503 NT752 0000227222 Mackey,John 397.00 09/01/2019   000022722200000232160002 PDF View
504 NT752 0000226892 BSN Sports LLC 6481.00 09/01/2019   000022689200000051220001 PDF View
505 NT752 0000227426 ISI Commercial Refrigeration 7350.00 09/01/2019 519-16 000022742600000053690001 PDF View
506 NT752 0000227463 Wynne Transportation LLC 3801.00 09/01/2019   000022746300000466610001 PDF View
507 NT752 0000226994 BSN Sports LLC 983.91 09/01/2019   000022699400000051220001 PDF View
508 NT752 0000227238 Marketing Communication Resource Inc 80000.00 09/01/2019 RFP752-19-072018-JD 000022723800000360100001 PDF View
509 NT752 0000226838 BearCom Wireless Worldwide 6330.46 09/01/2019 TSO-3934 000022683800000055610001 PDF View
510 NT752 0000226596 Blackboard Inc 5000.00 09/01/2019   000022659600000029240001 PDF View
511 NT752 0000226657 Ricoh USA 10975.31 09/01/2019 TSO-3041 000022665700000612410002 PDF View
512 NT752 0000227321 Agile Sports Technology dba  Hudl 4268.79 09/01/2019   000022732100000175100002 PDF View
513 NT752 0000226081 Aramark Uniform Services Inc 2000.00 09/01/2019 RFP769-14-722JT 000022608100000069040001 PDF View
514 NT752 0000226141 Texas Orthopaedic Products&Services LLC 3000.00 09/01/2019   000022614100000090650001 PDF View
515 NT752 0000225850 Dove Creek Animal Hospital 1000.00 09/01/2019   000022585000000050410001 PDF View
516 NT752 0000225864 Prestige Wash&Detail 500.00 09/01/2019   000022586400000722980001 PDF View
517 NT752 0000225923 BSN Sports LLC 2289.80 09/01/2019   000022592300000051220001 PDF View
518 NT752 0000226851 Keller Communications Inc 4800.00 09/01/2019   000022685100000629720001 PDF View
519 NT752 0000227068 Visstun 948.70 09/01/2019   000022706800000226200002 PDF View
520 NT752 0000226576 Clinical Pathology Labs 24000.00 09/01/2019   000022657600000038630001 PDF View
521 NT752 0000227444 Ben E Keith Company 60900.00 09/01/2019 PRIME VENDOR 000022744400000042770001 PDF View
522 NT752 0000227636 FM Systems 15600.00 09/01/2019   000022763600000261010001 PDF View
523 NT752 0000227577 Fisher Scientific 125.48 09/01/2019 UTSSCA 4914 000022757700000015080001 PDF View
524 NT752 0000227121 D&S Engineering Labs Inc 4998.00 09/01/2019   000022712100000751950001 PDF View
525 NT752 0000227363 308 Construction LLC 5000.00 09/01/2019 170201 000022736300000006270001 PDF View
526 NT752 0000227396 Joslin,Franklin Alfred 1800.00 09/01/2019   000022739600000227450001 PDF View
527 NT752 0000227476 Hewlett-Packard Financial Services Co 160000.00 09/01/2019   000022747600000063550001 PDF View
528 NT752 0000226132 Sacred Cross EMS Inc 1.00 09/01/2019   000022613200000029620001 PDF View
529 NT752 0000225847 North Texas Polygraph Services LLC 500.00 09/01/2019   000022584700000074970001 PDF View
530 NT752 0000225849 Econo Cleaners 2000.00 09/01/2019   000022584900000282740001 PDF View
531 NT752 0000226887 United Rentals North America Inc 8500.00 09/01/2019 683408 000022688700000574110001 PDF View
532 NT752 0000226863 Ricoh USA 3209.24 09/01/2019 TSO-3041 000022686300000612410001 PDF View
533 NT752 0000226390 Lawrence,Jacklyn 400.00 09/01/2019   000022639000000223930001 PDF View
534 NT752 0000227080 Coca Cola North America 18000.00 09/01/2019   000022708000000032470001 PDF View
535 NT752 0000227603 Marucci Sports LLC 672.00 09/01/2019   000022760300000228080001 PDF View
536 NT752 0000227314 ProtoCall Services Inc 25275.00 09/01/2019   000022731400000149180001 PDF View
537 NT752 0000227438 Certiport 15288.00 09/01/2019   000022743800000734610001 PDF View
538 NT752 0000227115 BSN Sports LLC 10824.28 09/01/2019   000022711500000051220001 PDF View
539 NT752 0000227503 Summus Dell Products 2745.00 09/01/2019 DIR-TSO-3763 000022750300000062270001 PDF View
540 NT752 0000227597 Ensolum LLC 3665.60 09/01/2019   000022759700000142380001 PDF View
541 NT752 0000226835 Preferred Imaging of Denton 2500.00 09/01/2019   000022683500000605430001 PDF View
542 NT752 0000227422 ISI Commercial Refrigeration 5250.00 09/01/2019 519-16 000022742200000053690001 PDF View
543 NT752 0000226308 Tri-State Building Services Inc 1000.00 09/01/2019   000022630800000186870006 PDF View
544 NT752 0000227088 Ecolab Inc 3500.00 09/01/2019   000022708800000023900001 PDF View
545 NT752 0000227517 Entech Sales & Service Inc 34000.00 09/01/2019 558-18 000022751700000021920001 PDF View
546 NT752 0000226743 GermBlast 3198.06 09/01/2019   000022674300000196680001 PDF View
547 NT752 0000227483 DN Team Connections LLC 4000.00 09/01/2019   000022748300000227790001 PDF View
548 NT752 0000226541 Lavin Agency 20000.00 09/01/2019   000022654100000421930002 PDF View
549 NT752 0000226310 Beckman Coulter Inc 6293.00 09/01/2019   000022631000000068290001 PDF View
550 NT752 0000227259 SKC Communications Products LLC 56180.02 09/01/2019 CNR01317 000022725900000343590001 PDF View
551 NT752 0000227325 Barnes&Noble College Booksellers LLC 50000.00 09/01/2019   000022732500000654410001 PDF View
552 NT752 0000227489 5 Star Rental 17376.00 09/01/2019 IFB752-19-216403-JR 000022748900000589700001 PDF View
553 NT752 0000227559 Edward Don and Company LLC 22737.65 09/01/2019 BUYBOARD 519-16 000022755900000019750001 PDF View
554 NT752 0000227578 Summus VWR Products 548.63 09/01/2019 E&I CNR01163 000022757800000102880001 PDF View
555 NT752 0000227434 Smart Care Equipment Solutions 47250.00 09/01/2019 519-16 000022743400000139030001 PDF View
556 NT752 0000227583 ThyssenKrupp Elevator Corp 60100.76 09/01/2019   000022758300000034670001 PDF View
557 NT752 0000227372 CKS Mechanical Contractors Inc 3000.00 09/01/2019   000022737200000622020001 PDF View
558 NT752 0000225860 Defender Supply 2000.00 09/01/2019   000022586000000558340001 PDF View
559 NT752 0000225572 Cintas Corporation 74646.00 09/01/2019 R-BB-19002 000022557200000032220001 PDF View
560 NT752 0000227567 308 Construction LLC 310.00 09/01/2019   000022756700000006270001 PDF View
561 NT752 0000227164 JR Media Services 114160.50 09/01/2019   000022716400000411820001 PDF View
562 NT752 0000227394 Four Colour Imports Ltd 14115.00 09/01/2019   000022739400000199220001 PDF View
563 NT752 0000227429 ISI Commercial Refrigeration 9500.00 09/01/2019 519-16 000022742900000053690001 PDF View
564 NT752 0000225852 Parks Coffee 1000.00 09/01/2019   000022585200000050100001 PDF View
565 NT752 0000225858 Embassy Suites by Hilton Denton Conv Ctr 500.00 09/01/2019   000022585800000125440001 PDF View
566 NT752 0000225855 GGA Enterprises LLC dba Velo Republic 2000.00 09/01/2019   000022585500000139710001 PDF View
567 NT752 0000225863 Tarrant County College District 500.00 09/01/2019   000022586300000140750001 PDF View
568 NT752 0000225857 Pepper Psychological Services PLLC 1000.00 09/01/2019   000022585700000140390001 PDF View
569 NT752 0000225839 Stolz Telecom Inc 3000.00 09/01/2019 551-17 000022583900000726640001 PDF View
570 NT752 0000225846 Galls LLC 4000.00 09/01/2019   000022584600000133700001 PDF View
571 NT752 0000226864 Ricoh USA 2804.12 09/01/2019 TSO-3041 000022686400000612410001 PDF View
572 NT752 0000227094 BSN Sports LLC 258.53 09/01/2019   000022709400000051220001 PDF View
573 NT752 0000227292 BSN Sports LLC 17513.23 09/01/2019   000022729200000051220001 PDF View
574 NT752 0000227565 Live Systems LLC 23525.00 09/01/2019 181101 000022756500000677900001 PDF View
575 NT752 0000227618 LARSON-JUHL 501.00 09/01/2019   000022761800000023410002 PDF View
576 NT752 0000226530 BSN Sports LLC 9475.58 09/01/2019   000022653000000051220001 PDF View
577 NT752 0000226883 SmartPLS GmbH 225.00 09/01/2019   000022688300000733850001 PDF View
578 NT752 0000227333 Texas Department of State Health Svcs 10000.00 09/01/2019   000022733300000202040001 PDF View
579 NT752 0000227287 BSN Sports LLC 5336.04 09/01/2019   000022728700000051220001 PDF View
580 NT752 0000227511 Metro Golf Cars Inc 16938.20 09/01/2019 EV2024-02 000022751100000044740001 PDF View
581 NT752 0000227572 EesySoft Software International BV 12499.00 09/01/2019   000022757200000732910001 PDF View
582 NT752 0000226718 Beaver Graphix LLC 2621.35 09/01/2019   000022671800000166280001 PDF View
583 NT752 0000227198 BSN Sports LLC 504.69 09/01/2019   000022719800000051220001 PDF View
584 NT752 0000227532 Wesco Chemicals Inc 8500.00 09/01/2019 526-17 000022753200000174140001 PDF View
585 NT752 0000227334 The Gordian Group Inc 4239.36 09/01/2019   000022733400000653790001 PDF View
586 NT752 0000226306 McKesson Medical Surgical Inc 3000.00 09/01/2019 DH66900 000022630600000024300001 PDF View
587 NT752 0000227534 PELLERIN LAUNDRY MACHINERY SALES 2000.00 09/01/2019   000022753400000036610001 PDF View
588 NT752 0000227554 Breast Cancer Can Stick It! 500.00 09/01/2019   000022755400000171180001 PDF View
589 NT752 0000227359 Clampitt Paper Company 70000.00 09/01/2019 RFP-769-13114-JT 000022735900000043330001 PDF View
590 NT752 0000227253 Your Pest Control Company 70000.00 09/01/2019 RFP769-14-0528-JT 000022725300000442040001 PDF View
591 NT752 0000227611 Clouse,Bobby R 4500.00 09/01/2019   000022761100000118460001 PDF View
592 NT752 0000227231 Hilton Palacio Del Rio 11500.00 09/01/2019   000022723100000041190001 PDF View
593 NT752 0000226327 Oxford Diagnostic Laboratory 25000.00 09/01/2019   000022632700000508930001 PDF View
594 NT752 0000227352 AT&T 2100.00 09/01/2019   000022735200000265970001 PDF View
595 NT752 0000227393 RR Donnelley Logistics Intl Services 14000.00 09/01/2019   000022739300000658470001 PDF View
596 NT752 0000227486 Entech Sales & Service Inc 2420.00 09/01/2019 558-18 000022748600000021920001 PDF View
597 NT752 0000227246 Ricoh USA 2012.72 09/01/2019 TSO-3041 000022724600000612410001 PDF View
598 NT752 0000227257 5 Star Rental 45000.00 09/01/2019 IFB752-19-216403-JR 000022725700000589700001 PDF View
599 NT752 0000227466 Theag North Dallas LLC/Fastsigns 1530.00 09/01/2019   000022746600000142460001 PDF View
600 NT752 0000227432 Ben E Keith Company 22000.00 09/01/2019 PRIME 000022743200000042770001 PDF View
601 NT752 0000227447 Ben E Keith Company 15750.00 09/01/2019 PRIME VENDOR 000022744700000042770001 PDF View
602 NT752 0000227427 Smart Care Equipment Solutions 5250.00 09/01/2019 519-16 000022742700000139030001 PDF View
603 NT752 0000227428 Ecolab Inc 3900.00 09/01/2019   000022742800000023900001 PDF View
604 NT752 0000227106 Entech Sales & Service Inc 5428.46 09/01/2019 558-18 000022710600000021920001 PDF View
605 NT752 0000227420 Advanced Mechanical Technology Inc 16777.50 09/01/2019   000022742000000227280001 PDF View
606 NT752 0000227254 Your Pest Control Company 56000.00 09/01/2019 RFP769-14-0528-JT 000022725400000442040001 PDF View
607 NT752 0000226812 Ruffalo Noel Levitz LLC 203594.00 09/01/2019   000022681200000373570001 PDF View
608 NT752 0000226857 Ricoh USA 6357.56 09/01/2019 TSO-3041 000022685700000612410001 PDF View
609 NT752 0000226328 Hologic Inc 25000.00 09/01/2019   000022632800000685250002 PDF View
610 NT752 0000227613 D&J Sports Inc 384.00 09/01/2019   000022761300000053910001 PDF View
611 NT752 0000227508 A to T Lamps 5000.00 09/01/2019   000022750800000247840001 PDF View
612 NT752 0000225667 SpringHill Suites by Marriott 3050.00 09/01/2019   000022566700000012690001 PDF View
613 NT752 0000227419 Intelligent Interiors Inc 2124.90 09/01/2019   000022741900000230430001 PDF View
614 NT752 0000226313 Retail Solutions Ltd 500.00 09/01/2019   000022631300000097320001 PDF View
615 NT752 0000227309 Alert Services Inc 47000.00 09/01/2019   000022730900000038570001 PDF View
616 NT752 0000226537 BSN Sports LLC 545.70 09/01/2019   000022653700000051220001 PDF View
617 NT752 0000226416 Cline Tours Inc 2500.00 09/01/2019   000022641600000472790001 PDF View
618 NT752 0000227408 Golfstat Inc 165.00 09/01/2019   000022740800000084890001 PDF View
619 NT752 0000226564 Shred-It USA LLC 1714.10 09/01/2019   000022656400000717750001 PDF View
620 NT752 0000226841 United Rentals North America Inc 16980.00 09/01/2019 683408 000022684100000574110001 PDF View
621 NT752 0000227635 Stitches 4 Fitness 6000.00 09/01/2019   000022763500000176640001 PDF View
622 NT752 0000227284 Hilton-Charlotte 35000.00 09/01/2019   000022728400000286930001 PDF View
623 NT752 0000227450 PRAXAIR 250.00 09/01/2019   000022745000000006610001 PDF View
624 NT752 0000227557 Gold Crown Valet Service 1500.00 09/01/2019   000022755700000383470001 PDF View
625 NT752 0000226130 Tecan US Inc 1800.00 09/01/2019   000022613000000071740002 PDF View
626 NT752 0000226087 Language Line Services Inc 500.00 09/01/2019   000022608700000712930001 PDF View
627 NT752 0000225848 West Publishing Corp dba Thomson Reuters 1459.56 09/01/2019   000022584800000184690001 PDF View
628 NT752 0000225853 City of Denton 2000.00 09/01/2019   000022585300000060180001 PDF View
629 NT752 0000225862 Altus Traffic Management LLC 500.00 09/01/2019   000022586200000659010001 PDF View
630 NT752 0000227113 BSN Sports LLC 1470.00 09/01/2019   000022711300000051220001 PDF View
631 NT752 0000227272 Cline Tours Inc 9960.00 09/01/2019   000022727200000472790001 PDF View
632 NT752 0000226358 TheraCom 15000.00 09/01/2019   000022635800000607000001 PDF View
633 NT752 0000227380 BSN Sports LLC 704.00 09/01/2019   000022738000000051220001 PDF View
634 NT752 0000227277 Hyatt Regency Houston Galleria 29000.00 09/01/2019   000022727700000017850001 PDF View
635 NT752 0000227464 BSN Sports LLC 279.67 09/01/2019   000022746400000051220001 PDF View
636 NT752 0000226389 Swank Motion Pictures Inc 6821.00 09/01/2019   000022638900000025500001 PDF View
637 NT752 0000227490 Nelnet Business Solutions Inc 6000.00 09/01/2019   000022749000000315680001 PDF View
638 NT752 0000227610 Fisher Scientific 1066.34 09/01/2019 4914 000022761000000015080001 PDF View
639 NT752 0000227630 Ben E Keith Company 15000.00 09/01/2019 PRIME 000022763000000042770001 PDF View
640 NT752 0000227173 Ben E Keith Company 175000.00 09/01/2019   000022717300000042770001 PDF View
641 NT752 0000227174 Sherwin Williams Co 4000.00 09/01/2019   000022717400000018250001 PDF View
642 NT752 0000227477 Ricoh USA 4231.16 09/01/2019 TSO-3041 000022747700000612410001 PDF View
643 NT752 0000227471 Ben E Keith Company 6000.00 09/01/2019 PRIME VENDOR 000022747100000042770001 PDF View
644 NT752 0000226086 Fisher Interpreting LLC 1000.00 09/01/2019   000022608600000748490001 PDF View
645 NT752 0000225841 Kwik Kar Denton Rayzor Ranch 2000.00 09/01/2019   000022584100000194350001 PDF View
646 NT752 0000226375 IWave Information Systems Inc 4145.00 09/01/2019   000022637500000323090001 PDF View
647 NT752 0000227111 Denton 109 Properties LLC 5141.13 09/01/2019   000022711100000078920001 PDF View
648 NT752 0000227424 ISI Commercial Refrigeration 5250.00 09/01/2019 519-16 000022742400000053690001 PDF View
649 NT752 0000227127 Caldwell&Gregory LLC 159936.00 09/01/2019 RFP752-17-199648-JT 000022712700000127350001 PDF View
650 NT752 0000226801 Customers Bank 15000.00 09/01/2019   000022680100000048650001 PDF View
651 NT752 0000227622 ARCHIVE SUPPLIES INC 3001.00 09/01/2019   000022762200000051530002 PDF View
652 NT752 0000227263 ACT Event Services Inc 150000.00 09/01/2019 RFP769-17-199019-JC 000022726300000476880001 PDF View
653 NT752 0000227593 UniFirst Holdings Inc 700.00 09/01/2019 062415-UFC 000022759300000220790001 PDF View
654 NT752 0000227214 BSN Sports LLC 16249.80 09/01/2019   000022721400000051220001 PDF View
655 NT752 0000227497 Ricoh USA 5782.00 09/01/2019 TSO-3041 000022749700000612410001 PDF View
656 NT752 0000226777 Illumination Fireworks Partners LP 37742.52 09/01/2019 RFP752-19-232096-JR 000022677700000529790001 PDF View
657 NT752 0000227400 Western BRW Paper Co Inc 380000.00 09/01/2019 RFP-769-13114-JT 000022740000000037310001 PDF View
658 NT752 0000227260 PRAXAIR 1500.00 09/01/2019   000022726000000006610001 PDF View
659 NT752 0000227300 Genuent Global LLC 55411.20 09/01/2019 TS06-17 000022730000000731120001 PDF View
660 NT752 0000226136 Kalos Incorporated 1000.00 09/01/2019   000022613600000071750001 PDF View
661 NT752 0000226613 Cineplex Digital Media US Inc 1555.32 09/01/2019   000022661300000219450001 PDF View
662 NT752 0000227551 Ryan Padilla dba Little King 500.00 09/01/2019   000022755100000224700001 PDF View
663 NT752 0000227195 Spectrum Reach 25000.00 09/01/2019   000022719500000092410001 PDF View
664 NT752 0000227382 Pitney Bowes Global Financial Services 895000.00 09/01/2019   000022738200000316270001 PDF View
665 NT752 0000227392 Redmond,Ross 2800.00 09/01/2019   000022739200000589000001 PDF View
666 NT752 0000227600 BSN Sports LLC 797.84 09/01/2019   000022760000000051220001 PDF View
667 NT752 0000227628 REDDY ICE 5000.00 09/01/2019   000022762800000051280001 PDF View
668 NT752 0000227125 Stanley Convergent Security Solutions 4860.00 09/01/2019   000022712500000411130001 PDF View
669 NT752 0000227605 DAC Inc 2066.04 09/01/2019 15-307JN-02 000022760500000618610001 PDF View
670 NT752 0000227397 Firespring Inc 5000.00 09/01/2019   000022739700000556800001 PDF View
671 NT752 0000227573 Four Winds Interactive 4762.45 09/01/2019   000022757300000462020002 PDF View
672 NT752 0000227249 ESD Waste2Water Inc 2300.00 09/01/2019   000022724900000034160001 PDF View
673 NT752 0000227327 Swank Motion Pictures Inc 9399.50 09/01/2019   000022732700000025500001 PDF View
674 NT752 0000226662 Ricoh USA 646.40 09/01/2019 TSO-3041 000022666200000612410001 PDF View
675 NT752 0000227037 Armstrong Forensic Laboratory Inc 5000.00 09/01/2019   000022703700000226190001 PDF View
676 NT752 0000227202 A3 Performance 471.18 09/01/2019   000022720200000226590004 PDF View
677 NT752 0000226254 2x2 Media LLC 275.00 09/01/2019   000022625400000162570001 PDF View
678 NT752 0000226970 Mister Sweeper LP 4800.00 09/01/2019   000022697000000193270001 PDF View
679 NT752 0000227177 The Gustbuster Ltd 834.00 09/01/2019   000022717700000226540001 PDF View
680 NT752 0000227212 AlphaGraphics of Denton 2650.38 09/01/2019   000022721200000605400001 PDF View
681 NT752 0000227411 TM Television 1585.69 09/01/2019 573-18 000022741100000345780001 PDF View
682 NT752 0000227423 Ben E Keith Company 5250.00 09/01/2019 PRIME VENDOR 000022742300000042770001 PDF View
683 NT752 0000226311 Ricoh USA 6907.08 09/01/2019 TSO-3041 000022631100000612410001 PDF View
684 NT752 0000227270 BSN Sports LLC 262.50 09/01/2019   000022727000000051220001 PDF View
685 NT752 0000227319 Texas Excavation Safety System Inc 2000.00 09/01/2019   000022731900000180360001 PDF View
686 NT752 0000227067 Ben E Keith Company 1200.00 09/01/2019 PRIME VENDOR 000022706700000042770001 PDF View
687 NT752 0000227070 Coca Cola Southwest Beverages LLC 2800.00 09/01/2019   000022707000000092180001 PDF View
688 NT752 0000227458 M&M Label Printing System 4813.40 09/01/2019   000022745800000617240001 PDF View
689 NT752 0000226580 BSN Sports LLC 11015.25 09/01/2019   000022658000000051220001 PDF View
690 NT752 0000226502 BSN Sports LLC 800.48 09/01/2019   000022650200000051220001 PDF View
691 NT752 0000227281 Hilton Shreveport 40000.00 09/01/2019   000022728100000639660001 PDF View
692 NT752 0000227516 Wolfram Research Inc 28874.28 09/01/2019   000022751600000021980001 PDF View
693 NT752 0000226317 National Pharmaceutical Returns Inc 2000.00 09/01/2019   000022631700000211050001 PDF View
694 NT752 0000227435 Smart Care Equipment Solutions 52500.00 09/01/2019 519-16 000022743500000139030001 PDF View
695 NT752 0000225845 DIRECTV 2000.00 09/01/2019   000022584500000069710001 PDF View
696 NT752 0000225844 Crescent Hills Water 350.00 09/01/2019   000022584400000517930001 PDF View
697 NT752 0000227439 ISI Commercial Refrigeration 17850.00 09/01/2019 519-16 000022743900000053690001 PDF View
698 NT752 0000227638 Fairway Supply Inc 7308.00 09/01/2019 577-18 000022763800000047370001 PDF View
699 NT752 0000226398 Thakkar,Alpa 470.00 09/01/2019   000022639800000182640001 PDF View
700 NT752 0000226830 Professional Development Institute Inc 80000.00 09/01/2019   000022683000000048570001 PDF View
701 NT752 0000227302 CHICAGO DISTRIBUTION CENTER 3500.00 09/01/2019   000022730200000019960001 PDF View
702 NT752 0000226574 Kalos Incorporated 3150.00 09/01/2019   000022657400000071750001 PDF View
703 NT752 0000226891 Space Walk North Fort Worth 10020.00 09/01/2019   000022689100000084140001 PDF View
704 NT752 0000227225 Parking Systems of America LP 47000.00 09/01/2019 RFP752 19 070218 JD 000022722500000171140001 PDF View
705 NT752 0000227308 DJO LLC 15000.00 09/01/2019 FC2090 000022730800000455860001 PDF View
706 NT752 0000227445 ISI Commercial Refrigeration 23000.00 09/01/2019 519-16 000022744500000053690001 PDF View
707 NT752 0000227443 Ben E Keith Company 14700.00 09/01/2019 PRIME VENDOR 000022744300000042770001 PDF View
708 NT752 0000227437 Smart Care Equipment Solutions 31500.00 09/01/2019 519-16 000022743700000139030001 PDF View
709 NT752 0000226029 Greater Talent Network LLC 40000.00 09/01/2019   000022602900000009920001 PDF View
710 NT752 0000226885 Groggy Dog Sportswear 500.00 09/01/2019   000022688500000058790001 PDF View
711 NT752 0000227285 New Options Sports 1500.00 09/01/2019   000022728500000054130001 PDF View
712 NT752 0000226607 Blackbaud 43853.04 09/01/2019   000022660700000007320003 PDF View
713 NT752 0000227258 North Central Texas College 2499.00 09/01/2019   000022725800000140650001 PDF View
714 NT752 0000227430 Airgas USA LLC 471.20 09/01/2019   000022743000000622280001 PDF View
715 NT752 0000227473 Ricoh USA 4148.98 09/01/2019 TSO-3041 000022747300000612410001 PDF View
716 NT752 0000227514 Americas Computer Company 11136.00 09/01/2019   000022751400000082100002 PDF View
717 NT752 0000227339 JR Media Services 14922.60 09/01/2019   000022733900000411820001 PDF View
718 NT752 0000227368 Brave Combo 1500.00 09/01/2019   000022736800000016920001 PDF View
719 NT752 0000227375 ThyssenKrupp Elevator Corp 5875.00 09/01/2019 PREMIER PP-FA-750 000022737500000034670001 PDF View
720 NT752 0000227460 Echo Transportation 2550.00 09/01/2019   000022746000000626290001 PDF View
721 NT752 0000227336 Foot Management Inc 3000.00 09/01/2019   000022733600000170140001 PDF View
722 NT752 0000226753 Ricoh USA 1791.40 09/01/2019 TSO-3041 000022675300000612410001 PDF View
723 NT752 0000227374 Busch,Emily 2020.00 09/01/2019   000022737400000227020001 PDF View
724 NT752 0000227505 Total Filtration Services Inc 5000.00 09/01/2019   000022750500000444050001 PDF View
725 NT752 0000226779 Baxter 30000.00 09/01/2019 BUYBOARD 569-18 000022677900000177240001 PDF View
726 NT752 0000227376 Community Pharmacy 15000.00 09/01/2019   000022737600000059820001 PDF View
727 NT752 0000226910 Conference USA 149350.00 09/01/2019   000022691000000651510001 PDF View
728 NT752 0000227297 Genuent Global LLC 55411.20 09/01/2019 TS06-17 000022729700000731120001 PDF View
729 NT752 0000226856 Ricoh USA 5627.72 09/01/2019 TSO-3041 000022685600000612410001 PDF View
730 NT752 0000226688 Smith Leadership LLC 3600.00 09/01/2019   000022668800000680820001 PDF View
731 NT752 0000227310 Henry Schein Inc 12000.00 09/01/2019 CNR01262 000022731000000007480002 PDF View
732 NT752 0000226412 Wynne Transportation LLC 3983.40 09/01/2019   000022641200000466610001 PDF View
733 NT752 0000226823 Entech Sales & Service Inc 43662.00 09/01/2019 558-18 000022682300000021920001 PDF View
734 NT752 0000226318 American Proficiency Institute 4338.00 09/01/2019   000022631800000472240001 PDF View
735 NT752 0000226546 BSN Sports LLC 24518.99 09/01/2019   000022654600000051220001 PDF View
736 NT752 0000227555 DFW Knockerball LLC 475.00 09/01/2019   000022755500000227010001 PDF View
737 NT752 0000225842 Ben E Keith Company 1000.00 09/01/2019   000022584200000042770001 PDF View
738 NT752 0000225840 Contemporary Services Corporation 500.00 09/01/2019   000022584000000190180001 PDF View
739 NT752 0000225838 American Tire Distributors Inc 1600.00 09/01/2019   000022583800000669090001 PDF View
740 NT752 0000225856 Advanced Auto Repair 2000.00 09/01/2019   000022585600000558860001 PDF View
741 NT752 0000225861 Service First 600.00 09/01/2019   000022586100000289010001 PDF View
742 NT752 0000225952 Tamis Corporation 4337.50 09/01/2019   000022595200000170830001 PDF View
743 NT752 0000227364 Viola,John 2500.00 09/01/2019   000022736400000173230001 PDF View
744 NT752 0000227386 Wynne Transportation LLC 48000.00 09/01/2019 IFB752-19-215096-JR 000022738600000466610001 PDF View
745 NT752 0000227498 Greater Talent Network LLC 55000.00 09/01/2019   000022749800000009920001 PDF View
746 NT752 0000227538 PRAXAIR 5000.00 09/01/2019 CRN01362 000022753800000006610001 PDF View
747 NT752 0000226482 AJL International 2160.00 09/01/2019   000022648200000089070001 PDF View
748 NT752 0000226861 Ricoh USA 7017.68 09/01/2019   000022686100000612410001 PDF View
749 NT752 0000226747 Ricoh USA 376.14 09/01/2019 TSO-3041 000022674700000612410003 PDF View
750 NT752 0000227343 Ben E Keith Company 4200.00 09/01/2019   000022734300000042770001 PDF View
751 NT752 0000227441 Ben E Keith Company 40000.00 09/01/2019 PRIME VENDOR 000022744100000042770001 PDF View
752 NT752 0000227495 Ricoh USA 4192.00 09/01/2019 TSO-3041 000022749500000612410001 PDF View
753 NT752 0000227193 BSN Sports LLC 1747.49 09/01/2019   000022719300000051220001 PDF View
754 NT752 0000227608 Tri C Club Supply Inc 339.99 09/01/2019   000022760800000112470001 PDF View
755 NT752 0000227612 BSN Sports LLC 1545.65 09/01/2019   000022761200000051220001 PDF View
756 NT752 0000227615 BSN Sports LLC 25551.96 09/01/2019 PRIME 000022761500000051220001 PDF View
757 NT752 0000227549 Sauder Manufacturing Company 13794.23 09/01/2019 584-19 000022754900000018720001 PDF View
758 NT752 0000227348 COWAN RESEARCH LC 3880.00 09/01/2019   000022734800000023810001 PDF View
759 NT752 0000226315 Orchard Software Corp 8000.00 09/01/2019   000022631500000489140001 PDF View
760 NT752 0000226382 Silent Events Inc 2044.00 09/01/2019   000022638200000690840001 PDF View
761 NT752 0000227204 Executive Refreshments Inc 3000.00 09/01/2019   000022720400000193850003 PDF View
762 NT752 0000227383 Sunbelt Pools 23500.00 09/01/2019 533-17 000022738300000319350001 PDF View
763 NT752 0000227388 Some Kind of Thing Inc 30000.00 09/01/2019   000022738800000227000001 PDF View
764 NT752 0000227623 Mavich LLC 7502.00 09/01/2019 E&I CNR01248 000022762300000746520001 PDF View
765 NT752 0000227607 Tag Up 208.00 09/01/2019   000022760700000024720001 PDF View
766 NT752 0000227073 REDDY ICE 3000.00 09/01/2019   000022707300000051280001 PDF View
767 NT752 0000227494 Ricoh USA 3852.00 09/01/2019 TSO-3041 000022749400000612410001 PDF View
768 NT752 0000227624 TENNANT SALES & SERVICE CO 1000.00 09/01/2019   000022762400000024840001 PDF View
769 NT752 0000226586 Grammarly Inc 450.00 09/01/2019   000022658600000102240001 PDF View
770 NT752 0000227502 PRAXAIR 9000.00 09/01/2019 CRN01362 000022750200000006610001 PDF View
771 NT752 0000227570 Heritage-Crystal Clean LLC 2500.00 09/01/2019   000022757000000144450001 PDF View
772 NT752 0000226362 Ben E Keith Company 2000.00 09/01/2019   000022636200000042770001 PDF View
773 NT752 0000227119 Ferguson Enterprises 35000.00 09/01/2019 BUYBOARD 577-18 000022711900000219910001 PDF View
774 NT752 0000227449 Ben E Keith Company 39000.00 09/01/2019 PRIME VENDOR 000022744900000042770001 PDF View
775 NT752 0000226698 Boosey&Hawkes Inc 832.00 09/01/2019   000022669800000007040001 PDF View
776 NT752 0000226924 Denton Fire Department 25000.00 09/01/2019   000022692400000060210001 PDF View
777 NT752 0000227293 BSN Sports LLC 3937.50 09/01/2019   000022729300000051220001 PDF View
778 NT752 0000227301 Sheridan Books Inc 3537.00 09/01/2019   000022730100000006850001 PDF View
779 NT752 0000227440 Smart Care Equipment Solutions 31500.00 09/01/2019 519-16 000022744000000139030001 PDF View
780 NT752 0000227442 ISI Commercial Refrigeration 21000.00 09/01/2019 519-16 000022744200000053690001 PDF View
781 NT752 0000227465 Shirt Locker 1508.90 09/01/2019   000022746500000168420001 PDF View
782 NT752 0000227564 Your Pest Control Company 5663.00 09/01/2019 769-14-0528-JT 000022756400000442040001 PDF View
783 NT752 0000227588 Service First 23000.00 09/01/2019   000022758800000289010001 PDF View
784 NT752 0000227208 BSN Sports LLC 5593.00 09/01/2019   000022720800000051220001 PDF View
785 NT752 0000227548 Intelligent Interiors Inc 1241.43 09/01/2019   000022754800000230430001 PDF View
786 NT752 0000227585 Charter Communications 6884.04 09/01/2019   000022758500000057720001 PDF View
787 NT752 0000227595 Canon Solutions America Inc 2500.00 09/01/2019   000022759500000636530001 PDF View
788 NT752 0000227016 Legacy Carriers LLC 34950.00 09/01/2019   000022701600000694610001 PDF View
789 NT752 0000226404 The Murder Mystery Company LLC 1299.00 09/01/2019   000022640400000113770001 PDF View
790 NT752 0000226727 Bag Tags Inc 3910.11 09/01/2019   000022672700000522840001 PDF View
791 NT752 0000226361 ASD Healthcare 10000.00 09/01/2019   000022636100000216070001 PDF View
792 NT752 0000227369 C & P Pump Services, Inc. 3000.00 09/01/2019   000022736900000222790001 PDF View
793 NT752 0000227373 Your Pest Control Company 1600.00 09/01/2019   000022737300000442040001 PDF View
794 NT752 0000227399 Konica Minolta Business Solutions USA 25249.92 09/01/2019 1673 000022739900000214670001 PDF View
795 NT752 0000227469 Konica Minolta Business Solutions USA 10342.00 09/01/2019 3812 000022746900000214670001 PDF View
796 NT752 0000227194 BSN Sports LLC 4240.53 09/01/2019   000022719400000051220001 PDF View
797 NT752 0000227389 Charter Communications 262375.80 09/01/2019   000022738900000057720001 PDF View
798 NT752 0000226755 Karas Enterprises dba Karasch&Associates 60000.00 09/01/2019 RFP752-19-010219-JD 000022675500000216670001 PDF View
799 NT752 0000227117 Pollock Paper Distributors 80000.00 09/01/2019 BUYBOARD 569-18 000022711700000043760001 PDF View
800 NT752 0000226408 Garrick,Troy 1000.00 09/01/2019   000022640800000223900001 PDF View
801 NT752 0000226919 Bill Utter Ford 5000.00 09/01/2019   000022691900000043680001 PDF View
802 NT752 0000226971 Cumulus Media Inc 19500.00 09/01/2019   000022697100000117480001 PDF View
803 NT752 0000227083 Dry Clean Super Center 3588.00 09/01/2019   000022708300000207870001 PDF View
804 NT752 0000227627 Mavich LLC 5002.00 09/01/2019 E&I CNR01248 000022762700000746520001 PDF View
805 NT752 0000227620 Coca Cola Southwest Beverages LLC 1001.00 09/01/2019   000022762000000092180002 PDF View
806 NT752 0000227619 Triangle Biosystems Inc 6428.00 09/01/2019   000022761900000212400001 PDF View
807 NT752 0000227446 Smart Care Equipment Solutions 15750.00 09/01/2019 519-16 000022744600000139030001 PDF View
808 NT752 0000227590 Entech Sales & Service Inc 11000.00 08/30/2019   000022759000000021920001 PDF View
809 NT752 0000227616 Interstate Restoration Group 10000.00 08/30/2019   000022761600000330650001 PDF View
810 NT752 0000227584 Fairway Supply Inc 29013.00 08/30/2019 577-18 000022758400000047370001 PDF View
811 NT752 0000227587 Boster Biological Technology CO Ltd 100.00 08/29/2019   000022758700000200120001 PDF View
812 NT752 0000227523 ProChimia Surfaces 3100.00 08/29/2019   000022752300000226400001 PDF View
813 NT752 0000227558 Okolab SRC 918.00 08/29/2019   000022755800000227800001 PDF View
814 NT752 0000226124 Pageant Media US Ltd 435.22 08/28/2019   000022612400000222730001 PDF View
815 NT752 0000227507 International Society for Tech in Edu 4640.00 08/28/2019   000022750700000207330001 PDF View
816 NT752 0000226843 Turner Construction Company 1212898.74 08/28/2019 RFCSP752-19-226541DH 000022684300000034590001 PDF View
817 NT752 0000227529 Avanti Polar Lipids 1260.75 08/28/2019   000022752900000222870001 PDF View
818 NT752 0000227527 Cell Biologics Inc 850.00 08/28/2019   000022752700000186250001 PDF View
819 NT752 0000227474 Fisher Scientific 381.20 08/27/2019 4614 000022747400000015080001 PDF View
820 NT752 0000227468 PRAXAIR 212.90 08/27/2019 CRN01362 000022746800000006610001 PDF View
821 NT752 0000227509 Joining Innovations LLC 2950.00 08/27/2019   000022750900000013050001 PDF View
822 NT752 0000227481 Thermo Electron North America LLC 997.26 08/27/2019   000022748100000288620001 PDF View
823 NT752 0000227367 Newport Corporation 3940.00 08/27/2019   000022736700000066730001 PDF View
824 NT752 0000226999 Andy B's 318.68 08/26/2019   000022699900000191720001 PDF View
825 NT752 0000227079 Edward Don and Company LLC 16918.48 08/26/2019 519-16 000022707900000019750001 PDF View
826 NT752 0000227421 Eppendorf North America Inc 3895.00 08/26/2019   000022742100000011750001 PDF View
827 NT752 0000227328 SHI Government Solutions Inc 6240.00 08/23/2019 DIR-TSO-3838 000022732800000013900001 PDF View
828 NT752 0000227329 SHI Government Solutions Inc 3704.00 08/23/2019 DIR-TSO-3838 000022732900000013900001 PDF View
829 NT752 0000227219 Intercon Environmental Inc 20000.00 08/22/2019   000022721900000168310001 PDF View
830 NT752 0000227170 PublicIdentity Inc 1474.16 08/22/2019   000022717000000070160001 PDF View
831 NT752 0000227148 G L Seaman & Company 2093.70 08/22/2019   000022714800000473790001 PDF View
832 NT752 0000227267 Summus Dell Products 38784.80 08/22/2019 DIR-TSO-3763 000022726700000062270004 PDF View
833 NT752 0000227264 Dallas Marriott Solana 198000.00 08/22/2019   000022726400000642450001 PDF View
834 NT752 0000227312 Fisher Scientific 9995.00 08/22/2019 UTSSCA4914 000022731200000015080001 PDF View
835 NT752 0000226717 Centennial Contractors Enterprises Inc 127450.92 08/22/2019 18-910DH 000022671700000156120001 PDF View
836 NT752 0000227169 SHI Government Solutions Inc 3648.00 08/21/2019   000022716900000013900001 PDF View
837 NT752 0000227180 Summus Dell Products 15040.00 08/21/2019 DIR-TSO-3763 000022718000000062270001 PDF View
838 NT752 0000227197 Dutch Shine Window Cleaning 1596.69 08/21/2019   000022719700000226430001 PDF View
839 NT752 0000227286 Fisher Scientific 4228.53 08/21/2019 UTSSCA4914 000022728600000015080001 PDF View
840 NT752 0000227240 Artografx Inc 3427.50 08/20/2019   000022724000000280220001 PDF View
841 NT752 0000227142 Summus Dell Products 1732.00 08/20/2019 DIR-TSO-3763 000022714200000062270001 PDF View
842 NT752 0000227184 SHI Government Solutions Inc 2120.00 08/20/2019   000022718400000013900002 PDF View
843 NT752 0000227213 Contemporary Services Corporation 125000.00 08/20/2019 RFP769-17-198497-JC 000022721300000190180001 PDF View
844 NT752 0000227209 Launch Agency LP 19500.00 08/20/2019   000022720900000226450001 PDF View
845 NT752 0000227182 Oakwood Products, Inc. 356.50 08/19/2019   000022718200000234340001 PDF View
846 NT752 0000227165 Apple Computer Inc 7830.00 08/19/2019 DIR-TSO-3789 000022716500000067150001 PDF View
847 NT752 0000227028 Summus Dell Products 2310.00 08/19/2019 DIR-TSO-3763 000022702800000062270001 PDF View
848 NT752 0000225877 FreedomPay Inc 9380.00 08/19/2019   000022587700000734640001 PDF View
849 NT752 0000227131 Fisher Scientific 223.17 08/19/2019 UTSSCA 4914 000022713100000015080001 PDF View
850 NT752 0000227178 AMAZON COM INC 2000.00 08/19/2019   000022717800000066040001 PDF View
851 NT752 0000227084 Business Interiors 37578.58 08/19/2019 R142205 000022708400000051410001 PDF View
852 NT752 0000227044 Truman Arnold Companies 19204.90 08/19/2019 14-0121 000022704400000524460001 PDF View
853 NT752 0000227145 Sheridan Books Inc 4450.00 08/19/2019   000022714500000006850001 PDF View
854 NT752 0000227179 Thorlabs Inc 575.26 08/19/2019   000022717900000223990001 PDF View
855 NT752 0000227075 Sigma-Aldrich Inc 499.05 08/19/2019   000022707500000025800001 PDF View
856 NT752 0000227175 StellarNet Inc 4195.00 08/19/2019   000022717500000726480001 PDF View
857 NT752 0000227134 Eppendorf North America Inc 27959.40 08/19/2019   000022713400000011750001 PDF View
858 NT752 0000227140 Sophos Marketing LLC 3289.00 08/19/2019   000022714000000195470001 PDF View
859 NT752 0000227105 Textile Preservation Services of Texas 2500.00 08/19/2019   000022710500000392820001 PDF View
860 NT752 0000227108 Entech Sales & Service Inc 2375.00 08/19/2019   000022710800000021920001 PDF View
861 NT752 0000227186 Collins,Jon Todd 3335.00 08/19/2019   000022718600000148720001 PDF View
862 NT752 0000227124 Seating Specialists LLC 8894.00 08/19/2019 UTA #0000021096 000022712400000221890001 PDF View
863 NT752 0000227171 Ben E Keith Company 1000.00 08/19/2019   000022717100000042770001 PDF View
864 NT752 0000227155 Summus VWR Products 8816.30 08/19/2019 CNR-01163 000022715500000102880001 PDF View
865 NT752 0000227030 Summus Dell Products 10585.00 08/19/2019 DIR-TSO-3763 000022703000000062270001 PDF View
866 NT752 0000226939 Reliant Transportation Inc 800.00 08/16/2019   000022693900000200750001 PDF View
867 NT752 0000227059 Dell Marketing L P 413617.81 08/16/2019 DIR-TSO-3763 000022705900000040640001 PDF View
868 NT752 0000227085 5 Star Rental 3759.00 08/16/2019   000022708500000589700001 PDF View
869 NT752 0000227005 Summus Dell Products 528.97 08/15/2019 DIR-TSO-3763 000022700500000062270001 PDF View
870 NT752 0000227029 ERC Environmental Consultants Inc 1900.00 08/15/2019   000022702900000440850001 PDF View
871 NT752 0000227003 SHI Government Solutions Inc 483.13 08/15/2019 DIR-TSO-3863 000022700300000013900001 PDF View
872 NT752 0000226983 Denton Depot 1555.00 08/15/2019   000022698300000115620001 PDF View
873 NT752 0000227006 Summus Dell Products 1059.75 08/15/2019 DIR-TSO-3763 000022700600000062270002 PDF View
874 NT752 0000226979 Denton Depot 1170.10 08/15/2019   000022697900000115620001 PDF View
875 NT752 0000226914 SHI Government Solutions Inc 1512.00 08/15/2019 DIR-TSO-3838 000022691400000013900001 PDF View
876 NT752 0000226980 Denton Depot 762.50 08/15/2019   000022698000000115620001 PDF View
877 NT752 0000226982 Denton Depot 1072.00 08/15/2019   000022698200000115620001 PDF View
878 NT752 0000227004 Summus Dell Products 434.98 08/15/2019 DIR-TSO-3763 000022700400000062270001 PDF View
879 NT752 0000226935 SHI Government Solutions Inc 1512.00 08/15/2019 DIR-TSO-3838 000022693500000013900001 PDF View
880 NT752 0000227027 Ben E Keith Company 1000.00 08/15/2019   000022702700000042770001 PDF View
881 NT752 0000226816 Community Impact Newspaper 4920.00 08/14/2019   000022681600000145700001 PDF View
882 NT752 0000226985 Phenomenex 2340.96 08/14/2019   000022698500000293340001 PDF View
883 NT752 0000226953 Fisher Scientific 459.48 08/14/2019   000022695300000015080001 PDF View
884 NT752 0000226977 Videotex Systems Inc 3955.00 08/14/2019   000022697700000049280001 PDF View
885 NT752 0000226877 Hickey,Dave 1000.00 08/14/2019   000022687700000225100001 PDF View
886 NT752 0000226987 Summus Dell Products 22100.00 08/14/2019 DIR-TSO-3763 000022698700000062270001 PDF View
887 NT752 0000226967 Sheridan Books Inc 3857.00 08/14/2019   000022696700000006850001 PDF View
888 NT752 0000226988 Sigma-Aldrich Inc 183.30 08/14/2019   000022698800000025800001 PDF View
889 NT752 0000227010 Summus Dell Products 2978.34 08/14/2019 DIR-TSO-3763 000022701000000062270001 PDF View
890 NT752 0000226912 Summus Dell Products 20400.00 08/14/2019 DIR-TSO-3763 000022691200000062270001 PDF View
891 NT752 0000226955 PRAXAIR 1500.00 08/13/2019   000022695500000006610001 PDF View
892 NT752 0000226875 Denton Trophy House LLC 72.00 08/13/2019   000022687500000085850001 PDF View
893 NT752 0000226913 Rev.com Inc 3000.00 08/13/2019   000022691300000106560001 PDF View
894 NT752 0000226283 Gallup Inc 62401.00 08/13/2019   000022628300000045450001 PDF View
895 NT752 0000226896 B&H Foto&Electronics Corp 25383.92 08/13/2019 E12013 000022689600000397490001 PDF View
896 NT752 0000226928 Artografx Inc 1950.00 08/13/2019   000022692800000280220001 PDF View
897 NT752 0000226954 Ted Pella Inc 882.40 08/13/2019   000022695400000069010001 PDF View
898 NT752 0000226918 Intelligent Interiors Inc 8731.00 08/13/2019 170302 000022691800000230430001 PDF View
899 NT752 0000226869 Sigma-Aldrich Inc 2052.00 08/12/2019   000022686900000025800001 PDF View
900 NT752 0000226807 Ace Mart Restaurant Supply 3471.20 08/12/2019   000022680700000038980002 PDF View
901 NT752 0000226814 Barnes&Noble College Booksellers LLC 116555.70 08/12/2019   000022681400000654410001 PDF View
902 NT752 0000226874 RBD Instruments Inc 2820.00 08/12/2019   000022687400000024670001 PDF View
903 NT752 0000226868 State Auditor's Office 3255.00 08/12/2019   000022686800000139580001 PDF View
904 NT752 0000226811 Woodwind & Brasswind 23967.00 08/12/2019   000022681100000018980001 PDF View
905 NT752 0000226837 308 Construction LLC 21954.22 08/12/2019   000022683700000006270001 PDF View
906 NT752 0000226831 C&H Metalcrafts 3785.00 08/12/2019   000022683100000087610001 PDF View
907 NT752 0000226873 Onpoint Holdings Ltd 1200.00 08/12/2019   000022687300000015330001 PDF View
908 NT752 0000226904 Sigma-Aldrich Inc 186.20 08/12/2019   000022690400000025800001 PDF View
909 NT752 0000226849 PRAXAIR 155.90 08/12/2019   000022684900000006610002 PDF View
910 NT752 0000226865 Andy's Floral Events 6756.00 08/12/2019   000022686500000119040001 PDF View
911 NT752 0000226842 DMI Corp 166698.00 08/12/2019   000022684200000194870001 PDF View
912 NT752 0000226809 Canon Financial Services 1949.00 08/09/2019   000022680900000636540001 PDF View
913 NT752 0000226746 Ponder Company 1200.00 08/09/2019   000022674600000228550001 PDF View
914 NT752 0000226750 Monsam Enterprises 1650.00 08/09/2019   000022675000000224710001 PDF View
915 NT752 0000226788 Videotex Systems Inc 4863.00 08/09/2019 563-18 000022678800000049280001 PDF View
916 NT752 0000226815 Entech Sales & Service Inc 15000.00 08/09/2019   000022681500000021920001 PDF View
917 NT752 0000226452 Terrell Painting & Wallcovering 18830.00 08/09/2019 170201 000022645200000240500001 PDF View
918 NT752 0000226824 Apple Computer Inc 1595.00 08/09/2019 DIR-TSO-3789 000022682400000067150001 PDF View
919 NT752 0000226769 Summus Dell Products 1314.78 08/08/2019 DIR-TSO-3763 000022676900000062270001 PDF View
920 NT752 0000226685 GT Distributors 4712.00 08/07/2019 680-A1 000022668500000719450001 PDF View
921 NT752 0000226704 Completebook & Media Supply LLC 8655.61 08/07/2019 531-17 000022670400000407630001 PDF View
922 NT752 0000226575 Andy B's 3131.31 08/07/2019   000022657500000191720001 PDF View
923 NT752 0000226687 Classic Landscapes&Maintenance Inc 6245.00 08/07/2019 18-205410-MM 000022668700000145250001 PDF View
924 NT752 0000226689 Summus Dell Products 897.92 08/07/2019 DIR-TSO-3763 000022668900000062270001 PDF View
925 NT752 0000226696 Sealoc Texas Inc 2594.20 08/07/2019   000022669600000224420001 PDF View
926 NT752 0000226036 Entech Sales & Service Inc 24306.00 08/07/2019 558-18 000022603600000021920001 PDF View
927 NT752 0000226716 Great Southwestern Fire&Safety 1943.00 08/07/2019   000022671600000048530001 PDF View
928 NT752 0000226703 Summus Dell Products 2099.78 08/07/2019 DIR-TSO-3763 000022670300000062270001 PDF View
929 NT752 0000226686 Andy B's 1496.25 08/06/2019   000022668600000191720001 PDF View
930 NT752 0000226643 Fisher Scientific 1952.75 08/06/2019 4914 000022664300000015080001 PDF View
931 NT752 0000226612 Insulator Seal 324.00 08/06/2019   000022661200000224460001 PDF View
932 NT752 0000226668 Grainger Inc 19.16 08/06/2019   000022666800000019590001 PDF View
933 NT752 0000226644 Sigma-Aldrich Inc 311.61 08/06/2019 NAOSMM # 40011248 000022664400000025800001 PDF View
934 NT752 0000226676 Sigma-Aldrich Inc 406.00 08/06/2019   000022667600000025800001 PDF View
935 NT752 0000226608 Entech Sales & Service Inc 1810.00 08/06/2019 558-18 000022660800000021920001 PDF View
936 NT752 0000226638 HITFAR (Hong Kong) Limited 6260.00 08/06/2019   000022663800000223440001 PDF View
937 NT752 0000226561 Electro Acoustics & Video Inc 594.50 08/06/2019   000022656100000050110001 PDF View
938 NT752 0000226602 Kudelski Security Inc 10826.45 08/06/2019 DIR-TSO-4240 000022660200000108810001 PDF View
939 NT752 0000226653 Attenborough,Stephen R 10646.90 08/06/2019   000022665300000204940001 PDF View
940 NT752 0000226552 Graybar Electric 3759.99 08/05/2019 EV2370 000022655200000007980001 PDF View
941 NT752 0000226604 USA Scientific 138.00 08/05/2019   000022660400000045640001 PDF View
942 NT752 0000225832 Terracon Consultants Inc 30660.00 08/05/2019 RFQ769-14-834ER 000022583200000025030001 PDF View
943 NT752 0000226494 Denton Depot 1007.50 08/05/2019   000022649400000115620001 PDF View
944 NT752 0000226515 Hurzon,Michael J 2800.00 08/05/2019   000022651500000224430001 PDF View
945 NT752 0000226521 Nouveau Technology Services LP 750.00 08/05/2019 CNR01444 000022652100000180800003 PDF View
946 NT752 0000226235 Nouveau Technology Services LP 44166.58 08/05/2019 CNR01444 000022623500000180800002 PDF View
947 NT752 0000226547 Beaver Graphix LLC 733.45 08/05/2019   000022654700000166280001 PDF View
948 NT752 0000226629 Sigma-Aldrich Inc 691.59 08/05/2019   000022662900000025800001 PDF View
949 NT752 0000226526 Fox,Tyler 960.00 08/02/2019   000022652600000224330001 PDF View
950 NT752 0000226517 Napier,Ryan Allen 960.00 08/02/2019   000022651700000224320001 PDF View
951 NT752 0000226489 Summus Dell Products 2635.90 08/02/2019   000022648900000062270002 PDF View
952 NT752 0000226410 Entech Sales & Service Inc 8960.00 08/02/2019 558-18 000022641000000021920001 PDF View
953 NT752 0000226495 USFI Inc 2880.00 08/02/2019   000022649500000049960001 PDF View
954 NT752 0000226508 Teles de Costa,Marcio Jorge 51.46 08/02/2019   000022650800000085460001 PDF View
955 NT752 0000226446 Lantek Audio Video&Communications LLC 1703.45 08/02/2019   000022644600000127440001 PDF View
956 NT752 0000226243 Embassy Suites by Hilton Denton Conv Ctr 2646.20 08/02/2019   000022624300000125440001 PDF View
957 NT752 0000226498 JPM Networks LLC dba Kwikboost 2217.00 08/02/2019   000022649800000697170001 PDF View
958 NT752 0000226491 Intelligent Interiors Inc 4841.39 08/02/2019 4400003403 000022649100000230430001 PDF View
959 NT752 0000226484 Teles de Costa,Marcio Jorge 1115.32 08/02/2019   000022648400000085460001 PDF View
960 NT752 0000226415 Denton Depot 1454.50 08/02/2019   000022641500000115620001 PDF View
961 NT752 0000226525 Woody,Amy 960.00 08/02/2019   000022652500000730490001 PDF View
962 NT752 0000226523 Rybowicz,Kevin 960.00 08/02/2019   000022652300000224310001 PDF View
963 NT752 0000226443 308 Construction LLC 540.00 08/02/2019 170201 000022644300000006270001 PDF View
964 NT752 0000226430 WRG LLC dba Workplace Resource Group 1891.40 08/01/2019 4400003403 000022643000000007720001 PDF View
965 NT752 0000226419 McNeill's Inc 2817.95 08/01/2019   000022641900000047910001 PDF View
966 NT752 0000226444 Weatherproofing Services 109545.00 08/01/2019 17/038DG-16 000022644400000364850001 PDF View
967 NT752 0000226417 Intelligent Interiors Inc 409.25 08/01/2019   000022641700000230430001 PDF View
968 NT752 0000226301 Denton Depot 949.00 08/01/2019   000022630100000115620001 PDF View
969 NT752 0000226064 WSP USA Buildings Inc 156828.00 08/01/2019 769-15-848ER 000022606400000430960001 PDF View
970 NT752 0000226471 Harris,Travis E 960.00 08/01/2019   000022647100000224300001 PDF View
971 NT752 0000226470 Gordon,Kyle Daniel 4300.00 08/01/2019   000022647000000152800001 PDF View
972 NT752 0000226448 Avanti Polar Lipids 329.85 07/31/2019   000022644800000222870001 PDF View
973 NT752 0000225977 Innovative Interfaces Incorporated 7790.00 07/31/2019   000022597700000067230002 PDF View
974 NT752 0000226355 G L Seaman & Company 1086.00 07/31/2019 R142213 000022635500000473790001 PDF View
975 NT752 0000226343 BSN Sports LLC 4402.20 07/31/2019   000022634300000051220001 PDF View
976 NT752 0000225979 JT Vaughn Construction LLC 357245.00 07/31/2019 15-041JN-16 000022597900000512290001 PDF View
977 NT752 0000226351 Redman Pipe Organs 13000.00 07/31/2019   000022635100000555190001 PDF View
978 NT752 0000226441 TSI Incorporated 3390.00 07/31/2019   000022644100000224090001 PDF View
979 NT752 0000226437 Barnes&Noble College Booksellers LLC 2800.00 07/31/2019   000022643700000654410001 PDF View
980 NT752 0000226420 TM Television 211175.93 07/31/2019 573-18 000022642000000345780001 PDF View
981 NT752 0000226428 Presidio Networked Solutions Group LLC 11635.79 07/31/2019 DIR-TSO-4167 000022642800000032790001 PDF View
982 NT752 0000226424 ProQuest  LLC 42413.00 07/31/2019   000022642400000329730001 PDF View
983 NT752 0000226435 Fisher Scientific 692.89 07/31/2019 UTSSCA 4914 000022643500000015080001 PDF View
984 NT752 0000226360 Fisher Scientific 3736.54 07/30/2019 4914 000022636000000015080003 PDF View
985 NT752 0000226384 PhytoTech Labs Inc 128.83 07/30/2019   000022638400000026900001 PDF View
986 NT752 0000226359 Embassy Suites by Hilton Denton Conv Ctr 1237.52 07/30/2019   000022635900000125440002 PDF View
987 NT752 0000226395 Sigma-Aldrich Inc 239.30 07/30/2019   000022639500000025800001 PDF View
988 NT752 0000226344 Summus VWR Products 432.02 07/30/2019 01163 000022634400000102880001 PDF View
989 NT752 0000226394 Toronto Research Chemical 245.00 07/30/2019   000022639400000414670001 PDF View
990 NT752 0000226371 Ennead Architects LLP 5000.00 07/30/2019   000022637100000223870001 PDF View
991 NT752 0000226171 Berger Transfer and  Storage 4958.00 07/29/2019 #CNR01259 000022617100000156370001 PDF View
992 NT752 0000226191 Phi Theta Kappa 500.00 07/29/2019   000022619100000015350001 PDF View
993 NT752 0000226287 Birchard Company 380.00 07/29/2019   000022628700000223300001 PDF View
994 NT752 0000226297 INM Marketing Group 120.00 07/29/2019   000022629700000155300001 PDF View
995 NT752 0000226303 Summus Dell Products 3044.56 07/29/2019 DIR-TSO-3763 000022630300000062270001 PDF View
996 NT752 0000226120 Genuent Global LLC 16700.00 07/29/2019 TS06-17 000022612000000731120001 PDF View
997 NT752 0000226193 Smartlite 450.00 07/29/2019   000022619300000189840001 PDF View
998 NT752 0000226299 Fisher Scientific 2911.73 07/29/2019 UTSSCA 4914 000022629900000015080001 PDF View
999 NT752 0000226296 AlphaGraphics of Denton 4090.31 07/29/2019   000022629600000605400001 PDF View
1000 NT752 0000226181 308 Construction LLC 40744.85 07/26/2019 170201 000022618100000006270001 PDF View
1001 NT752 0000226269 Agilent Technologies Inc 1037.20 07/26/2019   000022626900000063130001 PDF View
1002 NT752 0000226236 Serv A Plus Food Safe 3780.00 07/25/2019   000022623600000223130001 PDF View
1003 NT752 0000226226 Music and Arts Centers 8215.00 07/25/2019 BUYBOARD 539-17 000022622600000705460001 PDF View
1004 NT752 0000226217 Spelman&Johnson Group 46662.00 07/25/2019 RFP769-15-0827-CC 000022621700000696840001 PDF View
1005 NT752 0000226172 Fairway Supply Inc 515.00 07/25/2019   000022617200000047370001 PDF View
1006 NT752 0000226219 Intercon Environmental Inc 293760.00 07/25/2019   000022621900000168310002 PDF View
1007 NT752 0000226221 Flir Commercial Systems Inc 24050.50 07/25/2019   000022622100000087140001 PDF View
1008 NT752 0000226188 Community Impact Newspaper 2250.10 07/25/2019   000022618800000145700002 PDF View
1009 NT752 0000226213 Bonded Lightning Protection Systems LTD 8950.00 07/25/2019   000022621300000191120001 PDF View
1010 NT752 0000226175 ERC Environmental Consultants Inc 4854.00 07/25/2019   000022617500000440850001 PDF View
1011 NT752 0000226156 Paradigm Inc 55000.00 07/25/2019 RFP752-18-0605-JD 000022615600000169200001 PDF View
1012 NT752 0000226239 Myriad Sensors Inc 3425.70 07/25/2019   000022623900000223540001 PDF View
1013 NT752 0000226227 CBS Mechanical Inc 10000.00 07/25/2019   000022622700000045950001 PDF View
1014 NT752 0000226216 Ensolum LLC 24080.00 07/25/2019   000022621600000142380002 PDF View
1015 NT752 0000226223 Sigma-Aldrich Inc 53.87 07/25/2019   000022622300000025800001 PDF View
1016 NT752 0000226125 Intelligent Interiors Inc 4705.35 07/24/2019   000022612500000230430001 PDF View
1017 NT752 0000226015 Terrell Painting & Wallcovering 12600.00 07/24/2019 170201 000022601500000240500001 PDF View
1018 NT752 0000226148 CDW Government Inc 6535.30 07/24/2019 130733 000022614800000021380001 PDF View
1019 NT752 0000226093 Taurus Technologies Inc 12250.00 07/24/2019 170306 000022609300000707540002 PDF View
1020 NT752 0000226202 School Specialty Inc 2003.29 07/24/2019   000022620200000023180001 PDF View
1021 NT752 0000226146 Bridgework Partners LLC 9009.60 07/24/2019   000022614600000222190001 PDF View
1022 NT752 0000226163 INM Marketing Group 938.80 07/23/2019   000022616300000155300001 PDF View
1023 NT752 0000226149 Edward Don and Company LLC 15499.41 07/23/2019 BUYBOARD 519-16 000022614900000019750001 PDF View
1024 NT752 0000226004 Direct Packet Inc dba OneVision 1159.00 07/22/2019 TSO-3869 000022600400000282520001 PDF View
1025 NT752 0000226101 McGraw-Hill Companies 425.40 07/22/2019   000022610100000008070001 PDF View
1026 NT752 0000226072 Pearson Education Inc 4963.16 07/22/2019   000022607200000012560001 PDF View
1027 NT752 0000226047 PDME Inc 1140.76 07/22/2019   000022604700000351790001 PDF View
1028 NT752 0000226028 BC Commercial 144406.96 07/22/2019 TX01G-101116-BCI 000022602800000162010001 PDF View
1029 NT752 0000226044 5 Star Rental 235.07 07/22/2019   000022604400000589700001 PDF View
1030 NT752 0000226063 Summus Dell Products 4371.50 07/22/2019 DIR-TSO-3763 000022606300000062270001 PDF View
1031 NT752 0000226077 Summus VWR Products 18979.44 07/22/2019 CNR01163 000022607700000102880001 PDF View
1032 NT752 0000226050 BSN Sports LLC 13744.38 07/22/2019   000022605000000051220001 PDF View
1033 NT752 0000226055 Cintas Corporation 9310.00 07/22/2019 R-BB-19002 000022605500000032220001 PDF View
1034 NT752 0000225986 SmithGroup Inc 2477.61 07/22/2019   000022598600000573380001 PDF View
1035 NT752 0000225994 Sigma-Aldrich Inc 71.94 07/22/2019   000022599400000025800004 PDF View
1036 NT752 0000226030 Cloud Ingenuity LLC 439223.14 07/19/2019 DIR-TSO-4299 000022603000000128740001 PDF View
1037 NT752 0000225970 Centennial Contractors Enterprises Inc 96924.87 07/19/2019 RFP752-18-910DH 000022597000000156120001 PDF View
1038 NT752 0000225945 Sports Business Journal 15002.16 07/19/2019   000022594500000209850001 PDF View
1039 NT752 0000226037 Direct Packet Inc dba OneVision 156.00 07/19/2019 DIR-TSO-3869 000022603700000282520001 PDF View
1040 NT752 0000226053 TCI AMERICA 171.76 07/19/2019   000022605300000066470002 PDF View
1041 NT752 0000226054 Summus Dell Products 256.19 07/19/2019 DIT-TSO-3763 000022605400000062270001 PDF View
1042 NT752 0000225984 Centennial Contractors Enterprises Inc 103437.90 07/19/2019 RFP752-18-910DH 000022598400000156120001 PDF View
1043 NT752 0000225980 Terrell Painting & Wallcovering 204213.43 07/19/2019 RFP752-18-910DH 000022598000000240500001 PDF View
1044 NT752 0000226042 Music and Arts Centers 50330.00 07/19/2019   000022604200000705460001 PDF View
1045 NT752 0000225991 Culturetopia LLC 4500.00 07/18/2019   000022599100000222020001 PDF View
1046 NT752 0000225787 C&G Electric 60154.00 07/18/2019 558-18 000022578700000050240001 PDF View
1047 NT752 0000224899 Logical Solutions Inc 243863.00 07/18/2019 190201 000022489900000216960001 PDF View
1048 NT752 0000225993 Great Southwestern Fire&Safety 2103.00 07/18/2019   000022599300000048530001 PDF View
1049 NT752 0000226016 Mitchell,Jacob 875.00 07/18/2019   000022601600000221930001 PDF View
1050 NT752 0000226020 Mendelowitz,Eitan Gilad 2000.00 07/18/2019   000022602000000165060001 PDF View
1051 NT752 0000226008 Fisher Scientific 700.11 07/18/2019 UTSSCA 4914 000022600800000015080001 PDF View
1052 NT752 0000225972 Aramark Uniform Services Inc 70000.00 07/18/2019 RFP769-14-722-JT 000022597200000069040001 PDF View
1053 NT752 0000225815 CAROLINA BIOLOGICAL SPLY 6362.20 07/17/2019   000022581500000031630001 PDF View
1054 NT752 0000225867 Terrell Painting & Wallcovering 28989.00 07/17/2019 170201 000022586700000240500001 PDF View
1055 NT752 0000224898 Tanya L Jansma&Associates 40000.00 07/17/2019 RFP752-19-010219-JD 000022489800000651550001 PDF View
1056 NT752 0000225890 Intelligent Interiors Inc 24309.22 07/17/2019 14221 000022589000000230430001 PDF View
1057 NT752 0000225927 Seating Specialists LLC 12066.76 07/17/2019 UTA19-21096CW 000022592700000221890001 PDF View
1058 NT752 0000225956 Trane US Inc 1370.00 07/17/2019   000022595600000016150001 PDF View
1059 NT752 0000225942 Origin PC 3453.00 07/17/2019   000022594200000044710001 PDF View
1060 NT752 0000225974 Wilson Project Management LLC 26884.30 07/17/2019 CNR01416 000022597400000420130001 PDF View
1061 NT752 0000225962 Viyu Network Solutions 4225.00 07/17/2019   000022596200000184010001 PDF View
1062 NT752 0000225975 Quartzy Inc 48.20 07/17/2019   000022597500000739250001 PDF View
1063 NT752 0000225944 Thermal Technology LLC 3600.00 07/17/2019   000022594400000088640001 PDF View
1064 NT752 0000225999 Apple Computer Inc 1595.00 07/17/2019 DIR-TSO-3789 000022599900000067150001 PDF View
1065 NT752 0000225995 Reeves,Francis Wayne 3300.00 07/17/2019   000022599500000221200001 PDF View
1066 NT752 0000225906 ITF Technologies Inc 1815.00 07/16/2019   000022590600000148020001 PDF View
1067 NT752 0000225908 Fisher Scientific 7091.60 07/16/2019 UTSSCA 4914 000022590800000015080001 PDF View
1068 NT752 0000225892 Groupe Lacasse LLC 12812.12 07/16/2019 584-19 000022589200000112340001 PDF View
1069 NT752 0000225921 PRAXAIR 110.00 07/16/2019   000022592100000006610001 PDF View
1070 NT752 0000225683 Lone Oak Retreat LLC 10250.00 07/16/2019   000022568300000727790002 PDF View
1071 NT752 0000225933 Thermal Technology LLC 1620.00 07/16/2019   000022593300000088640001 PDF View
1072 NT752 0000225895 Minor Emergency of Denton 900.00 07/16/2019   000022589500000027080001 PDF View
1073 NT752 0000225940 Summus Dell Products 8503.02 07/16/2019 DIR-TSO-3763 000022594000000062270001 PDF View
1074 NT752 0000225938 Great Southwestern Fire&Safety 6175.00 07/16/2019 RFP752-19-913DHER 000022593800000048530001 PDF View
1075 NT752 0000225880 Skyline Sector 5 3792.88 07/16/2019   000022588000000220330001 PDF View
1076 NT752 0000225899 Intelligent Interiors Inc 21695.79 07/16/2019 4400003403 000022589900000230430001 PDF View
1077 NT752 0000225873 Intelligent Interiors Inc 5100.68 07/15/2019 NATIONAL IPA 142213 000022587300000230430001 PDF View
1078 NT752 0000225872 Pearson 30.00 07/15/2019   000022587200000348000001 PDF View
1079 NT752 0000225742 Greenlamps 3299.80 07/15/2019   000022574200000711980001 PDF View
1080 NT752 0000225837 Summus Dell Products 13484.85 07/15/2019 DIR-TSO-3763 000022583700000062270001 PDF View
1081 NT752 0000225879 TB Franchising LLC dba Taco Bueno 140.84 07/15/2019   000022587900000201250001 PDF View
1082 NT752 0000225911 Fisher Scientific 442.97 07/15/2019 UTSSCA 4914 000022591100000015080001 PDF View
1083 NT752 0000225761 Ricoh USA 13647.00 07/15/2019 DIR-TSO-3041 000022576100000612410001 PDF View
1084 NT752 0000225759 Megahertz Technology 4641.00 07/15/2019   000022575900000153050001 PDF View
1085 NT752 0000225725 Firetrol Protection Systems 20000.00 07/15/2019 574-18 000022572500000190870001 PDF View
1086 NT752 0000225804 Intelligent Interiors Inc 6867.86 07/15/2019 NATIONAL IPA 142213 000022580400000230430001 PDF View
1087 NT752 0000225869 Omega Engineering Inc 1705.62 07/15/2019   000022586900000006980001 PDF View
1088 NT752 0000225609 Alpha Building Corporation 26909.10 07/12/2019 JOC-759-18-910DH 000022560900000298520001 PDF View
1089 NT752 0000225758 Alamo Music Center 9498.00 07/12/2019   000022575800000194430001 PDF View
1090 NT752 0000224750 Trane US Inc 41067.31 07/12/2019 NATIONAL IPA 15-JLP-023 000022475000000016150001 PDF View
1091 NT752 0000225833 Fisher Scientific 35.32 07/12/2019 4914 000022583300000015080001 PDF View
1092 NT752 0000225663 Thermo Fisher Scientific 321.07 07/12/2019   000022566300000296820001 PDF View
1093 NT752 0000225749 Summus Dell Products 2683.56 07/11/2019 DIR-TSO-3763 000022574900000062270001 PDF View
1094 NT752 0000225635 Durham School Services 637.50 07/11/2019   000022563500000069110001 PDF View
1095 NT752 0000225775 Summus Dell Products 1175.47 07/11/2019 DIR-TSO-3763 000022577500000062270001 PDF View
1096 NT752 0000225800 GREENHOUSE RESTAURANT 200.00 07/11/2019   000022580000000057410001 PDF View
1097 NT752 0000225799 AlphaGraphics of Denton 658.00 07/11/2019   000022579900000605400001 PDF View
1098 NT752 0000225751 Sand Trap Processing of Fort Worth LLC 2200.00 07/11/2019   000022575100000188070001 PDF View
1099 NT752 0000225754 Summus Dell Products 1314.78 07/11/2019 DIR-TSO-3763 000022575400000062270001 PDF View
1100 NT752 0000225777 Summus Dell Products 4025.34 07/11/2019 DIR-TSO-3763 000022577700000062270001 PDF View
1101 NT752 0000225729 Centennial Contractors Enterprises Inc 113451.08 07/10/2019 RFP752-18-910DH 000022572900000156120001 PDF View
1102 NT752 0000225339 WSP USA Buildings Inc 87945.00 07/10/2019 RFQ769-15-848ER 000022533900000430960001 PDF View
1103 NT752 0000225634 Durham School Services 525.00 07/10/2019   000022563400000069110001 PDF View
1104 NT752 0000225716 National Business Furniture 2088.00 07/10/2019   000022571600000023280001 PDF View
1105 NT752 0000225701 V-Prompt 1020.00 07/09/2019   000022570100000710120001 PDF View
1106 NT752 0000225679 DMG Mori USA Inc 3005.00 07/09/2019   000022567900000142400001 PDF View
1107 NT752 0000225714 Pixl Productions LLC 12217.50 07/09/2019   000022571400000660020001 PDF View
1108 NT752 0000225719 Fisher Scientific 1081.64 07/09/2019 4914 000022571900000015080001 PDF View
1109 NT752 0000225657 Apple Computer Inc 6698.00 07/08/2019 DIR-TSO-3789 000022565700000067150001 PDF View
1110 NT752 0000225669 Sigma-Aldrich Inc 1099.08 07/08/2019   000022566900000025800001 PDF View
1111 NT752 0000225693 Thermo Fisher Scientific Chemicals Inc 28.80 07/08/2019   000022569300000166050001 PDF View
1112 NT752 0000225686 Denton Trophy House LLC 230.00 07/08/2019   000022568600000085850001 PDF View
1113 NT752 0000225612 Pro Care Collison LLC 18690.00 07/08/2019   000022561200000220650001 PDF View
1114 NT752 0000225696 Summus Dell Products 1945.00 07/08/2019 DIR-TSO-3763 000022569600000062270001 PDF View
1115 NT752 0000225680 Apple Computer Inc 2996.00 07/08/2019 DIR-TSO-3789 000022568000000067150001 PDF View
1116 NT752 0000225610 Cineplex Digital Media US Inc 11918.43 07/08/2019   000022561000000219450001 PDF View
1117 NT752 0000223635 Intelligent Interiors Inc 711.41 07/08/2019 R142213 000022363500000230430003 PDF View
1118 NT752 0000225648 SpawGlass Contractors Inc 54889.00 07/05/2019 RFP752-19-230308DH 000022564800000220920001 PDF View
1119 NT752 0000225643 City of Denton 161887.00 07/05/2019   000022564300000060180001 PDF View
1120 NT752 0000225646 UniFirst Holdings Inc 15000.00 07/05/2019 062415-UFC 000022564600000220790001 PDF View
1121 NT752 0000225650 Happy Chef Uniforms 8739.70 07/05/2019 IFB-752-19-1007-GO 000022565000000518050001 PDF View
1122 NT752 0000225386 Maynooth University 53308.21 07/05/2019   000022538600000133060001 PDF View
1123 NT752 0000225598 Ink Publishing Corporation 24375.00 07/03/2019   000022559800000220570001 PDF View
1124 NT752 0000225631 Pearson 3098.97 07/03/2019 CNR01341-P 000022563100000348000001 PDF View
1125 NT752 0000224896 Gensler 36000.00 07/03/2019 RFQ769-17-890ER - IDIQ 000022489600000152650001 PDF View
1126 NT752 0000225628 Terrell Painting & Wallcovering 11390.00 07/03/2019 170201 000022562800000240500001 PDF View
1127 NT752 0000225625 Edward Don and Company LLC 21396.70 07/03/2019 519-16 000022562500000019750002 PDF View
1128 NT752 0000225627 Business Interiors 19345.11 07/03/2019 584-19 000022562700000051410001 PDF View
1129 NT752 0000225603 Fisher Scientific 326.56 07/03/2019 4914 000022560300000015080001 PDF View
1130 NT752 0000225461 C&G Electric 104174.00 07/01/2019 558-18 000022546100000050240003 PDF View
1131 NT752 0000225550 Bomas Machine Specialties Inc 2220.00 07/01/2019   000022555000000144400001 PDF View
1132 NT752 0000225564 Classic Landscapes&Maintenance Inc 5250.00 07/01/2019 RFP752-18-205410-MM 000022556400000145250001 PDF View
1133 NT752 0000225342 Community Impact Newspaper 28230.00 07/01/2019   000022534200000145700001 PDF View
1134 NT752 0000225548 Apple Computer Inc 32159.50 07/01/2019 DIR-TSO-3789 000022554800000067150001 PDF View
1135 NT752 0000225544 Denton Depot 149.20 07/01/2019   000022554400000115620001 PDF View
1136 NT752 0000225518 Summus Dell Products 3490.55 06/28/2019 DIR-TSO-3763 000022551800000062270001 PDF View
1137 NT752 0000225468 National Business Furniture 3896.70 06/28/2019   000022546800000023280001 PDF View
1138 NT752 0000225416 Daktronics Inc 289949.00 06/28/2019 512-16 000022541600000026160001 PDF View
1139 NT752 0000225520 Micrometrics Instrument Corporation 20414.26 06/28/2019   000022552000000219800001 PDF View
1140 NT752 0000225475 Sigma-Aldrich Inc 97.50 06/28/2019   000022547500000025800001 PDF View
1141 NT752 0000225479 C&G Electric 12530.70 06/28/2019 558-18 000022547900000050240001 PDF View
1142 NT752 0000225506 Don Huff Design&Illustration 2280.00 06/28/2019   000022550600000217300001 PDF View
1143 NT752 0000225455 Concentric Sky Inc 165450.00 06/27/2019   000022545500000173140001 PDF View
1144 NT752 0000225454 Onpoint Holdings Ltd 3600.00 06/27/2019   000022545400000015330001 PDF View
1145 NT752 0000225458 Intercon Environmental Inc 3200.00 06/27/2019   000022545800000168310001 PDF View
1146 NT752 0000225464 ERC Environmental Consultants Inc 2214.00 06/27/2019   000022546400000440850001 PDF View
1147 NT752 0000225403 Thorlabs Inc 145.26 06/26/2019   000022540300000223990001 PDF View
1148 NT752 0000225423 Wilson Project Management LLC 5434.07 06/26/2019 CNR01323 000022542300000420130001 PDF View
1149 NT752 0000225388 AlphaGraphics of Denton 791.74 06/25/2019   000022538800000605400001 PDF View
1150 NT752 0000225367 Intelligent Interiors Inc 20727.71 06/25/2019 01328 000022536700000230430001 PDF View
1151 NT752 0000225337 Alta Mere 2120.00 06/24/2019   000022533700000218730001 PDF View
1152 NT752 0000225303 SKC Communications Products LLC 1868.20 06/24/2019 CNR01317 000022530300000343590001 PDF View
1153 NT752 0000225306 Wildcatter Ranch&Resort LP 18000.00 06/24/2019   000022530600000217070001 PDF View
1154 NT752 0000225300 Proctor U Inc 600.00 06/24/2019   000022530000000619980001 PDF View
1155 NT752 0000225328 B&H Foto&Electronics Corp 1443.95 06/24/2019   000022532800000397490001 PDF View
1156 NT752 0000224323 Legends Group LLC 62964.00 06/24/2019 CMAR 000022432300000212710001 PDF View
1157 NT752 0000224945 Genuent Global LLC 12800.00 06/24/2019 TS06-17 000022494500000731120001 PDF View
1158 NT752 0000225324 MYCOM Bussiness Systems Inc 722.57 06/24/2019   000022532400000218650001 PDF View
1159 NT752 0000225254 Epic Sports Inc 19282.66 06/21/2019   000022525400000653390001 PDF View
1160 NT752 0000225270 Texas Medical Association 15150.00 06/21/2019   000022527000000132750001 PDF View
1161 NT752 0000225267 GBS - Giesler Broadcasting Supply Inc 3194.00 06/21/2019   000022526700000718300001 PDF View
1162 NT752 0000225283 Edward Don and Company LLC 15337.05 06/21/2019 519-16 000022528300000019750001 PDF View
1163 NT752 0000225227 Airgas USA LLC 240.24 06/20/2019   000022522700000622280001 PDF View
1164 NT752 0000225233 KeyWarden Systems Partners LLP 7566.00 06/20/2019 579-19 000022523300000706100001 PDF View
1165 NT752 0000225249 UTSW Medical Center 3000.00 06/20/2019   000022524900000016460001 PDF View
1166 NT752 0000225235 Sigma-Aldrich Inc 842.20 06/20/2019   000022523500000025800001 PDF View
1167 NT752 0000225239 BKM Total Office of Texas LLC 2184.56 06/20/2019   000022523900000006630001 PDF View
1168 NT752 0000225231 American Golf Cars 500.00 06/20/2019   000022523100000054090001 PDF View
1169 NT752 0000225260 Virgin Galactic Ltd 9198.42 06/20/2019   000022526000000214170001 PDF View
1170 NT752 0000225257 Voertman's Campus Bookstore 500.00 06/20/2019   000022525700000026260001 PDF View
1171 NT752 0000225240 National Business Furniture 1378.25 06/20/2019   000022524000000023280001 PDF View
1172 NT752 0000225228 Summus Dell Products 2936.28 06/19/2019 DIR-TSO-3763 000022522800000062270001 PDF View
1173 NT752 0000225210 PublicIdentity Inc 201.85 06/19/2019   000022521000000070160001 PDF View
1174 NT752 0000225191 Classic Landscapes&Maintenance Inc 9375.00 06/19/2019 RFP752-18-205410-MM 000022519100000145250001 PDF View
1175 NT752 0000225213 Ricoh USA 487.84 06/19/2019 TSO-3041 000022521300000612410004 PDF View
1176 NT752 0000225131 Lone Star Furnishings LLC 17864.20 06/18/2019 584-19 000022513100000627710001 PDF View
1177 NT752 0000225186 Medicat LLC 2601.00 06/18/2019   000022518600000386600001 PDF View
1178 NT752 0000225096 Fairway Supply Inc 12828.40 06/18/2019 577-18 000022509600000047370001 PDF View
1179 NT752 0000224242 JT Vaughn Construction LLC 7546303.00 06/18/2019 RFSCP752-19-227262DH 000022424200000512290004 PDF View
1180 NT752 0000225187 LSI Graphic Solutions 1983.00 06/18/2019   000022518700000735320001 PDF View
1181 NT752 0000225158 ERC Environmental Consultants Inc 4125.00 06/18/2019   000022515800000440850001 PDF View
1182 NT752 0000225060 Boydell&Brewer Ltd 1750.00 06/18/2019   000022506000000216150001 PDF View
1183 NT752 0000225123 MD Building Products 7307.50 06/17/2019   000022512300000169670001 PDF View
1184 NT752 0000225109 Airgas USA LLC 27.04 06/17/2019   000022510900000622280001 PDF View
1185 NT752 0000225122 PublicIdentity Inc 2287.26 06/17/2019   000022512200000070160001 PDF View
1186 NT752 0000225118 Superior Fiber & Data Services Inc 80506.17 06/17/2019 170306 000022511800000157710003 PDF View
1187 NT752 0000225139 Yaggi Engineering Inc 31560.00 06/17/2019 769-14-835ER 000022513900000325090001 PDF View
1188 NT752 0000224834 Nouveau Technology Services LP 530618.95 06/14/2019 752-18-910DH 000022483400000180800001 PDF View
1189 NT752 0000225101 Clean Harbors Environmental Services Inc 23242.32 06/14/2019   000022510100000004930001 PDF View
1190 NT752 0000225095 Airgas USA LLC 21.18 06/14/2019   000022509500000622280001 PDF View
1191 NT752 0000225074 Fire Door Solutions LLC 15417.00 06/14/2019   000022507400000748890001 PDF View
1192 NT752 0000225093 T2 Systems Inc 15000.00 06/14/2019   000022509300000054500001 PDF View
1193 NT752 0000225084 Summus Dell Products 32375.00 06/14/2019 DIR-TSO-3763 000022508400000062270001 PDF View
1194 NT752 0000225044 Bruker Nano Inc 500.00 06/13/2019   000022504400000055640001 PDF View
1195 NT752 0000225059 Tenly Landscape Construction Inc 26024.15 06/13/2019 752-18-205410-MM 000022505900000151480001 PDF View
1196 NT752 0000225011 Altuna,Steven 1200.00 06/12/2019   000022501100000215490001 PDF View
1197 NT752 0000224264 Ritchie,Matthew 585000.00 06/12/2019   000022426400000117910001 PDF View
1198 NT752 0000225025 Summus Dell Products 1921.50 06/12/2019 DIR-TSO-3763 000022502500000062270003 PDF View
1199 NT752 0000224864 American Type Culture Collection 310.25 06/12/2019   000022486400000029930001 PDF View
1200 NT752 0000224976 DFW Drape and Lighting 1755.00 06/11/2019   000022497600000113830001 PDF View
1201 NT752 0000224990 Pixl Productions LLC 4995.00 06/11/2019   000022499000000660020001 PDF View
1202 NT752 0000224942 C&G Electric 1216.00 06/11/2019   000022494200000050240001 PDF View
1203 NT752 0000224919 Fisher Scientific 964.23 06/10/2019 4914 000022491900000015080001 PDF View
1204 NT752 0000224938 T2 Systems Inc 63121.36 06/10/2019   000022493800000054500001 PDF View
1205 NT752 0000224907 LabLogic Systems Inc 6475.85 06/10/2019   000022490700000617290001 PDF View
1206 NT752 0000224943 Weldon,Williams&Lick 2287.81 06/10/2019   000022494300000036110001 PDF View
1207 NT752 0000224912 Tomco Services Inc 4359.30 06/10/2019   000022491200000217010001 PDF View
1208 NT752 0000224865 Direct Packet Inc dba OneVision 11399.90 06/07/2019 TSO-3869 000022486500000282520001 PDF View
1209 NT752 0000224883 8K Inc 81564.19 06/07/2019   000022488300000216970001 PDF View
1210 NT752 0000224876 Borger,Julie Thompson 1500.00 06/06/2019   000022487600000132210001 PDF View
1211 NT752 0000224881 Medicat LLC 1000.00 06/06/2019   000022488100000386600002 PDF View
1212 NT752 0000224830 Triangle Biosystems Inc 29374.00 06/06/2019   000022483000000212400001 PDF View
1213 NT752 0000224869 Thermo Electron North America LLC 1431.60 06/06/2019   000022486900000288620001 PDF View
1214 NT752 0000224816 Summus VWR Products 944.78 06/05/2019 DIR-TSO-3763 000022481600000102880001 PDF View
1215 NT752 0000224809 Pall Corporation 4050.97 06/05/2019   000022480900000216720001 PDF View
1216 NT752 0000224757 Erie Renewables Inc 9724.20 06/04/2019   000022475700000213140001 PDF View
1217 NT752 0000224496 Parker Executive Search LLC 79200.00 06/04/2019 TAMU C5535785 000022449600000163280001 PDF View
1218 NT752 0000224760 Minott,Agustus 4000.00 06/04/2019   000022476000000216450001 PDF View
1219 NT752 0000224765 Shannon,Sherry 300.00 06/04/2019   000022476500000211830001 PDF View
1220 NT752 0000224517 Spelman&Johnson Group 49262.01 06/04/2019 RFP769-15-0827-CC 000022451700000696840002 PDF View
1221 NT752 0000224758 BKM Total Office of Texas LLC 8716.50 06/04/2019 584-19 000022475800000006630001 PDF View
1222 NT752 0000224774 Smith Leadership LLC 3600.00 06/04/2019   000022477400000680820001 PDF View
1223 NT752 0000224539 Sophos Marketing LLC 798.00 06/03/2019   000022453900000195470001 PDF View
1224 NT752 0000224710 Thornton Tomasetti Inc 4950.00 05/31/2019   000022471000000216180001 PDF View
1225 NT752 0000224683 Cummins-Allison Corp 434.00 05/31/2019   000022468300000018780001 PDF View
1226 NT752 0000224232 Entech Sales & Service Inc 105690.00 05/31/2019 558-18 000022423200000021920001 PDF View
1227 NT752 0000224650 Entech Sales & Service Inc 3290.00 05/30/2019   000022465000000021920001 PDF View
1228 NT752 0000224680 Non-Typical Properties LLC 50166.64 05/30/2019   000022468000000128540002 PDF View
1229 NT752 0000224642 DFW Drape and Lighting 16925.00 05/30/2019   000022464200000113830001 PDF View
1230 NT752 0000224632 Lantek Audio Video&Communications LLC 61644.89 05/30/2019 171001 000022463200000127440001 PDF View
1231 NT752 0000224658 Fisher Scientific 218.10 05/30/2019   000022465800000015080002 PDF View
1232 NT752 0000224663 Brown,Kathy J 1000.00 05/30/2019   000022466300000216040001 PDF View
1233 NT752 0000224689 Edward Don and Company LLC 660.72 05/30/2019   000022468900000019750001 PDF View
1234 NT752 0000224649 Parks Coffee 7400.02 05/30/2019   000022464900000050100001 PDF View
1235 NT752 0000224634 JAGOE PUBLIC COMPANY 118.56 05/30/2019   000022463400000043320001 PDF View
1236 NT752 0000224668 Ben E Keith Company 650.00 05/30/2019   000022466800000042770001 PDF View
1237 NT752 0000224624 Zymo Research Corp 221.19 05/30/2019   000022462400000394640001 PDF View
1238 NT752 0000224629 Live Systems LLC 400.00 05/30/2019   000022462900000677900001 PDF View
1239 NT752 0000224606 Apple Computer Inc 1880.00 05/29/2019 DIR-TSO-3789 000022460600000067150001 PDF View
1240 NT752 0000224596 Apple Computer Inc 1970.00 05/29/2019 DIR-TSO-3789 000022459600000067150001 PDF View
1241 NT752 0000224536 Smartlite 450.00 05/29/2019   000022453600000189840001 PDF View
1242 NT752 0000220056 Abenity Inc 2000.00 05/29/2019 5K 000022005600000193160001 PDF View
1243 NT752 0000223710 National Pharmaceutical Returns Inc 600.00 05/29/2019   000022371000000211050001 PDF View
1244 NT752 0000224552 Great Southwestern Fire&Safety 1026.00 05/28/2019   000022455200000048530001 PDF View
1245 NT752 0000224489 Intelligent Interiors Inc 676.82 05/28/2019   000022448900000230430001 PDF View
1246 NT752 0000224553 Great Southwestern Fire&Safety 4018.00 05/28/2019   000022455300000048530002 PDF View
1247 NT752 0000224510 Intelligent Interiors Inc 2714.50 05/28/2019   000022451000000230430001 PDF View
1248 NT752 0000224541 Admire Entertainment Inc 15400.00 05/24/2019   000022454100000010490001 PDF View
1249 NT752 0000224255 Live Systems LLC 21738.00 05/23/2019 181101 000022425500000677900002 PDF View
1250 NT752 0000224398 ERC Environmental Consultants Inc 27249.00 05/23/2019 15/041JN-06 000022439800000440850002 PDF View
1251 NT752 0000224497 Smith Leadership LLC 3600.00 05/23/2019   000022449700000680820001 PDF View
1252 NT752 0000224501 Blue Griffin Recording Inc 4000.00 05/23/2019   000022450100000167500001 PDF View
1253 NT752 0000224276 Slingshot LLC 225000.00 05/22/2019 RFP769-19-102918-JD 000022427600000185750001 PDF View
1254 NT752 0000224399 Entech Sales & Service Inc 5155.00 05/22/2019 558-18 000022439900000021920001 PDF View
1255 NT752 0000224435 Vac-Tec Inc 3770.00 05/22/2019   000022443500000051520001 PDF View
1256 NT752 0000224459 Connelly-3-Publishing Group Inc 807.31 05/22/2019   000022445900000289780001 PDF View
1257 NT752 0000224445 Versa Press Inc 3631.46 05/22/2019   000022444500000199890002 PDF View
1258 NT752 0000224321 Robert Half Accountemps 15248.80 05/22/2019 TSO6-17 000022432100000156180001 PDF View
1259 NT752 0000224229 Great Southwestern Fire&Safety 7197.00 05/22/2019 RFP752-19-913-DH 000022422900000048530001 PDF View
1260 NT752 0000224406 Attenborough,Stephen R 26391.30 05/21/2019   000022440600000204940002 PDF View
1261 NT752 0000224015 Embassy Suites by Hilton Denton Conv Ctr 55800.00 05/21/2019   000022401500000125440001 PDF View
1262 NT752 0000224409 Texas Nautical Repair LLC 5950.00 05/21/2019   000022440900000076100001 PDF View
1263 NT752 0000224322 Terrell Painting & Wallcovering 24650.00 05/21/2019 170201 000022432200000240500001 PDF View
1264 NT752 0000224404 Gill Digital Services LLC 3178.30 05/21/2019   000022440400000052100001 PDF View
1265 NT752 0000224400 Clifford Power Systems Inc 16365.00 05/21/2019 170201 000022440000000036230001 PDF View
1266 NT752 0000224376 Texas Entertainment Group 995.00 05/20/2019   000022437600000688380001 PDF View
1267 NT752 0000224311 Chick-Fil-A Inc 1000.00 05/20/2019   000022431100000531370001 PDF View
1268 NT752 0000224310 HOBART 2487.67 05/20/2019   000022431000000019600001 PDF View
1269 NT752 0000224296 Konica Minolta Business Solutions USA 2537.40 05/20/2019   000022429600000214670002 PDF View
1270 NT752 0000224331 Crystal Clear Sound 1280.00 05/20/2019   000022433100000052230001 PDF View
1271 NT752 0000224279 Reliant Transportation Inc 581.17 05/20/2019   000022427900000200750001 PDF View
1272 NT752 0000224230 Humphrey & Associates Inc 37470.00 05/20/2019   000022423000000039080002 PDF View
1273 NT752 0000224274 Smart Elements Gmbh 671.00 05/17/2019   000022427400000211940002 PDF View
1274 NT752 0000224320 Berger Transfer and  Storage 9280.00 05/17/2019 CNR01259 000022432000000156370001 PDF View
1275 NT752 0000224315 Edward Don and Company LLC 743.27 05/17/2019   000022431500000019750001 PDF View
1276 NT752 0000224305 Oracle America Inc 46014.09 05/17/2019 RFP752-14-160440PB 000022430500000497680001 PDF View
1277 NT752 0000224324 NIKON INSTRUMENTS, INC 30970.18 05/17/2019 IFB752-19-230879-DB 000022432400000007680002 PDF View
1278 NT752 0000224294 Summus Dell Products 906.99 05/17/2019 DIR-TSO-3763 000022429400000062270001 PDF View
1279 NT752 0000224306 Trane US Inc 2140.00 05/17/2019   000022430600000016150001 PDF View
1280 NT752 0000223561 Nelson +  Morgan Architects Inc 18290.00 05/17/2019 RFP769-17-890ER 000022356100000018280001 PDF View
1281 NT752 0000224297 Newchef Fashion Inc 13914.97 05/17/2019   000022429700000196530001 PDF View
1282 NT752 0000224309 West Marine Products Inc 2677.49 05/17/2019   000022430900000213940001 PDF View
1283 NT752 0000224261 CoolStuff 2560.00 05/16/2019   000022426100000232520001 PDF View
1284 NT752 0000224262 Nelnet Business Solutions Inc 600.00 05/16/2019   000022426200000315680001 PDF View
1285 NT752 0000224248 Pearson Education Inc 2847.47 05/16/2019   000022424800000012560001 PDF View
1286 NT752 0000224249 Cengage Learning 1963.23 05/16/2019   000022424900000347040001 PDF View
1287 NT752 0000224258 QIAGEN INC 80.62 05/16/2019   000022425800000069580001 PDF View
1288 NT752 0000224270 Warehouse Rack Company 5225.00 05/16/2019   000022427000000061900001 PDF View
1289 NT752 0000224194 Embassy Suites by Hilton Denton Conv Ctr 2984.33 05/15/2019   000022419400000125440001 PDF View
1290 NT752 0000224161 John Deere Company 10156.01 05/15/2019 529-17 000022416100000680260001 PDF View
1291 NT752 0000224231 Summus Dell Products 10303.19 05/15/2019 DIR-TSO-3763 000022423100000062270001 PDF View
1292 NT752 0000224237 Custom Faberkin Inc 1126.72 05/15/2019   000022423700000212690001 PDF View
1293 NT752 0000224205 City of Denton 4000.00 05/15/2019   000022420500000060180001 PDF View
1294 NT752 0000224117 G L Seaman & Company 8222.58 05/15/2019   000022411700000473790001 PDF View
1295 NT752 0000224240 Kirkegaard Associates 77970.00 05/15/2019   000022424000000212670001 PDF View
1296 NT752 0000224223 Cole-Parmer Instrument Co 3476.09 05/15/2019   000022422300000020050001 PDF View
1297 NT752 0000224227 Hilton Anatole Hotel 6875.00 05/15/2019   000022422700000327940001 PDF View
1298 NT752 0000224118 JP Morgan Chase Bank, National Assoc 6450.00 05/14/2019   000022411800000742120001 PDF View
1299 NT752 0000223997 Jones Lang LaSalle Americas Inc 54500.00 05/14/2019 RFQ769-17-888ER 000022399700000061600002 PDF View
1300 NT752 0000224055 Houston ISD 33454.40 05/14/2019   000022405500000042220001 PDF View
1301 NT752 0000224187 M&M Label Printing System 2060.57 05/14/2019   000022418700000617240001 PDF View
1302 NT752 0000223966 Community Impact Newspaper 11201.75 05/13/2019   000022396600000145700001 PDF View
1303 NT752 0000224109 Wilson Project Management LLC 2398.00 05/13/2019   000022410900000420130001 PDF View
1304 NT752 0000224111 Memnon Archiving Services Inc 19340.00 05/13/2019   000022411100000212770002 PDF View
1305 NT752 0000224152 Hannah's Off The Square 400.00 05/13/2019   000022415200000059540001 PDF View
1306 NT752 0000223775 Bridgeport Camp and Conference Center 4950.00 05/13/2019   000022377500000533170001 PDF View
1307 NT752 0000223622 Mayse&Associates Inc 66670.00 05/10/2019   000022362200000210040002 PDF View
1308 NT752 0000224027 Carl Zeiss Microscopy LLC 4740.00 05/10/2019   000022402700000010880001 PDF View
1309 NT752 0000222532 National Instruments Corporation 1128.60 05/10/2019   000022253200000039010001 PDF View
1310 NT752 0000224038 Washington Speakers Bureau 60000.00 05/09/2019   000022403800000031350001 PDF View
1311 NT752 0000223900 Sand Trap Processing of Fort Worth LLC 3260.00 05/09/2019   000022390000000188070001 PDF View
1312 NT752 0000224028 Restoration Specialist LLC 5000.00 05/09/2019   000022402800000330700001 PDF View
1313 NT752 0000224035 SKC Communications Products LLC 7362.45 05/09/2019 CNR01317 000022403500000343590002 PDF View
1314 NT752 0000224039 Fish N Chirps Pet Center 99.00 05/09/2019   000022403900000058060001 PDF View
1315 NT752 0000224025 Restoration Specialist LLC 5000.00 05/09/2019   000022402500000330700001 PDF View
1316 NT752 0000224004 PhytoTech Labs Inc 105.76 05/09/2019   000022400400000026900001 PDF View
1317 NT752 0000223895 Allied Van Lines 5600.00 05/09/2019   000022389500000019440001 PDF View
1318 NT752 0000223638 Intercon Environmental Inc 84150.00 05/08/2019 RFP769-18-878ER 000022363800000168310001 PDF View
1319 NT752 0000223967 Cici's Pizza 500.00 05/08/2019   000022396700000378230001 PDF View
1320 NT752 0000223947 Restoration Specialist LLC 3192.48 05/07/2019   000022394700000330700001 PDF View
1321 NT752 0000223952 Hannah's Off The Square 400.00 05/07/2019   000022395200000059540001 PDF View
1322 NT752 0000223831 Tribute Ventures LLC 16000.00 05/07/2019   000022383100000211330001 PDF View
1323 NT752 0000223946 Ensolum LLC 50101.87 05/07/2019 RFP769-18-905ER 000022394600000142380001 PDF View
1324 NT752 0000223974 Apple Computer Inc 3630.00 05/07/2019   000022397400000067150002 PDF View
1325 NT752 0000223905 PRAXAIR 369.95 05/06/2019   000022390500000006610001 PDF View
1326 NT752 0000223913 Evans & Sutherland 2200.00 05/06/2019   000022391300000065030001 PDF View
1327 NT752 0000223941 Barnes&Noble College Booksellers LLC 3200.00 05/06/2019   000022394100000654410001 PDF View
1328 NT752 0000223833 Clarke,Mackenzie 5000.00 05/03/2019   000022383300000210800001 PDF View
1329 NT752 0000223883 Ricoh USA 2408.50 05/03/2019 TSO3041 000022388300000612410001 PDF View
1330 NT752 0000223871 BC Commercial 1273353.45 05/03/2019 RFCSP 752-19-226521DH 000022387100000162010003 PDF View
1331 NT752 0000223859 Live Systems LLC 175.00 05/03/2019   000022385900000677900001 PDF View
1332 NT752 0000223817 Oakridge Landscape&Irrigation 21041.21 05/02/2019 RFP752-18-205410-MM 000022381700000108690002 PDF View
1333 NT752 0000223807 CBS Mechanical Inc 5000.00 05/02/2019   000022380700000045950001 PDF View
1334 NT752 0000223806 Esensors  Inc. 265.00 05/02/2019   000022380600000378000001 PDF View
1335 NT752 0000223706 SHI Government Solutions Inc 671.00 05/01/2019 DIR-TSO-4159 000022370600000013900001 PDF View
1336 NT752 0000215402 ThyssenKrupp Elevator Corp 2200.00 05/01/2019 R150801 000021540200000034670001 PDF View
1337 NT752 0000223776 Valente,Laura 24990.00 05/01/2019   000022377600000110350001 PDF View
1338 NT752 0000223279 Core Construction Services of Texas Inc 1992122.78 05/01/2019 CNR01441 000022327900000526330001 PDF View
1339 NT752 0000223759 2x2 Media LLC 2250.00 05/01/2019   000022375900000162570001 PDF View
1340 NT752 0000222993 DMI Corp 2458757.78 04/30/2019 RFCSP752-19-226515DH 000022299300000194870007 PDF View
1341 NT752 0000223761 Discount Trophies etc 76.50 04/30/2019   000022376100000050870001 PDF View
1342 NT752 0000223535 Metro Golf Cars Inc 2610.00 04/30/2019   000022353500000044740001 PDF View
1343 NT752 0000223749 Igodan,Yvonne 100.00 04/30/2019   000022374900000199080001 PDF View
1344 NT752 0000223731 DWK Life Sciences LLC 881.10 04/30/2019   000022373100000210980001 PDF View
1345 NT752 0000223669 EMD Millipore Corp 916.08 04/29/2019   000022366900000004390001 PDF View
1346 NT752 0000223634 BKM Total Office of Texas LLC 323.86 04/29/2019   000022363400000006630001 PDF View
1347 NT752 0000223628 Campos Engineering Inc 2791.00 04/29/2019   000022362800000048750001 PDF View
1348 NT752 0000223460 Camp Copass 10575.00 04/29/2019   000022346000000358970001 PDF View
1349 NT752 0000223637 PRAXAIR 45.15 04/29/2019   000022363700000006610001 PDF View
1350 NT752 0000223701 EMC Corporation 698996.06 04/29/2019 DIR-TSO-4299 000022370100000232250005 PDF View
1351 NT752 0000223426 Camp Copass 3273.00 04/29/2019   000022342600000358970001 PDF View
1352 NT752 0000223601 ISI Commercial Refrigeration 475.00 04/26/2019   000022360100000053690001 PDF View
1353 NT752 0000223598 PublicIdentity Inc 3061.29 04/26/2019   000022359800000070160001 PDF View
1354 NT752 0000223557 Decker Mechanical 11362.00 04/25/2019 TXMAS-18-03FAC05 000022355700000385920001 PDF View
1355 NT752 0000222796 Brandt Companies LLC 532795.00 04/25/2019 558-18 000022279600000592420002 PDF View
1356 NT752 0000223567 All-Tech Fuel Systems 442566.00 04/25/2019 RFCSP752-19-224765DH 000022356700000203530003 PDF View
1357 NT752 0000222016 Pacheco Koch Consulting Engineers 54020.00 04/25/2019 RFQ769-15-841ER 000022201600000051970001 PDF View
1358 NT752 0000222795 Decker Mechanical 438910.00 04/25/2019 TXMAS 18-03FAC05 000022279500000385920001 PDF View
1359 NT752 0000223587 U-Haul Corporation 400.00 04/25/2019   000022358700000045010001 PDF View
1360 NT752 0000223527 Iowa State University 3624.20 04/24/2019   000022352700000050510001 PDF View
1361 NT752 0000223367 Embassy Suites by Hilton Denton Conv Ctr 9345.01 04/24/2019   000022336700000125440003 PDF View
1362 NT752 0000223260 Konica Minolta Business Solutions USA 2815.30 04/24/2019 3812FMV 000022326000000214670001 PDF View
1363 NT752 0000223548 EdFinancial Services LLC 199150.00 04/24/2019 RFP752-15-1217-CC 000022354800000156460001 PDF View
1364 NT752 0000223537 Kudelski Security Inc 1810.49 04/24/2019 DIR-TSO-4240 000022353700000108810001 PDF View
1365 NT752 0000223430 Raum,Martin 784.73 04/23/2019   000022343000000207660001 PDF View
1366 NT752 0000223455 Ricoh USA 49.70 04/23/2019   000022345500000612410001 PDF View
1367 NT752 0000223488 Thermo Fisher Scientific Chemicals Inc 81.50 04/23/2019   000022348800000166050001 PDF View
1368 NT752 0000223415 Phoenix Office Technology Services LLC 15059.29 04/23/2019   000022341500000209160001 PDF View
1369 NT752 0000222944 CHW Productions LLC 3300.00 04/23/2019 5K 000022294400000179840001 PDF View
1370 NT752 0000223450 Lone Star Protection and Security LLC 150.00 04/23/2019   000022345000000187330001 PDF View
1371 NT752 0000223465 Peak Up Time 7125.00 04/23/2019   000022346500000720080001 PDF View
1372 NT752 0000223421 PRAXAIR 135.35 04/23/2019   000022342100000006610001 PDF View
1373 NT752 0000223429 Aramark Uniform Services Inc 4000.00 04/23/2019   000022342900000069040001 PDF View
1374 NT752 0000223454 Pronto Staffing CLB Inc 2800.00 04/23/2019   000022345400000744390001 PDF View
1375 NT752 0000223422 Fisher Scientific 915.54 04/23/2019 4914 000022342200000015080001 PDF View
1376 NT752 0000223435 Unified Fine Arts Services LLC 3216.00 04/23/2019   000022343500000344130001 PDF View
1377 NT752 0000223082 Great Southwestern Fire&Safety 120967.65 04/23/2019 RFP752-19-913DH 000022308200000048530001 PDF View
1378 NT752 0000223439 Dynamic DrinkWare 9550.00 04/23/2019   000022343900000024890001 PDF View
1379 NT752 0000223434 5 Star Rental 1680.00 04/22/2019   000022343400000589700001 PDF View
1380 NT752 0000223393 Airgas USA LLC 98.25 04/22/2019   000022339300000622280001 PDF View
1381 NT752 0000222988 Brown Reynolds Watford Architects Inc 268640.00 04/22/2019 769-17-890ER 000022298800000066180001 PDF View
1382 NT752 0000223416 Berger Transfer and  Storage 18501.00 04/22/2019 CNR01259 000022341600000156370001 PDF View
1383 NT752 0000222803 Texas Air Systems Inc 749501.00 04/19/2019 18010101 000022280300000050710001 PDF View
1384 NT752 0000222656 Wiss, Janney, Elstner Associates Inc 85900.00 04/19/2019 769-15-839ER 000022265600000205040014 PDF View
1385 NT752 0000223172 CBS Mechanical Inc 14000.00 04/19/2019 558-18 000022317200000045950001 PDF View
1386 NT752 0000223222 Redman Pipe Organs 15000.00 04/18/2019   000022322200000555190001 PDF View
1387 NT752 0000223156 Classic Landscapes&Maintenance Inc 45417.64 04/17/2019 752-18-205410MM 000022315600000145250002 PDF View
1388 NT752 0000223107 DataBank IMX LLC 24966.94 04/17/2019 SMARTBUY CCG 920-C 000022310700000339050001 PDF View
1389 NT752 0000223202 Ricoh USA 1695.49 04/17/2019 TSO-3041 000022320200000612410001 PDF View
1390 NT752 0000223206 M&M Label Printing System 5848.64 04/17/2019   000022320600000617240001 PDF View
1391 NT752 0000223209 Ricoh USA 1220.56 04/17/2019 TSO-3041 000022320900000612410003 PDF View
1392 NT752 0000223207 Ricoh USA 948.78 04/17/2019 TSO-3041 000022320700000612410003 PDF View
1393 NT752 0000223227 Summus Dell Products 30000.00 04/17/2019   000022322700000062270001 PDF View
1394 NT752 0000222833 Wiss, Janney, Elstner Associates Inc 75390.00 04/17/2019 RFQ769-15-839ER 000022283300000205040001 PDF View
1395 NT752 0000223165 Sedia Systems Inc 80548.80 04/17/2019 584-19 000022316500000106550002 PDF View
1396 NT752 0000223198 Briggs Equipment Inc 53784.40 04/17/2019 515-16 000022319800000208100001 PDF View
1397 NT752 0000223134 Nelnet Business Solutions Inc 75.00 04/16/2019   000022313400000315680001 PDF View
1398 NT752 0000223174 AconityUS Inc 2496.00 04/16/2019   000022317400000206620001 PDF View
1399 NT752 0000223122 Vac-Tec Inc 3150.00 04/16/2019   000022312200000051520001 PDF View
1400 NT752 0000223177 Airgas USA LLC 4.03 04/16/2019   000022317700000622280001 PDF View
1401 NT752 0000222185 Lantek Audio Video&Communications LLC 383585.59 04/16/2019 171001 000022218500000127440002 PDF View
1402 NT752 0000223182 Stuart Krichevsky Literary Agency Inc 650.00 04/16/2019   000022318200000052960001 PDF View
1403 NT752 0000223160 Tenly Landscape Construction Inc 2570.78 04/16/2019 752-18-205410-MM 000022316000000151480001 PDF View
1404 NT752 0000223078 Oakridge Landscape&Irrigation 7942.50 04/15/2019 752-18-205410-MM 000022307800000108690001 PDF View
1405 NT752 0000223084 NOVA Healthcare/Medical Centers 730.48 04/15/2019   000022308400000143860001 PDF View
1406 NT752 0000223072 Goodfellow Corporation 930.00 04/15/2019   000022307200000196100001 PDF View
1407 NT752 0000223080 Sigma-Aldrich Inc 123.20 04/15/2019   000022308000000025800001 PDF View
1408 NT752 0000223099 Davidsen,Pal Ingebrigt 1370.00 04/15/2019   000022309900000206920001 PDF View
1409 NT752 0000223070 Hannah's Off The Square 555.00 04/15/2019   000022307000000059540002 PDF View
1410 NT752 0000223026 EMD Millipore Corp 528.00 04/12/2019   000022302600000004390001 PDF View
1411 NT752 0000215504 Entech Sales & Service Inc 150000.00 04/12/2019 558-18 000021550400000021920002 PDF View
1412 NT752 0000222957 Wild West History Association 600.00 04/11/2019 5K 000022295700000363200001 PDF View
1413 NT752 0000222951 Videotex Systems Inc 868.99 04/11/2019   000022295100000049280002 PDF View
1414 NT752 0000222481 HVJ North Texas Chelliah Consultants Inc 19695.00 04/11/2019 RFQ769-15-852ER 000022248100000067990001 PDF View
1415 NT752 0000222896 Irving ISD 25091.00 04/10/2019 SUB 000022289600000060640001 PDF View
1416 NT752 0000222908 Southern Illinois University 2465.00 04/10/2019 5K 000022290800000021320001 PDF View
1417 NT752 0000222838 Jay Dean Winchester LLC 475.00 04/09/2019 5K 000022283800000638860001 PDF View
1418 NT752 0000222853 GREENHOUSE RESTAURANT 1600.00 04/09/2019 5K 000022285300000057410001 PDF View
1419 NT752 0000222881 Fisher Interpreting LLC 150000.00 04/09/2019 RFP752-19-020119-DB 000022288100000748490001 PDF View
1420 NT752 0000222861 Absolute Service Inc 500.00 04/09/2019 5K 000022286100000182860001 PDF View
1421 NT752 0000222860 EAZ Solution Inc 327.40 04/09/2019 5K 000022286000000734550004 PDF View
1422 NT752 0000222800 Apex TITAN Inc 2111.60 04/09/2019 5K 000022280000000690000001 PDF View
1423 NT752 0000222716 Lone Star Parking Hospitality LLC 1520.00 04/08/2019 5K 000022271600000173060001 PDF View
1424 NT752 0000222683 Konica Minolta Business Solutions USA 655.12 04/08/2019 UTSSCA PO199770 &PO 000022268300000214670001 PDF View
1425 NT752 0000222844 Jay Dean Winchester LLC 855.00 04/08/2019   000022284400000638860001 PDF View
1426 NT752 0000222703 Thomas Scientific LLC 414.73 04/05/2019 5K 000022270300000658680001 PDF View
1427 NT752 0000222721 Rivero,Lisa M 1132.00 04/05/2019 ATF 000022272100000170560001 PDF View
1428 NT752 0000222654 ERC Environmental Consultants Inc 4540.00 04/05/2019 5K 000022265400000440850001 PDF View
1429 NT752 0000222678 Sigma-Aldrich Inc 1333.00 04/05/2019 5K 000022267800000025800001 PDF View
1430 NT752 0000222702 Clean Harbors Environmental Services Inc 15000.00 04/05/2019 EMERG 000022270200000004930001 PDF View
1431 NT752 0000222554 Konica Minolta Business Solutions USA 635.77 04/05/2019 UTSSCA 000022255400000214670001 PDF View
1432 NT752 0000222635 Painted Flower Farm Inc 24999.00 04/04/2019 BIDS 000022263500000204400001 PDF View
1433 NT752 0000222536 Fisher Scientific 329.42 04/04/2019 UTSSCA4914 000022253600000015080001 PDF View
1434 NT752 0000222593 BKM Total Office of Texas LLC 54391.93 04/04/2019 E&I CNR01146 000022259300000006630001 PDF View
1435 NT752 0000222590 Fisher Scientific 235.17 04/04/2019 UTSSCA4914 000022259000000015080001 PDF View
1436 NT752 0000222560 V-Prompt 224.00 04/03/2019 5K 000022256000000710120004 PDF View
1437 NT752 0000222587 Denton Record Chronicle 1495.00 04/03/2019 5K 000022258700000043000001 PDF View
1438 NT752 0000222329 Mooney,Shannon 1200.00 04/03/2019 5K 000022232900000184410001 PDF View
1439 NT752 0000222592 Sarstedt Inc 909.84 04/03/2019 5K 000022259200000041700001 PDF View
1440 NT752 0000222534 Parking Systems of America LP 30000.00 04/03/2019 RFP752 19 070218 JD 000022253400000171140001 PDF View
1441 NT752 0000222237 TypeStudio 4000.00 04/02/2019 5K 000022223700000122430001 PDF View
1442 NT752 0000222429 Sigma-Aldrich Inc 277.77 04/02/2019 5K 000022242900000025800002 PDF View
1443 NT752 0000222210 Board of Trustees Michigan State Univ 81396.00 04/02/2019 SUB 000022221000000734780001 PDF View
1444 NT752 0000222468 A Style Limousine Service 201.00 04/02/2019 5K 000022246800000487210001 PDF View
1445 NT752 0000222395 Joe T Garcia's Enterprises Inc 1817.20 04/01/2019 5K 000022239500000047170003 PDF View
1446 NT752 0000222435 Lone Star Protection and Security LLC 150.00 04/01/2019 5K 000022243500000187330001 PDF View
1447 NT752 0000222426 Ft Worth Museum of Science and History 784.00 04/01/2019 5K 000022242600000012310001 PDF View
1448 NT752 0000222451 Smith Leadership LLC 3600.00 04/01/2019 5K 000022245100000680820001 PDF View
1449 NT752 0000222440 University and Student Services Inc 4177.80 04/01/2019 5K 000022244000000151290001 PDF View
1450 NT752 0000222421 University of Illinois 121035.00 04/01/2019 SUB 000022242100000022100001 PDF View
1451 NT752 0000222356 Konica Minolta Business Solutions USA 293.59 03/29/2019 UTSSCA/RPL 167076 000022235600000214670001 PDF View
1452 NT752 0000222394 AJL International 1960.00 03/29/2019 5K 000022239400000089070001 PDF View
1453 NT752 0000222389 Allied Welding Supply 188.00 03/29/2019 5K 000022238900000579500001 PDF View
1454 NT752 0000222358 Dallas ISD 50182.00 03/29/2019 SUB 000022235800000060450001 PDF View
1455 NT752 0000222335 Fisher Scientific 693.84 03/29/2019 5K 000022233500000015080001 PDF View
1456 NT752 0000222393 U-Haul Corporation 130.67 03/29/2019 5K 000022239300000045010001 PDF View
1457 NT752 0000222355 Ensolum LLC 7331.20 03/29/2019 EMERG 000022235500000142380001 PDF View
1458 NT752 0000222170 Pitney Bowes Global Financial Services 775000.00 03/29/2019 SS/PROP 000022217000000316270001 PDF View
1459 NT752 0000222357 Thomas Scientific LLC 32813.98 03/29/2019 SS 000022235700000658680001 PDF View
1460 NT752 0000221957 RedAway LLC 9048.00 03/28/2019 BIDS 000022195700000175060001 PDF View
1461 NT752 0000222298 Superior Fiber & Data Services Inc 450.00 03/28/2019 5K 000022229800000157710001 PDF View
1462 NT752 0000222141 Institute for American Universities 89000.00 03/28/2019   000022214100000202720002 PDF View
1463 NT752 0000222216 Ruibals Plants of Texas Inc 7157.50 03/27/2019 BIDS 000022221600000077610001 PDF View
1464 NT752 0000222271 Medicat LLC 19190.00 03/27/2019 RENEWAL 000022227100000386600002 PDF View
1465 NT752 0000222166 Konica Minolta Business Solutions USA 459.65 03/27/2019 UTSSCA/RPL 178559 000022216600000214670001 PDF View
1466 NT752 0000222230 Starbucks Coffee Company 610323.94 03/27/2019 PROP 000022223000000173910001 PDF View
1467 NT752 0000220460 WRG LLC dba Workplace Resource Group 236129.33 03/27/2019 US COMM 000022046000000007720002 PDF View
1468 NT752 0000222106 Superior Fiber & Data Services Inc 41272.63 03/27/2019 TIPS 000022210600000157710001 PDF View
1469 NT752 0000220624 ThyssenKrupp Elevator Corp 150575.10 03/26/2019 R150801 000022062400000034670003 PDF View
1470 NT752 0000222232 Summus VWR Products 102.30 03/26/2019 DIR 000022223200000102880001 PDF View
1471 NT752 0000222017 Great Southwestern Fire&Safety 88701.48 03/26/2019 RFP 000022201700000048530001 PDF View
1472 NT752 0000222202 Peterbilt Motors Company 4330.72 03/26/2019 5K 000022220200000200350001 PDF View
1473 NT752 0000222201 Earth Kind Services 5424.00 03/26/2019   000022220100000202440001 PDF View
1474 NT752 0000222171 Rose Design 1005.00 03/25/2019 5K 000022217100000074570001 PDF View
1475 NT752 0000222164 PRAXAIR 4000.00 03/25/2019 5K 000022216400000006610001 PDF View
1476 NT752 0000222117 Xerox Corporation 5012.41 03/22/2019 DIR-TSO-3043 000022211700000011780001 PDF View
1477 NT752 0000222103 Econo Cleaners 2000.00 03/22/2019 5K 000022210300000282740001 PDF View
1478 NT752 0000222131 Network Solutions LLC 350.84 03/22/2019 5K 000022213100000104940001 PDF View
1479 NT752 0000222007 Oxford University Press 260.67 03/21/2019 5K 000022200700000015960001 PDF View
1480 NT752 0000222085 Apple Computer Inc 2712.00 03/21/2019 5K 000022208500000067150002 PDF View
1481 NT752 0000221355 Mid-South Fire Solutions LLC 20000.00 03/21/2019 RFP 000022135500000160500001 PDF View
1482 NT752 0000222082 Pearson 443.55 03/21/2019 5K 000022208200000348000001 PDF View
1483 NT752 0000221968 Restoration Specialist LLC 2622.25 03/21/2019 EMERG 000022196800000330700001 PDF View
1484 NT752 0000222077 TargetX 41100.00 03/21/2019   000022207700000369720003 PDF View
1485 NT752 0000221354 Golden Triangle Fire Protection Inc 20000.00 03/21/2019 RFP 000022135400000052010001 PDF View
1486 NT752 0000222068 Case,Julialicia 1000.00 03/21/2019 5K 000022206800000201980001 PDF View
1487 NT752 0000221971 GREATER DENTON ARTS COUNCIL 222.50 03/20/2019 5K 000022197100000045150001 PDF View
1488 NT752 0000220971 Rogers-O'Brien Construction Co Ltd 20162790.00 03/19/2019 RFP 000022097100000145520001 PDF View
1489 NT752 0000221889 PRAXAIR 2000.00 03/18/2019 5K 000022188900000006610001 PDF View
1490 NT752 0000220962 Strategic Technology Partners of Texas 1795.52 03/18/2019   000022096200000167510001 PDF View
1491 NT752 0000221898 Airgas USA LLC 19.76 03/18/2019 5K 000022189800000622280001 PDF View
1492 NT752 0000221869 LTG Associates Inc 2889.11 03/18/2019 5K 000022186900000725890001 PDF View
1493 NT752 0000221874 Sigma-Aldrich Inc 598.50 03/18/2019 5K 000022187400000025800001 PDF View
1494 NT752 0000221842 LMC Corporation 16000.00 03/15/2019 TIPS 000022184200000690920001 PDF View
1495 NT752 0000221766 Pronto Staffing CLB Inc 546.00 03/15/2019 5K 000022176600000744390001 PDF View
1496 NT752 0000221836 CBS Mechanical Inc 10000.00 03/15/2019 EMERG 000022183600000045950001 PDF View
1497 NT752 0000221465 DataBank IMX LLC 20500.00 03/14/2019 TXMAS 000022146500000339050001 PDF View
1498 NT752 0000221824 Fort Worth Club 793.50 03/14/2019 5K 000022182400000013420001 PDF View
1499 NT752 0000221827 Blackboard Inc 10530.50 03/14/2019 SS/PROP 000022182700000029240001 PDF View
1500 NT752 0000221751 Matera Paper Company Ltd 15880.38 03/14/2019 E&I 000022175100000500490001 PDF View
1501 NT752 0000221810 BioWorld 247.13 03/14/2019 5K 000022181000000017160001 PDF View
1502 NT752 0000221742 Sigma-Aldrich Inc 378.11 03/13/2019 5K 000022174200000025800001 PDF View
1503 NT752 0000221385 Parks Coffee 1899.95 03/13/2019 5K 000022138500000050100001 PDF View
1504 NT752 0000221787 Fisher Scientific 362.31 03/13/2019 UTSSCA 000022178700000015080001 PDF View
1505 NT752 0000221764 FreedomPay Inc 500.00 03/12/2019 5K 000022176400000734640001 PDF View
1506 NT752 0000221356 Great Southwestern Fire&Safety 37976.35 03/12/2019 RFP752-19-913DH 000022135600000048530002 PDF View
1507 NT752 0000221320 Ensolum LLC 19535.90 03/12/2019 RFP769-18-905ER 000022132000000142380002 PDF View
1508 NT752 0000221710 CBS Mechanical Inc 8000.00 03/12/2019 EMG 000022171000000045950001 PDF View
1509 NT752 0000221645 Entech Sales & Service Inc 38985.00 03/12/2019 BUYBOARD 000022164500000021920001 PDF View
1510 NT752 0000221353 Firetrol Protection Systems 25000.00 03/12/2019   000022135300000190870001 PDF View
1511 NT752 0000221709 CBS Mechanical Inc 7000.00 03/12/2019 EMG 000022170900000045950001 PDF View
1512 NT752 0000221702 Parts Town LLC 2000.00 03/12/2019 5K 000022170200000712050001 PDF View
1513 NT752 0000221662 Intelligent Interiors Inc 23755.44 03/11/2019 4400003403 000022166200000230430002 PDF View
1514 NT752 0000221706 Summus Dell Products 39.99 03/11/2019 DIR 000022170600000062270001 PDF View
1515 NT752 0000221700 Sheridan Books Inc 4652.00 03/11/2019 5K 000022170000000006850001 PDF View
1516 NT752 0000221644 Entech Sales & Service Inc 12000.00 03/08/2019 EMER 000022164400000021920001 PDF View
1517 NT752 0000221665 TM Television 65229.24 03/08/2019 BUYBOARD 000022166500000345780001 PDF View
1518 NT752 0000221640 Ensolum LLC 3290.80 03/08/2019 5K 000022164000000142380001 PDF View
1519 NT752 0000221671 SIx Flags Over Texas 12464.00 03/08/2019 EXEMPT 000022167100000020750001 PDF View
1520 NT752 0000221688 Huron Consulting Group LLC 42975.50 03/08/2019 ATF 000022168800000415790001 PDF View
1521 NT752 0000221680 Entech Sales & Service Inc 26040.00 03/08/2019   000022168000000021920002 PDF View
1522 NT752 0000221656 Ensolum LLC 4650.40 03/08/2019 5K 000022165600000142380001 PDF View
1523 NT752 0000221556 Avanti Polar Lipids 165.70 03/07/2019 5K 000022155600000222870001 PDF View
1524 NT752 0000221604 Intelligent Interiors Inc 856.80 03/07/2019 US COMM 000022160400000230430001 PDF View
1525 NT752 0000221608 Markertek Video Supply 3498.20 03/07/2019 5K 000022160800000011570001 PDF View
1526 NT752 0000221591 Office Team 13778.44 03/07/2019 HGAC 000022159100000625720002 PDF View
1527 NT752 0000221242 Konica Minolta Business Solutions USA 1109.70 03/07/2019 UTSSCA/RPL 6202 000022124200000214670005 PDF View
1528 NT752 0000221558 Research Products International 580.43 03/07/2019 5K 000022155800000031610001 PDF View
1529 NT752 0000221417 Yaggi Engineering Inc 4970.00 03/07/2019 RFQ 000022141700000325090001 PDF View
1530 NT752 0000221469 First United Methodist Church 1000.00 03/07/2019 5K 000022146900000218990001 PDF View
1531 NT752 0000221425 Edward Don and Company LLC 1563.73 03/07/2019 BUYBOARD 000022142500000019750001 PDF View
1532 NT752 0000220989 Stonebriar Community Church 2750.00 03/06/2019 5K 000022098900000197600001 PDF View
1533 NT752 0000221516 MSC Industrial Supply 1000.00 03/06/2019 5K 000022151600000007390001 PDF View
1534 NT752 0000221546 Copynet Office Systems Inc 765.00 03/06/2019   000022154600000360460001 PDF View
1535 NT752 0000221506 Schneider Electric dba SEBA 21138.00 03/06/2019 TIPS 000022150600000474020001 PDF View
1536 NT752 0000221463 A Style Limousine Service 195.50 03/05/2019 5K 000022146300000487210001 PDF View
1537 NT752 0000221461 Mistral Inc 153.24 03/05/2019 5K 000022146100000199840001 PDF View
1538 NT752 0000221213 Intercon Environmental Inc 105570.00 03/05/2019 RFP769-18-878ER 000022121300000168310002 PDF View
1539 NT752 0000221351 Total Fire & Safety Inc 20000.00 03/05/2019 RFP769-18-905ER 000022135100000250760001 PDF View
1540 NT752 0000221202 Rev.com Inc 4200.00 03/05/2019 5K 000022120200000106560002 PDF View
1541 NT752 0000221387 Apple Computer Inc 1250.00 03/04/2019 DIR 000022138700000067150003 PDF View
1542 NT752 0000221390 Sheridan Books Inc 4335.00 03/04/2019 5K 000022139000000006850001 PDF View
1543 NT752 0000221388 Lone Star Protection and Security LLC 300.00 03/04/2019 5K 000022138800000187330001 PDF View
1544 NT752 0000220964 Alpha Building Corporation 28664.00 03/01/2019 CNR01440 000022096400000298520002 PDF View
1545 NT752 0000221307 MID-Continental Restoration Company 421010.16 03/01/2019 CHOICE 000022130700000026560001 PDF View
1546 NT752 0000221372 Medicat LLC 4676.00 03/01/2019 RENEWAL 000022137200000386600001 PDF View
1547 NT752 0000221077 Elm Restaurant Group-Austin Catering 6235.36 02/28/2019 EXEMPT 000022107700000197880001 PDF View
1548 NT752 0000221277 Genuent USA 44400.00 02/27/2019 HGAC 000022127700000703180001 PDF View
1549 NT752 0000221252 Tom White Studios Inc 197653.00 02/27/2019 EXEMPT 000022125200000181330001 PDF View
1550 NT752 0000221270 Genuent USA 41440.00 02/27/2019 HGAC 000022127000000703180001 PDF View
1551 NT752 0000221290 Branch,Franklin Taylor 950.00 02/27/2019 5K 000022129000000199010001 PDF View
1552 NT752 0000221279 Denton Trophy House LLC 27.00 02/27/2019 5K 000022127900000085850001 PDF View
1553 NT752 0000221227 Superior Fiber & Data Services Inc 2290.58 02/26/2019 5K 000022122700000157710002 PDF View
1554 NT752 0000221236 EJ Ward Inc 405.00 02/26/2019 5K 000022123600000669860001 PDF View
1555 NT752 0000221247 Unified Fine Arts Services LLC 4975.00 02/26/2019 5K 000022124700000344130001 PDF View
1556 NT752 0000220959 Strategic Technology Partners of Texas 789.00 02/26/2019 DIR 000022095900000167510001 PDF View
1557 NT752 0000221216 James Wood Autopark Inc 3721.76 02/26/2019 5K 000022121600000052410001 PDF View
1558 NT752 0000221158 Sigma-Aldrich Inc 535.60 02/25/2019 5K 000022115800000025800002 PDF View
1559 NT752 0000221066 MDPI AG 1349.05 02/25/2019 5K 000022106600000145150001 PDF View
1560 NT752 0000221209 Henry Schein Inc 5000.00 02/25/2019 INTRALERE 000022120900000007480001 PDF View
1561 NT752 0000221091 CBS Mechanical Inc 7000.00 02/25/2019 EMG 000022109100000045950001 PDF View
1562 NT752 0000221107 Nouveau Technology Services LP 55685.21 02/25/2019 CNR01444 000022110700000180800002 PDF View
1563 NT752 0000221098 Wellness Pointe 6691.00 02/22/2019 SUB 000022109800000672860001 PDF View
1564 NT752 0000220996 STA Travel Inc 1353.93 02/22/2019 5K 000022099600000009900001 PDF View
1565 NT752 0000220530 TreanorHL P.A. 81300.00 02/22/2019 RFQ 000022053000000175230012 PDF View
1566 NT752 0000220898 Schneider Electric USA Inc 24033.00 02/21/2019 TIPS 000022089800000020140001 PDF View
1567 NT752 0000220862 Carnegie Dartlet LLC 34000.00 02/21/2019 RFP 769-18-0511MA 000022086200000170180002 PDF View
1568 NT752 0000221061 Restoration Specialist LLC 20000.00 02/21/2019 EMERG 000022106100000330700001 PDF View
1569 NT752 0000221047 Robles,Jannell 672.73 02/21/2019 5K 000022104700000198430003 PDF View
1570 NT752 0000220833 Centennial Moisture Control Inc 354779.00 02/21/2019 CHOICE 000022083300000676690001 PDF View
1571 NT752 0000221058 Terrell Painting & Wallcovering 31085.00 02/21/2019 170201 000022105800000240500004 PDF View
1572 NT752 0000221005 Washington State University 40193.00 02/20/2019   000022100500000066320001 PDF View
1573 NT752 0000221006 Fairway Supply Inc 13967.50 02/20/2019 BUYBOARD 000022100600000047370003 PDF View
1574 NT752 0000220621 Weatherproofing Services 224115.00 02/20/2019 CHOICE 000022062100000364850001 PDF View
1575 NT752 0000220976 Alexander Tent Rentals 785.00 02/20/2019 5K 000022097600000053190001 PDF View
1576 NT752 0000220911 Rigaku Americas Corp 11970.00 02/19/2019 SS 000022091100000353870003 PDF View
1577 NT752 0000220774 Konica Minolta Business Solutions USA 853.71 02/19/2019 UTSSCA 000022077400000214670001 PDF View
1578 NT752 0000220925 Townsend Press 616.50 02/19/2019 5K 000022092500000013180001 PDF View
1579 NT752 0000220838 GREENHOUSE RESTAURANT 600.00 02/19/2019 5K 000022083800000057410001 PDF View
1580 NT752 0000220795 Amistad Contracting & Service Company 70000.00 02/19/2019 RFP 000022079500000026130001 PDF View
1581 NT752 0000220931 McGraw-Hill Companies 347.98 02/19/2019 5K 000022093100000008070001 PDF View
1582 NT752 0000220918 G Schirmer Inc 935.00 02/19/2019 5K 000022091800000008180001 PDF View
1583 NT752 0000220921 Pearson Education Inc 3257.82 02/19/2019 5K 000022092100000012560001 PDF View
1584 NT752 0000220902 Hybrid Manufacturing Technologies 537806.36 02/18/2019 SS 000022090200000196970002 PDF View
1585 NT752 0000220657 BranchPattern Inc dba M E Group Inc 28308.00 02/18/2019 RFQ 000022065700000597720001 PDF View
1586 NT752 0000220865 National Council on Rehabilitation 175.00 02/18/2019 5K 000022086500000138480001 PDF View
1587 NT752 0000220836 TCI AMERICA 252.00 02/18/2019 5K 000022083600000066470001 PDF View
1588 NT752 0000220773 Konica Minolta Business Solutions USA 956.01 02/15/2019 UTSSCA 000022077300000214670001 PDF View
1589 NT752 0000220790 Kwik Kar Denton Rayzor Ranch 700.00 02/15/2019 5K 000022079000000194350001 PDF View
1590 NT752 0000220835 Formlabs 301.00 02/15/2019 5K 000022083500000720160001 PDF View
1591 NT752 0000220827 RBD Instruments Inc 186.75 02/15/2019   000022082700000024670001 PDF View
1592 NT752 0000220767 Paper Concepts 20684.45 02/14/2019 SS 000022076700000059060003 PDF View
1593 NT752 0000220749 Polymer Innovations Inc 21.42 02/14/2019 5K 000022074900000196720001 PDF View
1594 NT752 0000220788 Gesell Institute of Child Development 7490.00 02/14/2019 EXEMPT 000022078800000197400001 PDF View
1595 NT752 0000220708 Intelligent Interiors Inc 63761.79 02/13/2019 R142217 000022070800000230430002 PDF View
1596 NT752 0000220698 Konica Minolta Business Solutions USA 1959.87 02/13/2019 3812 000022069800000214670002 PDF View
1597 NT752 0000219969 Daktronics Inc 35841.00 02/13/2019 BUYBOARD 000021996900000026160001 PDF View
1598 NT752 0000220713 Gecko Green Lawn Care&Pest Prevention 2100.00 02/13/2019 5K 000022071300000138140001 PDF View
1599 NT752 0000220636 Live Systems LLC 70084.28 02/12/2019 TIPS 000022063600000677900001 PDF View
1600 NT752 0000220671 G Schirmer Inc 285.00 02/12/2019   000022067100000008180001 PDF View
1601 NT752 0000220656 Alfa Aesar 729.60 02/12/2019 5K 000022065600000014820001 PDF View
1602 NT752 0000220622 Evoqua Water Technologies LLC 11500.00 02/12/2019 SS/PROP 000022062200000273310001 PDF View
1603 NT752 0000220609 Cooking Equipment Specialist LLC 4000.00 02/12/2019 5K 000022060900000670220001 PDF View
1604 NT752 0000220194 Southwest Contract 804336.00 02/11/2019 RFP 000022019400000041650001 PDF View
1605 NT752 0000220353 Terrell Painting & Wallcovering 13365.00 02/11/2019 TIPS 000022035300000240500002 PDF View
1606 NT752 0000220521 Music Library Association 300.00 02/11/2019 5K 000022052100000029720001 PDF View
1607 NT752 0000220561 Konica Minolta Business Solutions USA 4228.12 02/08/2019 UTSSCA RPL 191303 000022056100000214670001 PDF View
1608 NT752 0000220402 JR Media Services 1863.00 02/07/2019 5K 000022040200000411820001 PDF View
1609 NT752 0000220386 Leybold USA Inc 7576.69 02/07/2019   000022038600000015050003 PDF View
1610 NT752 0000220457 DAC Inc 33661.00 02/07/2019 15/037JN-02 000022045700000618610002 PDF View
1611 NT752 0000220515 Tenly Landscape Construction Inc 14172.84 02/07/2019 RFP 000022051500000151480001 PDF View
1612 NT752 0000220545 Ted Pella Inc 391.40 02/07/2019 5K 000022054500000069010001 PDF View
1613 NT752 0000220541 Specialty Optical Systems Inc 372.27 02/07/2019 5K 000022054100000196090003 PDF View
1614 NT752 0000220184 Balcazar,Fabricio E 1300.00 02/06/2019 5K 000022018400000193910001 PDF View
1615 NT752 0000220407 Sovereign Media Company 549.00 02/06/2019 5K 000022040700000175370001 PDF View
1616 NT752 0000220427 Sigma-Aldrich Inc 450.37 02/06/2019 5K 000022042700000025800001 PDF View
1617 NT752 0000219289 American Plant Product + Services Inc 271771.48 02/05/2019 RFP 000021928900000190980001 PDF View
1618 NT752 0000220415 Eppendorf North America Inc 5249.00 02/05/2019 SS 000022041500000011750001 PDF View
1619 NT752 0000220240 dormakaba USA Inc 75106.08 02/05/2019 TIPS 000022024000000150570001 PDF View
1620 NT752 0000220337 Grenier Bassoon Service 1730.00 02/04/2019 ATF 000022033700000195220002 PDF View
1621 NT752 0000220237 Fairway Supply Inc 48015.58 02/04/2019 BUYBOARD 000022023700000047370001 PDF View
1622 NT752 0000220360 Zymo Research Corp 509.19 02/04/2019 5K 000022036000000394640001 PDF View
1623 NT752 0000220367 V-Prompt 104.00 02/04/2019 5K 000022036700000710120001 PDF View
1624 NT752 0000218880 Musco Corporation 591353.00 02/04/2019 BUYBOARD 000021888000000053730001 PDF View
1625 NT752 0000220305 Ricoh USA 631.50 02/01/2019 DIR RPLC162042 000022030500000612410001 PDF View
1626 NT752 0000220334 GREENHOUSE RESTAURANT 350.00 02/01/2019   000022033400000057410001 PDF View
1627 NT752 0000219615 UCS Inc 162509.00 01/31/2019 BUYBOARD 000021961500000191900001 PDF View
1628 NT752 0000220255 Fisher Scientific 350.00 01/31/2019 UTSSCA 000022025500000015080001 PDF View
1629 NT752 0000220282 Park City Club 4717.00 01/31/2019 5K 000022028200000279760001 PDF View
1630 NT752 0000220278 Ricoh USA 1486.59 01/31/2019 DIR 000022027800000612410001 PDF View
1631 NT752 0000220171 Ricoh USA 1284.36 01/30/2019 DIR 000022017100000612410001 PDF View
1632 NT752 0000219833 Entech Sales & Service Inc 54182.00 01/30/2019 BUYBOARD 000021983300000021920001 PDF View
1633 NT752 0000220153 Executive Refreshments Inc 3500.00 01/30/2019 5K 000022015300000193850001 PDF View
1634 NT752 0000220219 Thermo Fisher Scientific Chemicals Inc 27.10 01/30/2019 UTSSCA 000022021900000166050001 PDF View
1635 NT752 0000220097 Electro Acoustics & Video Inc 500573.49 01/28/2019 SS/PROP 000022009700000050110002 PDF View
1636 NT752 0000217170 Xerox Corporation 1729.93 01/25/2019 072719100 000021717000000011780002 PDF View
1637 NT752 0000220034 Kwik Kar Denton Rayzor Ranch 2000.00 01/25/2019 5K 000022003400000194350001 PDF View
1638 NT752 0000220083 Academic Specialties Texas Inc 153233.00 01/25/2019 503-16 000022008300000272740002 PDF View
1639 NT752 0000220053 Kwik Kar Denton Rayzor Ranch 1000.00 01/25/2019 5K 000022005300000194350001 PDF View
1640 NT752 0000220038 Iowa State University Science Technology 170144.00 01/25/2019 SUB 000022003800000085560001 PDF View
1641 NT752 0000219982 Wilson Project Management LLC 1786.00 01/25/2019 TCPN 000021998200000420130001 PDF View
1642 NT752 0000219958 EJ Ward Inc 2557.60 01/24/2019 5K 000021995800000669860001 PDF View
1643 NT752 0000220015 LabExpress LLC 5025.00 01/24/2019 BIDS 000022001500000739960001 PDF View
1644 NT752 0000219843 McMillan James Equipment Company 12692.50 01/24/2019 ATF 000021984300000419880001 PDF View
1645 NT752 0000219844 Great Southwestern Fire&Safety 10000.00 01/23/2019 EMERG 000021984400000048530001 PDF View
1646 NT752 0000219964 VAI Architects Incorporated 70000.00 01/23/2019 RFP 000021996400000059420001 PDF View
1647 NT752 0000219288 WSP USA Buildings Inc 114250.00 01/23/2019 RFQ769-15-848ER 000021928800000430960002 PDF View
1648 NT752 0000219949 Research Foundation for SUNY 3090.00 01/22/2019 SUB 000021994900000105760001 PDF View
1649 NT752 0000219913 Elm Ridge Enterprises 350.00 01/22/2019 SS/PROP 000021991300000185250002 PDF View
1650 NT752 0000219936 Zygo Corporation 10909.00 01/22/2019 SS/PROP 000021993600000193970002 PDF View
1651 NT752 0000219882 JR Media Services 55872.92 01/18/2019 EXEMPT 000021988200000411820001 PDF View
1652 NT752 0000219866 Pearson 768.72 01/18/2019 5K 000021986600000348000001 PDF View
1653 NT752 0000219653 Konica Minolta Business Solutions USA 1035.34 01/18/2019 UTSSCA 000021965300000214670001 PDF View
1654 NT752 0000219880 Superior Fiber & Data Services Inc 28492.56 01/18/2019 TIPS 000021988000000157710001 PDF View
1655 NT752 0000219872 Pearson 1993.50 01/18/2019 5K 000021987200000348000001 PDF View
1656 NT752 0000219429 Campos Engineering Inc 257260.00 01/18/2019 IDIQ 000021942900000048750001 PDF View
1657 NT752 0000219811 Pronto Staffing CLB Inc 9520.00 01/17/2019 BIDS 000021981100000744390001 PDF View
1658 NT752 0000219788 Xerox Corporation 3021.84 01/17/2019 TSO 3043 000021978800000011780001 PDF View
1659 NT752 0000219797 Texas State Historical Association 250.00 01/17/2019 5K 000021979700000209840001 PDF View
1660 NT752 0000219239 Jordan Schnitzer Family Foundation 4381.25 01/17/2019 5K 000021923900000190580001 PDF View
1661 NT752 0000219836 Classic Landscapes&Maintenance Inc 1470.00 01/17/2019